[[{"header":{"parameterUnit":"m.s-1","parameterCategory":1,"la1":31.0,"la2":29.5877,"lo1":-88.7671,"lo2":-86.6584,"dy":0.0162,"dx":0.0185,"nx":115,"ny":88,"refTime":"2023-05-09T06:00:00:Z","depth":0,"parameterNumber":2,"parameterNumberName":"U-component_of_WINDS"},"data":[0.0,0.0,0.0,0.0,0.0,0.0,0.0,0.0,0.0,0.0,0.0,0.0,0.0,0.0,0.0,0.0,0.0,0.0,0.0,0.0,0.0,0.0,0.0,0.0,0.0,0.0,0.0,0.0,0.0,0.0,0.0,0.0,0.0,0.0,0.0,0.0,0.0,0.0,0.0,0.0,0.0,0.0,0.0,0.0,0.0,0.0,0.0,0.0,0.0,0.0,0.0,0.0,0.0,0.0,0.0,0.0,0.0,0.0,0.0,0.0,0.0,0.0,0.0,0.0,0.0,0.0,0.0,0.0,0.0,0.0,0.0,0.0,0.0,0.0,0.0,0.0,0.0,0.0,0.0,0.0,0.0,0.0,0.0,0.0,0.0,0.0,0.0,0.0,0.0,0.0,0.0,0.0,0.0,0.0,0.0,0.0,0.0,0.0,0.0,0.0,0.0,0.0,0.0,0.0,0.0,0.0,0.0,0.0,0.0,0.0,0.0,0.0,0.0,0.0,0.0,0.0,0.0,0.0,0.0,0.0,0.0,0.0,0.0,0.0,0.0,0.0,0.0,0.0,0.0,0.0,0.0,0.0,0.0,0.0,0.0,0.0,0.0,0.0,0.0,0.0,0.0,0.0,0.0,0.0,0.0,0.0,0.0,0.0,0.0,0.0,0.0,0.0,0.0,0.0,0.0,0.0,0.0,0.0,0.0,0.0,0.0,0.0,0.0,0.0,0.0,0.0,0.0,0.0,0.0,0.0,0.0,0.0,0.0,0.0,0.0,0.0,0.0,0.0,0.0,0.0,0.0,0.0,0.0,0.0,0.0,0.0,0.0,0.0,0.0,0.0,0.0,0.0,0.0,0.0,0.0,0.0,0.0,0.0,0.0,0.0,0.0,0.0,0.0,0.0,0.0,0.0,0.0,0.0,0.0,0.0,0.0,0.0,0.0,0.0,0.0,0.0,0.0,0.0,0.0,0.0,0.0,0.0,0.0,0.0,0.0,0.0,0.0,0.0,0.0,0.0,0.0,0.0,0.0,0.0,0.0,0.0,0.0,0.0,0.0,0.0,0.0,0.0,0.0,0.0,0.0,0.0,0.0,0.0,0.0,0.0,0.0,0.0,0.0,0.0,0.0,0.0,0.0,0.0,0.0,0.0,0.0,0.0,0.0,0.0,0.0,0.0,0.0,0.0,0.0,0.0,0.0,0.0,0.0,0.0,0.0,0.0,0.0,0.0,0.0,0.0,0.0,0.0,0.0,0.0,0.0,0.0,0.0,0.0,0.0,0.0,0.0,0.0,0.0,0.0,0.0,0.0,0.0,0.0,0.0,0.0,0.0,0.0,0.0,0.0,0.0,0.0,0.0,0.0,0.0,0.0,0.0,0.0,0.0,0.0,0.0,0.0,0.0,0.0,0.0,0.0,0.0,0.0,0.0,0.0,0.0,0.0,0.0,0.0,0.0,0.0,0.0,0.0,0.0,0.0,0.0,0.0,0.0,0.0,0.0,0.0,0.0,0.0,0.0,0.0,0.0,0.0,0.0,0.0,0.0,0.0,0.0,0.0,0.0,0.0,0.0,0.0,0.0,0.0,0.0,0.0,0.0,0.0,0.0,0.0,0.0,0.0,0.0,0.0,0.0,0.0,0.0,0.0,0.0,0.0,0.0,0.0,0.0,0.0,0.0,0.0,0.0,0.0,0.0,0.0,0.0,0.0,0.0,0.0,0.0,0.0,0.0,0.0,0.0,0.0,0.0,0.0,0.0,0.0,0.0,0.0,0.0,0.0,0.0,0.0,0.0,0.0,0.0,0.0,0.0,0.0,0.0,0.0,0.0,0.0,0.0,0.0,0.0,0.0,0.0,0.0,0.0,0.0,0.0,0.0,0.0,0.0,0.0,0.0,0.0,0.0,0.0,0.0,0.0,0.0,0.0,0.0,0.0,0.0,0.0,0.0,0.0,0.0,0.0,0.0,0.0,0.0,0.0,0.0,0.0,0.0,0.0,0.0,0.0,0.0,0.0,0.0,0.0,0.0,0.0,0.0,0.0,0.0,0.0,0.0,0.0,0.0,0.0,0.0,0.0,0.0,0.0,0.0,0.0,0.0,0.0,0.0,0.0,0.0,0.0,0.0,0.0,0.0,0.0,0.0,0.0,0.0,0.0,0.0,0.0,0.0,0.0,0.0,0.0,0.0,0.0,0.0,0.0,0.0,0.0,0.0,0.0,0.0,0.0,0.0,0.0,0.0,0.0,0.0,0.0,0.0,0.0,0.0,0.0,0.0,0.0,0.0,0.0,0.0,0.0,0.0,0.0,0.0,0.0,0.0,0.0,0.0,0.0,0.0,0.0,0.0,0.0,0.0,0.0,0.0,0.0,0.0,0.0,0.0,0.0,0.0,0.0,0.0,0.0,0.0,0.0,0.0,0.0,0.0,0.0,0.0,0.0,0.0,0.0,0.0,0.0,0.0,0.0,0.0,0.0,0.0,0.0,0.0,0.0,0.0,0.0,0.0,0.0,0.0,0.0,0.0,0.0,0.0,0.0,0.0,0.0,0.0,0.0,0.0,0.0,0.0,0.0,0.0,0.0,0.0,0.0,0.0,0.0,0.0,0.0,0.0,0.0,0.0,0.0,0.0,0.0,0.0,0.0,0.0,0.0,0.0,0.0,0.0,0.0,0.0,0.0,0.0,0.0,0.0,0.0,0.0,0.0,0.0,0.0,0.0,0.0,0.0,0.0,0.0,0.0,0.0,0.0,0.0,0.0,0.0,0.0,0.0,0.0,0.0,0.0,0.0,0.0,0.0,0.0,0.0,0.0,0.0,0.0,0.0,0.0,0.0,0.0,0.0,0.0,0.0,0.0,0.0,0.0,0.0,0.0,0.0,0.0,0.0,0.0,0.0,0.0,0.0,0.0,0.0,0.0,0.0,0.0,0.0,0.0,0.0,0.0,0.0,0.0,0.0,0.0,0.0,0.0,0.0,0.0,0.0,0.0,0.0,0.0,0.0,0.0,0.0,0.0,0.0,0.0,0.0,0.0,0.0,0.0,0.0,0.0,0.0,0.0,0.0,0.0,0.0,0.0,0.0,0.0,0.0,0.0,0.0,0.0,0.0,0.0,0.0,0.0,0.0,0.0,0.0,0.0,0.0,0.0,0.0,0.0,0.0,0.0,0.0,0.0,0.0,0.0,0.0,0.0,0.0,0.0,0.0,0.0,0.0,0.0,0.0,0.0,0.0,0.0,0.0,0.0,0.0,0.0,0.0,0.0,0.0,0.0,0.0,0.0,0.0,0.0,0.0,0.0,0.0,0.0,0.0,0.0,0.0,0.0,0.0,0.0,0.0,0.0,0.0,0.0,0.0,0.0,0.0,0.0,0.0,0.0,0.0,0.0,0.0,0.0,0.0,0.0,0.0,0.0,0.0,0.0,0.0,0.0,0.0,0.0,0.0,0.0,0.0,0.0,0.0,0.0,0.0,0.0,0.0,0.0,0.0,0.0,0.0,0.0,0.0,0.0,0.0,0.0,0.0,0.0,0.0,0.0,0.0,0.0,0.0,0.0,0.0,0.0,0.0,0.0,0.0,0.0,0.0,0.0,0.0,0.0,0.0,0.0,0.0,0.0,0.0,0.0,0.0,0.0,0.0,0.0,0.0,0.0,0.0,0.0,0.0,0.0,0.0,0.0,0.0,0.0,0.0,0.0,0.0,0.0,0.0,0.0,0.0,0.0,0.0,0.0,0.0,0.0,0.0,0.0,0.0,0.0,0.0,0.0,0.0,0.0,0.0,0.0,0.0,0.0,0.0,0.0,0.0,0.0,0.0,0.0,0.0,0.0,0.0,0.0,0.0,0.0,0.0,0.0,0.0,0.0,0.0,0.0,0.0,0.0,0.0,0.0,0.0,0.0,0.0,0.0,0.0,0.0,0.0,0.0,0.0,0.0,0.0,0.0,0.0,0.0,0.0,0.0,0.0,0.0,0.0,0.0,0.0,0.0,0.0,0.0,0.0,0.0,0.0,0.0,0.0,0.0,0.0,0.0,0.0,0.0,0.0,0.0,0.0,0.0,0.0,0.0,0.0,0.0,0.0,0.0,0.0,0.0,0.0,0.0,0.0,0.0,0.0,0.0,0.0,0.0,0.0,0.0,0.0,0.0,0.0,0.0,0.0,0.0,0.0,0.0,0.0,0.0,0.0,0.0,0.0,0.0,0.0,0.0,0.0,0.0,0.0,0.0,0.0,0.0,0.0,0.0,0.0,0.0,0.0,0.0,0.0,0.0,0.0,-3.08,0.0,0.0,0.0,0.0,0.0,0.0,0.0,0.0,0.0,0.0,0.0,0.0,0.0,0.0,0.0,0.0,0.0,0.0,0.0,0.0,0.0,0.0,0.0,0.0,0.0,0.0,0.0,0.0,0.0,0.0,0.0,0.0,0.0,0.0,0.0,0.0,0.0,0.0,0.0,0.0,0.0,0.0,0.0,0.0,0.0,0.0,0.0,0.0,0.0,0.0,0.0,0.0,0.0,0.0,0.0,0.0,0.0,0.0,0.0,0.0,0.0,0.0,0.0,0.0,0.0,0.0,0.0,0.0,0.0,0.0,0.0,0.0,0.0,0.0,0.0,0.0,0.0,0.0,0.0,0.0,0.0,0.0,0.0,0.0,0.0,0.0,0.0,0.0,0.0,0.0,0.0,0.0,0.0,0.0,0.0,0.0,0.0,0.0,0.0,0.0,0.0,0.0,0.0,0.0,0.0,0.0,0.0,0.0,0.0,0.0,-3.08,-3.08,-3.08,-3.08,-3.08,0.0,0.0,0.0,0.0,0.0,0.0,0.0,0.0,0.0,0.0,0.0,0.0,0.0,0.0,0.0,0.0,0.0,0.0,0.0,0.0,0.0,0.0,0.0,0.0,0.0,0.0,0.0,0.0,0.0,0.0,0.0,0.0,0.0,0.0,0.0,0.0,0.0,0.0,0.0,0.0,0.0,0.0,0.0,0.0,0.0,0.0,0.0,0.0,0.0,0.0,0.0,0.0,0.0,0.0,0.0,0.0,0.0,0.0,0.0,0.0,0.0,0.0,0.0,0.0,0.0,0.0,0.0,0.0,0.0,0.0,0.0,0.0,0.0,0.0,0.0,0.0,0.0,0.0,0.0,0.0,0.0,0.0,0.0,0.0,0.0,0.0,0.0,0.0,0.0,0.0,0.0,0.0,0.0,0.0,0.0,0.0,0.0,0.0,0.0,0.0,0.0,0.0,0.0,0.0,0.0,0.0,0.0,0.0,0.0,0.0,0.0,0.0,-3.08,-3.08,-3.08,0.0,0.0,0.0,0.0,0.0,0.0,0.0,0.0,0.0,0.0,0.0,0.0,0.0,0.0,0.0,0.0,0.0,0.0,0.0,0.0,0.0,0.0,0.0,0.0,0.0,0.0,0.0,0.0,0.0,0.0,0.0,0.0,0.0,0.0,0.0,0.0,0.0,0.0,0.0,0.0,0.0,0.0,0.0,0.0,0.0,0.0,0.0,0.0,0.0,0.0,0.0,0.0,0.0,0.0,0.0,0.0,0.0,0.0,0.0,0.0,0.0,0.0,0.0,0.0,0.0,0.0,0.0,0.0,0.0,0.0,0.0,0.0,0.0,0.0,0.0,0.0,0.0,0.0,0.0,0.0,0.0,0.0,0.0,0.0,0.0,0.0,0.0,0.0,0.0,0.0,0.0,0.0,0.0,0.0,0.0,0.0,0.0,0.0,0.0,0.0,0.0,0.0,0.0,0.0,0.0,0.0,0.0,0.0,0.0,0.0,-3.08,-3.08,-3.0781,0.0,-3.08,0.0,0.0,0.0,0.0,0.0,0.0,0.0,0.0,0.0,0.0,0.0,0.0,0.0,0.0,0.0,0.0,0.0,0.0,0.0,0.0,0.0,0.0,0.0,0.0,0.0,0.0,0.0,0.0,0.0,0.0,0.0,0.0,0.0,0.0,0.0,0.0,0.0,0.0,0.0,0.0,0.0,0.0,0.0,0.0,0.0,0.0,0.0,0.0,0.0,0.0,0.0,0.0,0.0,0.0,0.0,0.0,0.0,0.0,0.0,0.0,0.0,0.0,0.0,0.0,0.0,0.0,0.0,0.0,0.0,0.0,0.0,0.0,0.0,0.0,0.0,0.0,0.0,0.0,0.0,0.0,0.0,0.0,0.0,0.0,0.0,0.0,0.0,0.0,0.0,0.0,0.0,0.0,0.0,0.0,0.0,0.0,0.0,0.0,0.0,0.0,0.0,0.0,0.0,0.0,0.0,0.0,0.0,0.0,0.0,0.0,-3.0099,-3.0099,-2.9591,-2.9572,0.0,0.0,0.0,0.0,0.0,0.0,0.0,0.0,0.0,0.0,0.0,0.0,0.0,0.0,0.0,0.0,0.0,0.0,0.0,0.0,0.0,0.0,0.0,0.0,0.0,0.0,0.0,0.0,0.0,0.0,0.0,0.0,0.0,0.0,0.0,0.0,0.0,0.0,0.0,0.0,0.0,0.0,0.0,0.0,0.0,0.0,0.0,0.0,0.0,0.0,0.0,0.0,0.0,0.0,0.0,0.0,0.0,0.0,0.0,0.0,0.0,0.0,0.0,0.0,0.0,0.0,0.0,0.0,0.0,0.0,0.0,0.0,0.0,0.0,0.0,0.0,0.0,0.0,0.0,0.0,0.0,0.0,0.0,0.0,0.0,0.0,0.0,0.0,0.0,0.0,0.0,0.0,0.0,0.0,0.0,0.0,0.0,0.0,0.0,0.0,0.0,0.0,0.0,0.0,0.0,0.0,0.0,0.0,0.0,0.0,-2.9878,-2.9471,-2.9238,-2.863,-2.8708,-2.9549,0.0,0.0,0.0,0.0,0.0,0.0,0.0,0.0,0.0,0.0,0.0,0.0,0.0,0.0,0.0,0.0,0.0,0.0,0.0,0.0,0.0,0.0,0.0,0.0,0.0,0.0,0.0,0.0,0.0,0.0,0.0,0.0,0.0,0.0,0.0,0.0,0.0,0.0,0.0,0.0,0.0,0.0,0.0,0.0,0.0,0.0,0.0,0.0,0.0,0.0,0.0,0.0,0.0,0.0,0.0,0.0,0.0,0.0,0.0,0.0,0.0,0.0,0.0,0.0,0.0,0.0,0.0,0.0,0.0,0.0,0.0,0.0,0.0,0.0,0.0,0.0,0.0,0.0,0.0,0.0,0.0,0.0,0.0,0.0,0.0,0.0,0.0,0.0,0.0,0.0,0.0,0.0,0.0,0.0,0.0,0.0,0.0,0.0,0.0,0.0,0.0,0.0,0.0,0.0,0.0,0.0,0.0,0.0,-2.9609,-2.9494,-2.9125,-2.8364,-2.8306,-2.8676,0.0,0.0,0.0,0.0,0.0,0.0,0.0,0.0,0.0,0.0,0.0,0.0,0.0,0.0,0.0,0.0,0.0,0.0,0.0,0.0,0.0,0.0,0.0,0.0,0.0,0.0,0.0,0.0,0.0,0.0,0.0,0.0,0.0,0.0,0.0,0.0,0.0,0.0,0.0,0.0,0.0,0.0,0.0,0.0,0.0,0.0,0.0,0.0,0.0,0.0,0.0,0.0,0.0,0.0,0.0,0.0,0.0,0.0,0.0,0.0,0.0,0.0,0.0,0.0,0.0,0.0,0.0,0.0,0.0,0.0,0.0,0.0,0.0,0.0,0.0,0.0,0.0,0.0,0.0,0.0,0.0,0.0,0.0,0.0,0.0,0.0,0.0,0.0,0.0,0.0,0.0,0.0,0.0,0.0,0.0,0.0,0.0,0.0,0.0,0.0,0.0,0.0,0.0,0.0,0.0,0.0,0.0,0.0,0.0,-2.9509,-2.8471,-2.7503,-2.6666,-2.6627,-2.7288,0.0,0.0,0.0,0.0,0.0,0.0,0.0,0.0,0.0,0.0,0.0,0.0,0.0,0.0,0.0,0.0,0.0,0.0,0.0,0.0,0.0,0.0,0.0,0.0,0.0,0.0,0.0,0.0,0.0,0.0,0.0,0.0,0.0,0.0,0.0,0.0,0.0,0.0,0.0,0.0,0.0,0.0,0.0,0.0,0.0,0.0,0.0,0.0,0.0,0.0,0.0,0.0,0.0,0.0,0.0,0.0,0.0,0.0,0.0,0.0,0.0,0.0,0.0,0.0,0.0,0.0,0.0,0.0,0.0,0.0,0.0,0.0,0.0,0.0,0.0,0.0,0.0,0.0,0.0,0.0,0.0,0.0,0.0,0.0,0.0,0.0,0.0,0.0,0.0,0.0,0.0,0.0,0.0,0.0,0.0,0.0,0.0,0.0,0.0,0.0,0.0,0.0,0.0,0.0,0.0,0.0,0.0,0.0,0.0,-2.9511,0.0,-2.71,-2.6538,-2.652,-2.7201,0.0,0.0,0.0,0.0,0.0,0.0,0.0,0.0,0.0,0.0,0.0,0.0,0.0,0.0,0.0,0.0,0.0,0.0,0.0,0.0,0.0,0.0,0.0,0.0,0.0,0.0,0.0,0.0,0.0,0.0,0.0,0.0,0.0,0.0,0.0,0.0,0.0,0.0,0.0,0.0,0.0,0.0,0.0,0.0,0.0,0.0,0.0,0.0,0.0,0.0,0.0,0.0,0.0,0.0,0.0,0.0,0.0,0.0,0.0,0.0,0.0,0.0,0.0,0.0,0.0,0.0,0.0,0.0,0.0,0.0,0.0,0.0,0.0,0.0,0.0,0.0,0.0,0.0,0.0,0.0,0.0,0.0,0.0,0.0,0.0,0.0,0.0,0.0,0.0,0.0,0.0,0.0,0.0,0.0,0.0,0.0,0.0,0.0,0.0,0.0,0.0,0.0,0.0,0.0,0.0,0.0,0.0,0.0,-3.0309,-2.9515,-2.8644,-2.8143,-2.8171,-2.8113,-2.8582,0.0,0.0,0.0,0.0,0.0,0.0,0.0,0.0,0.0,0.0,0.0,0.0,0.0,0.0,0.0,0.0,0.0,0.0,0.0,0.0,0.0,0.0,0.0,0.0,0.0,0.0,0.0,0.0,0.0,0.0,0.0,0.0,0.0,0.0,0.0,0.0,0.0,0.0,0.0,0.0,0.0,0.0,0.0,0.0,0.0,0.0,0.0,0.0,0.0,0.0,0.0,0.0,0.0,0.0,0.0,0.0,0.0,0.0,0.0,0.0,0.0,0.0,0.0,0.0,0.0,0.0,0.0,0.0,0.0,0.0,0.0,0.0,0.0,0.0,0.0,0.0,0.0,0.0,0.0,0.0,0.0,0.0,0.0,0.0,0.0,0.0,0.0,0.0,0.0,0.0,0.0,0.0,0.0,0.0,0.0,0.0,0.0,0.0,0.0,0.0,0.0,0.0,0.0,0.0,0.0,0.0,0.0,0.0,0.0,-2.945,-2.8626,-2.8196,-2.8201,-2.8206,-2.86,0.0,0.0,0.0,0.0,0.0,0.0,0.0,0.0,0.0,0.0,0.0,0.0,0.0,0.0,0.0,0.0,0.0,0.0,0.0,0.0,0.0,0.0,0.0,0.0,0.0,0.0,0.0,0.0,0.0,0.0,0.0,0.0,0.0,0.0,0.0,0.0,0.0,0.0,0.0,0.0,0.0,0.0,0.0,0.0,0.0,0.0,0.0,0.0,0.0,0.0,0.0,0.0,0.0,0.0,0.0,0.0,0.0,0.0,0.0,0.0,0.0,0.0,0.0,0.0,0.0,0.0,0.0,0.0,0.0,0.0,0.0,0.0,0.0,0.0,0.0,0.0,0.0,0.0,0.0,0.0,0.0,0.0,0.0,0.0,0.0,0.0,0.0,0.0,0.0,0.0,0.0,0.0,0.0,0.0,0.0,0.0,0.0,0.0,0.0,0.0,0.0,0.0,0.0,0.0,0.0,0.0,0.0,0.0,0.0,-3.028,-2.9538,-2.913,-2.914,-2.9129,-2.9387,-2.9956,0.0,0.0,0.0,0.0,0.0,0.0,0.0,0.0,0.0,0.0,0.0,0.0,0.0,0.0,0.0,0.0,0.0,0.0,0.0,0.0,0.0,0.0,0.0,0.0,0.0,0.0,0.0,0.0,0.0,0.0,0.0,0.0,0.0,0.0,0.0,0.0,0.0,0.0,0.0,0.0,0.0,0.0,0.0,0.0,0.0,0.0,0.0,0.0,0.0,0.0,0.0,0.0,0.0,0.0,0.0,0.0,0.0,0.0,0.0,0.0,0.0,0.0,0.0,0.0,0.0,0.0,0.0,0.0,0.0,0.0,0.0,0.0,0.0,0.0,0.0,0.0,0.0,0.0,0.0,0.0,0.0,0.0,0.0,0.0,0.0,0.0,0.0,0.0,0.0,0.0,0.0,0.0,0.0,0.0,0.0,0.0,0.0,0.0,0.0,0.0,0.0,0.0,0.0,0.0,0.0,0.0,0.0,0.0,-3.1857,-3.1168,-3.0817,-3.0752,-3.0755,-3.0784,0.0,0.0,0.0,0.0,0.0,0.0,0.0,0.0,0.0,0.0,0.0,0.0,0.0,0.0,0.0,0.0,0.0,0.0,0.0,0.0,0.0,0.0,0.0,0.0,0.0,0.0,0.0,0.0,0.0,0.0,0.0,0.0,0.0,0.0,0.0,0.0,0.0,0.0,0.0,0.0,0.0,0.0,0.0,0.0,0.0,0.0,0.0,0.0,0.0,0.0,0.0,0.0,0.0,0.0,0.0,0.0,0.0,0.0,0.0,0.0,0.0,0.0,0.0,0.0,0.0,0.0,0.0,0.0,0.0,0.0,0.0,0.0,0.0,0.0,0.0,0.0,0.0,0.0,0.0,0.0,0.0,0.0,0.0,0.0,0.0,0.0,0.0,0.0,0.0,0.0,0.0,0.0,0.0,0.0,0.0,0.0,0.0,0.0,0.0,0.0,0.0,0.0,0.0,0.0,0.0,0.0,0.0,0.0,0.0,-3.2558,-3.2472,-3.2145,-3.1623,-3.1635,-3.1388,0.0,0.0,0.0,0.0,0.0,0.0,0.0,0.0,0.0,0.0,0.0,0.0,0.0,0.0,0.0,0.0,0.0,0.0,0.0,0.0,0.0,0.0,0.0,0.0,0.0,0.0,0.0,0.0,0.0,0.0,0.0,0.0,0.0,0.0,0.0,0.0,0.0,0.0,0.0,0.0,0.0,0.0,0.0,0.0,0.0,0.0,0.0,0.0,0.0,0.0,0.0,0.0,0.0,0.0,0.0,0.0,0.0,0.0,0.0,0.0,0.0,0.0,0.0,0.0,0.0,0.0,0.0,0.0,0.0,0.0,0.0,0.0,0.0,0.0,0.0,0.0,0.0,0.0,0.0,0.0,0.0,0.0,0.0,0.0,0.0,0.0,0.0,0.0,0.0,0.0,0.0,0.0,0.0,0.0,0.0,0.0,0.0,0.0,0.0,0.0,0.0,0.0,0.0,0.0,0.0,0.0,0.0,0.0,-3.2112,-3.3334,-3.3435,-3.3262,-3.2822,-3.2585,-3.2057,0.0,0.0,0.0,0.0,0.0,0.0,0.0,0.0,0.0,0.0,0.0,0.0,0.0,0.0,0.0,0.0,0.0,0.0,0.0,0.0,0.0,0.0,0.0,0.0,0.0,0.0,0.0,0.0,0.0,0.0,0.0,0.0,0.0,0.0,0.0,0.0,0.0,0.0,0.0,0.0,0.0,0.0,0.0,0.0,0.0,0.0,0.0,0.0,0.0,0.0,0.0,0.0,0.0,0.0,0.0,0.0,0.0,0.0,0.0,0.0,0.0,0.0,0.0,0.0,0.0,0.0,0.0,0.0,0.0,0.0,0.0,0.0,0.0,0.0,0.0,0.0,0.0,0.0,0.0,0.0,0.0,0.0,0.0,0.0,0.0,0.0,0.0,0.0,0.0,0.0,0.0,0.0,0.0,0.0,0.0,0.0,0.0,0.0,0.0,0.0,0.0,0.0,0.0,0.0,0.0,0.0,0.0,0.0,-3.2374,-3.4068,-3.4186,-3.4196,-3.4187,-3.3548,-3.2773,0.0,0.0,0.0,0.0,0.0,0.0,0.0,0.0,0.0,0.0,0.0,0.0,0.0,0.0,0.0,0.0,0.0,0.0,0.0,0.0,0.0,0.0,0.0,0.0,0.0,0.0,0.0,0.0,0.0,0.0,0.0,0.0,0.0,0.0,0.0,0.0,0.0,0.0,0.0,0.0,0.0,0.0,0.0,0.0,0.0,0.0,0.0,0.0,0.0,0.0,0.0,0.0,0.0,0.0,0.0,0.0,0.0,0.0,0.0,0.0,0.0,0.0,0.0,0.0,0.0,0.0,0.0,0.0,0.0,0.0,0.0,0.0,0.0,0.0,0.0,0.0,0.0,0.0,0.0,0.0,0.0,0.0,0.0,0.0,0.0,0.0,0.0,0.0,0.0,0.0,0.0,0.0,0.0,0.0,0.0,0.0,0.0,0.0,0.0,0.0,0.0,0.0,0.0,0.0,0.0,0.0,0.0,0.0,-3.3105,-3.4804,-3.4874,-3.4879,-3.4887,-3.4281,-3.3222,0.0,0.0,0.0,0.0,0.0,0.0,0.0,0.0,0.0,0.0,0.0,0.0,0.0,0.0,0.0,0.0,0.0,0.0,0.0,0.0,0.0,0.0,0.0,0.0,0.0,0.0,0.0,0.0,0.0,0.0,0.0,0.0,0.0,0.0,0.0,0.0,0.0,0.0,0.0,0.0,0.0,0.0,0.0,0.0,0.0,0.0,0.0,0.0,-3.0408,0.0,0.0,0.0,0.0,0.0,0.0,0.0,0.0,0.0,0.0,0.0,0.0,0.0,0.0,0.0,0.0,0.0,0.0,0.0,0.0,0.0,0.0,0.0,0.0,0.0,0.0,0.0,0.0,0.0,0.0,0.0,0.0,0.0,0.0,0.0,0.0,0.0,0.0,0.0,0.0,0.0,0.0,0.0,0.0,0.0,0.0,0.0,0.0,0.0,0.0,0.0,0.0,0.0,0.0,0.0,0.0,0.0,0.0,0.0,-3.361,-3.4908,-3.4982,-3.5018,-3.5044,-3.4764,-3.3839,0.0,0.0,0.0,0.0,0.0,0.0,0.0,0.0,0.0,0.0,0.0,0.0,0.0,0.0,0.0,0.0,0.0,0.0,0.0,0.0,0.0,0.0,0.0,0.0,0.0,0.0,0.0,0.0,0.0,0.0,0.0,0.0,0.0,0.0,0.0,0.0,0.0,0.0,0.0,0.0,0.0,0.0,0.0,0.0,0.0,0.0,0.0,0.0,0.0,0.0,0.0,0.0,0.0,0.0,0.0,0.0,0.0,0.0,0.0,0.0,0.0,0.0,0.0,0.0,0.0,0.0,0.0,0.0,0.0,0.0,0.0,0.0,0.0,0.0,0.0,0.0,0.0,0.0,0.0,0.0,0.0,0.0,0.0,0.0,0.0,0.0,0.0,0.0,0.0,0.0,0.0,0.0,0.0,0.0,0.0,0.0,0.0,0.0,0.0,0.0,0.0,0.0,0.0,0.0,0.0,0.0,0.0,-3.3022,-3.3892,-3.4725,-3.4831,-3.4898,-3.4964,-3.5037,-3.4298,-3.271,0.0,0.0,0.0,0.0,0.0,0.0,0.0,0.0,0.0,0.0,0.0,0.0,0.0,0.0,0.0,0.0,0.0,0.0,0.0,0.0,0.0,0.0,0.0,0.0,0.0,0.0,0.0,0.0,0.0,0.0,0.0,0.0,0.0,0.0,0.0,0.0,0.0,0.0,-3.0101,-3.0186,0.0,0.0,0.0,0.0,0.0,0.0,0.0,0.0,-3.0912,0.0,0.0,0.0,0.0,0.0,0.0,0.0,0.0,0.0,0.0,0.0,0.0,0.0,0.0,0.0,0.0,0.0,0.0,0.0,0.0,0.0,0.0,0.0,0.0,0.0,0.0,0.0,0.0,0.0,0.0,0.0,0.0,0.0,0.0,0.0,0.0,0.0,0.0,0.0,0.0,0.0,0.0,0.0,0.0,0.0,0.0,0.0,0.0,0.0,0.0,0.0,0.0,0.0,0.0,0.0,0.0,-3.204,-3.2876,-3.3786,-3.468,-3.4728,-3.4778,-3.4839,-3.4898,-3.4131,-3.2505,0.0,0.0,0.0,0.0,0.0,0.0,0.0,0.0,0.0,0.0,0.0,0.0,0.0,0.0,0.0,0.0,0.0,0.0,0.0,0.0,0.0,0.0,0.0,0.0,0.0,0.0,0.0,0.0,0.0,0.0,0.0,0.0,0.0,0.0,0.0,0.0,0.0,0.0,0.0,-3.0677,-3.0849,0.0,0.0,0.0,0.0,0.0,0.0,0.0,0.0,-3.0513,0.0,0.0,0.0,0.0,0.0,0.0,0.0,0.0,0.0,0.0,0.0,0.0,0.0,0.0,0.0,0.0,0.0,0.0,0.0,0.0,0.0,0.0,0.0,0.0,0.0,0.0,0.0,0.0,0.0,0.0,0.0,0.0,0.0,0.0,0.0,0.0,0.0,0.0,0.0,0.0,0.0,0.0,0.0,0.0,0.0,0.0,0.0,0.0,0.0,0.0,0.0,0.0,0.0,0.0,0.0,-3.246,-3.3336,-3.4001,-3.4476,-3.4528,-3.4572,-3.4645,-3.4716,-3.3975,0.0,0.0,0.0,0.0,0.0,0.0,0.0,0.0,0.0,0.0,0.0,0.0,0.0,0.0,0.0,0.0,0.0,0.0,0.0,0.0,0.0,0.0,0.0,0.0,0.0,0.0,0.0,0.0,0.0,0.0,0.0,0.0,0.0,0.0,0.0,0.0,0.0,0.0,0.0,0.0,-3.0356,-3.0614,-3.0703,0.0,0.0,0.0,0.0,0.0,0.0,-3.1494,-3.141,0.0,0.0,0.0,0.0,0.0,0.0,0.0,0.0,0.0,0.0,0.0,0.0,0.0,0.0,0.0,0.0,0.0,0.0,0.0,0.0,0.0,0.0,0.0,0.0,0.0,0.0,0.0,0.0,0.0,0.0,0.0,0.0,0.0,0.0,0.0,0.0,0.0,0.0,0.0,0.0,0.0,0.0,0.0,0.0,0.0,0.0,0.0,0.0,0.0,0.0,0.0,0.0,0.0,0.0,0.0,-3.2834,-3.3716,-3.4185,-3.4257,-3.4305,-3.4363,-3.4439,-3.4506,-3.377,0.0,0.0,0.0,0.0,0.0,0.0,0.0,0.0,0.0,0.0,0.0,0.0,0.0,0.0,0.0,0.0,0.0,0.0,0.0,0.0,0.0,0.0,0.0,0.0,0.0,0.0,0.0,0.0,0.0,0.0,0.0,0.0,0.0,0.0,0.0,0.0,0.0,0.0,0.0,0.0,0.0,-3.0614,-3.1206,-3.1556,0.0,0.0,0.0,0.0,-3.2662,-3.25,0.0,0.0,0.0,0.0,0.0,0.0,0.0,0.0,0.0,0.0,0.0,0.0,0.0,0.0,0.0,0.0,0.0,0.0,0.0,0.0,0.0,0.0,0.0,0.0,0.0,0.0,0.0,0.0,0.0,0.0,0.0,0.0,0.0,0.0,0.0,0.0,0.0,0.0,0.0,0.0,0.0,0.0,0.0,0.0,0.0,0.0,0.0,0.0,0.0,0.0,0.0,0.0,0.0,0.0,0.0,0.0,-3.2671,-3.3554,-3.4049,-3.4124,-3.4155,-3.4173,-3.4233,-3.4293,-3.3559,0.0,0.0,0.0,0.0,0.0,0.0,0.0,0.0,0.0,0.0,0.0,0.0,0.0,0.0,0.0,0.0,0.0,0.0,0.0,0.0,0.0,0.0,0.0,0.0,0.0,0.0,0.0,0.0,0.0,0.0,0.0,0.0,0.0,0.0,0.0,0.0,0.0,0.0,0.0,0.0,0.0,-3.1895,-3.1297,-3.2472,-3.3192,0.0,0.0,-3.2617,-3.253,-3.196,0.0,0.0,0.0,0.0,0.0,0.0,0.0,0.0,0.0,0.0,0.0,0.0,0.0,0.0,0.0,0.0,0.0,0.0,0.0,0.0,0.0,0.0,0.0,0.0,0.0,0.0,0.0,0.0,0.0,0.0,0.0,0.0,0.0,0.0,0.0,0.0,0.0,0.0,0.0,0.0,0.0,0.0,0.0,0.0,0.0,0.0,0.0,0.0,0.0,0.0,0.0,0.0,0.0,0.0,0.0,-3.2707,-3.3191,-3.4014,-3.4518,-3.4607,-3.4607,-3.4679,-3.4833,-3.4371,-3.3598,0.0,0.0,0.0,0.0,0.0,0.0,0.0,0.0,0.0,0.0,0.0,0.0,0.0,0.0,0.0,0.0,0.0,0.0,0.0,0.0,0.0,0.0,0.0,0.0,0.0,0.0,0.0,0.0,0.0,0.0,0.0,0.0,0.0,0.0,0.0,0.0,0.0,0.0,0.0,0.0,0.0,0.0,-3.1867,-3.2937,0.0,0.0,0.0,-3.3883,-3.3855,0.0,0.0,0.0,0.0,0.0,0.0,0.0,0.0,0.0,0.0,0.0,0.0,0.0,0.0,0.0,0.0,0.0,0.0,0.0,0.0,0.0,0.0,0.0,0.0,0.0,0.0,0.0,0.0,0.0,0.0,0.0,0.0,0.0,0.0,0.0,0.0,0.0,0.0,0.0,0.0,0.0,0.0,0.0,0.0,0.0,0.0,0.0,0.0,0.0,0.0,0.0,0.0,0.0,0.0,0.0,0.0,0.0,-3.3778,-3.4393,-3.4885,-3.5217,-3.5217,-3.5306,-3.545,-3.4636,0.0,0.0,0.0,0.0,0.0,0.0,0.0,0.0,0.0,0.0,0.0,0.0,0.0,0.0,0.0,0.0,0.0,0.0,0.0,0.0,0.0,0.0,0.0,0.0,0.0,0.0,0.0,-2.8123,0.0,0.0,0.0,0.0,0.0,0.0,0.0,0.0,0.0,0.0,0.0,0.0,0.0,0.0,-3.1693,-3.257,-3.344,-3.4207,0.0,0.0,-3.4908,-3.4908,-3.3533,-3.2477,0.0,0.0,0.0,0.0,0.0,0.0,0.0,0.0,0.0,0.0,0.0,0.0,0.0,0.0,0.0,0.0,0.0,0.0,0.0,0.0,0.0,0.0,0.0,0.0,0.0,0.0,0.0,0.0,0.0,0.0,0.0,0.0,0.0,0.0,0.0,0.0,0.0,0.0,0.0,0.0,0.0,0.0,0.0,0.0,0.0,0.0,0.0,0.0,0.0,0.0,0.0,0.0,0.0,0.0,-3.3486,-3.4303,-3.447,-3.4963,-3.5799,-3.5836,-3.5882,-3.5939,-3.5188,-3.4363,0.0,0.0,0.0,0.0,0.0,0.0,0.0,0.0,0.0,0.0,0.0,0.0,0.0,0.0,0.0,0.0,0.0,0.0,0.0,0.0,0.0,0.0,0.0,0.0,0.0,0.0,0.0,0.0,0.0,0.0,0.0,0.0,0.0,0.0,0.0,0.0,0.0,0.0,0.0,0.0,0.0,-3.2448,-3.3288,-3.4215,-3.484,0.0,-3.4917,-3.4908,-3.4908,-3.3505,-3.2406,-3.2406,0.0,0.0,0.0,0.0,0.0,0.0,0.0,0.0,0.0,0.0,0.0,0.0,0.0,0.0,0.0,0.0,0.0,0.0,0.0,0.0,0.0,0.0,0.0,0.0,0.0,0.0,0.0,0.0,0.0,0.0,0.0,0.0,0.0,0.0,0.0,0.0,0.0,0.0,0.0,0.0,0.0,0.0,0.0,0.0,0.0,0.0,0.0,0.0,0.0,0.0,0.0,0.0,0.0,-3.3742,-3.4157,-3.5157,-3.587,-3.6241,-3.6291,-3.6374,-3.6492,-3.5758,-3.5208,0.0,0.0,0.0,0.0,0.0,0.0,0.0,0.0,0.0,0.0,0.0,0.0,0.0,0.0,0.0,0.0,0.0,0.0,0.0,0.0,0.0,0.0,0.0,0.0,0.0,0.0,0.0,0.0,-2.8937,-2.8919,-2.929,0.0,0.0,0.0,0.0,0.0,0.0,0.0,0.0,0.0,0.0,-3.2393,-3.3254,-3.4191,0.0,0.0,-3.4819,-3.4849,-3.4898,-3.3914,-3.2967,-3.2473,-3.1221,0.0,0.0,0.0,0.0,0.0,0.0,0.0,0.0,0.0,0.0,0.0,0.0,0.0,0.0,0.0,0.0,0.0,0.0,0.0,0.0,0.0,0.0,0.0,0.0,0.0,0.0,0.0,0.0,0.0,0.0,0.0,0.0,0.0,0.0,0.0,0.0,0.0,0.0,0.0,0.0,0.0,0.0,0.0,0.0,0.0,0.0,0.0,0.0,0.0,0.0,0.0,0.0,-3.3829,-3.4214,-3.5545,-3.6381,-3.6684,-3.6773,-3.6861,-3.6966,-3.6295,-3.5914,0.0,0.0,0.0,0.0,0.0,0.0,0.0,0.0,0.0,0.0,0.0,0.0,0.0,0.0,0.0,0.0,0.0,0.0,0.0,0.0,0.0,0.0,0.0,0.0,0.0,0.0,0.0,0.0,-2.8994,-2.8966,-2.8779,0.0,0.0,0.0,0.0,0.0,0.0,0.0,0.0,0.0,0.0,-3.2557,-3.344,-3.4164,-3.4604,-3.4645,-3.4687,-3.4674,-3.4517,-3.3742,-3.2997,-3.2438,0.0,0.0,0.0,0.0,0.0,0.0,0.0,0.0,0.0,0.0,0.0,0.0,0.0,0.0,0.0,0.0,0.0,0.0,0.0,0.0,0.0,0.0,0.0,0.0,0.0,0.0,0.0,-2.6046,0.0,0.0,-2.6311,0.0,0.0,0.0,0.0,0.0,0.0,0.0,0.0,0.0,0.0,0.0,0.0,0.0,0.0,0.0,0.0,0.0,0.0,0.0,0.0,0.0,0.0,-3.3771,-3.4671,-3.5425,-3.6237,-3.7057,-3.7186,-3.73,-3.7323,-3.6738,-3.6399,-3.6363,0.0,0.0,0.0,0.0,0.0,0.0,0.0,0.0,0.0,0.0,0.0,0.0,0.0,0.0,0.0,0.0,0.0,0.0,0.0,0.0,0.0,0.0,0.0,0.0,0.0,0.0,-2.9313,-2.9665,-2.9466,0.0,0.0,0.0,0.0,0.0,0.0,0.0,0.0,0.0,-3.1347,-3.2238,-3.3136,-3.403,-3.4316,-3.4427,-3.4514,-3.4569,-3.436,-3.366,-3.2832,-3.225,0.0,0.0,0.0,0.0,0.0,0.0,0.0,0.0,0.0,0.0,0.0,0.0,0.0,0.0,0.0,0.0,0.0,0.0,0.0,0.0,0.0,0.0,0.0,0.0,0.0,0.0,0.0,-2.8535,-2.849,0.0,0.0,0.0,0.0,0.0,0.0,0.0,0.0,0.0,0.0,0.0,-3.0579,-3.0737,0.0,0.0,0.0,0.0,0.0,0.0,0.0,0.0,0.0,0.0,0.0,0.0,-3.3746,-3.4229,-3.5466,-3.6269,-3.6574,-3.6753,-3.6853,-3.6858,-3.6805,-3.6548,-3.6,0.0,0.0,0.0,0.0,0.0,0.0,0.0,0.0,0.0,0.0,0.0,0.0,0.0,0.0,0.0,0.0,0.0,0.0,0.0,0.0,0.0,0.0,0.0,0.0,0.0,-2.8639,0.0,0.0,0.0,0.0,0.0,0.0,0.0,0.0,0.0,0.0,0.0,-3.0215,-3.1174,-3.2023,-3.2908,-3.3862,-3.4074,-3.4161,0.0,0.0,0.0,0.0,0.0,0.0,0.0,0.0,0.0,0.0,0.0,0.0,0.0,0.0,-3.0354,-2.8785,-2.8568,-2.9004,-3.019,0.0,0.0,0.0,0.0,0.0,0.0,0.0,0.0,0.0,0.0,0.0,0.0,0.0,0.0,-3.0255,0.0,-2.9669,0.0,0.0,0.0,0.0,0.0,0.0,0.0,0.0,-3.0971,-3.105,-3.1016,-3.1104,-3.1168,0.0,-3.1437,-3.1057,0.0,0.0,0.0,0.0,0.0,0.0,0.0,0.0,-3.3775,-3.4144,-3.5407,-3.6067,-3.6131,-3.6301,-3.6388,-3.6485,-3.6632,-3.6384,-3.5614,-3.5089,-3.4058,0.0,0.0,0.0,0.0,0.0,0.0,0.0,0.0,0.0,0.0,0.0,0.0,0.0,0.0,0.0,0.0,0.0,0.0,0.0,0.0,0.0,0.0,0.0,-2.8878,0.0,0.0,0.0,0.0,0.0,0.0,0.0,0.0,0.0,-2.8846,-2.9575,-3.0419,-3.1347,-3.2192,-3.2984,-3.3666,0.0,0.0,0.0,0.0,0.0,0.0,0.0,-3.3563,-3.2609,-3.2722,-3.2794,-3.2345,-3.2307,-3.2336,-3.2354,0.0,0.0,-3.0422,-3.0216,-3.0623,-3.182,-3.2064,-3.2274,-3.2835,-3.2993,-3.3065,0.0,0.0,0.0,0.0,0.0,0.0,0.0,0.0,-3.1087,-3.1176,0.0,-3.0713,0.0,0.0,0.0,0.0,0.0,-3.0785,0.0,0.0,-3.1769,-3.1848,-3.1513,-3.1513,-3.1341,-3.113,-3.1265,-3.1408,-3.1582,-3.146,0.0,0.0,0.0,0.0,0.0,0.0,-3.3753,-3.444,-3.5188,-3.5644,-3.5795,-3.591,-3.6058,-3.6182,-3.6233,-3.5935,-3.5263,-3.5057,-3.4308,-3.2831,-3.1983,0.0,0.0,0.0,0.0,0.0,0.0,0.0,0.0,0.0,0.0,0.0,0.0,0.0,0.0,0.0,0.0,0.0,0.0,0.0,0.0,-2.8676,0.0,0.0,0.0,0.0,0.0,0.0,0.0,0.0,0.0,0.0,-2.9589,-3.0309,-3.1106,-3.1894,0.0,0.0,0.0,0.0,-3.3657,-3.386,-3.3881,-3.3663,-3.3001,-3.2921,-3.3,-3.3043,0.0,0.0,-3.2266,-3.2286,-3.2343,-3.2383,-3.2468,-3.2411,-3.2517,-3.2458,-3.2549,-3.2718,-3.2812,-3.2875,-3.2961,-3.316,-3.3128,-3.3489,0.0,0.0,0.0,0.0,-3.2351,-3.2428,-3.2428,-3.2428,-3.2458,-3.2505,-3.2313,0.0,0.0,0.0,0.0,0.0,0.0,-3.2721,-3.2943,-3.3125,-3.3198,-3.3206,-3.3162,-3.3272,-3.3429,-3.3087,-3.3045,-3.3308,-3.2522,-3.1999,-3.1818,0.0,0.0,0.0,0.0,-3.3688,-3.4028,-3.4837,-3.5297,-3.5452,-3.5532,-3.5627,-3.5773,-3.58,-3.5698,-3.5477,-3.4946,-3.4427,-3.3986,-3.2788,0.0,0.0,0.0,0.0,0.0,0.0,0.0,0.0,0.0,0.0,0.0,0.0,0.0,0.0,0.0,0.0,0.0,0.0,0.0,-2.978,-2.9091,-2.8718,0.0,0.0,0.0,0.0,0.0,0.0,0.0,0.0,0.0,-3.0987,-3.1285,-3.1548,0.0,0.0,-3.3152,-3.3337,-3.3382,-3.3422,-3.352,-3.3591,0.0,-3.257,-3.3043,-3.3327,-3.2878,-3.3209,-3.3604,-3.3739,-3.3772,-3.3802,-3.3837,-3.3959,-3.4031,-3.4006,-3.3166,-3.2813,-3.342,-3.3647,-3.3876,-3.4441,-3.4616,-3.4637,-3.4317,-3.3434,-3.3671,-3.3792,-3.3907,-3.4008,-3.4041,-3.406,-3.3812,-3.3729,-3.3751,-3.3352,-3.2962,-3.2658,-3.247,0.0,0.0,0.0,-3.3269,-3.35,-3.3485,-3.3622,-3.3819,-3.3804,-3.3969,-3.4192,-3.3942,-3.3959,-3.4229,-3.3595,-3.3235,-3.3055,0.0,0.0,-3.2408,-3.3092,-3.3618,-3.4001,-3.4572,-3.4923,-3.5065,-3.5142,-3.5281,-3.5396,-3.5396,-3.5435,-3.5481,-3.506,-3.4689,-3.4381,-3.357,-3.2651,0.0,0.0,0.0,0.0,0.0,0.0,0.0,0.0,0.0,0.0,0.0,-2.7572,-2.8015,0.0,0.0,0.0,-2.9412,-2.965,-2.9873,-2.9452,0.0,0.0,0.0,0.0,0.0,0.0,0.0,-2.9523,-3.0256,-3.094,-3.1464,-3.1831,-3.2105,-3.223,-3.2659,-3.3011,-3.317,0.0,-3.3214,-3.3352,-3.3411,-3.3259,-3.2835,-3.3239,-3.3511,-3.3151,-3.3602,-3.4068,-3.4209,-3.4245,-3.4269,-3.4363,-3.4473,-3.4539,-3.458,-3.386,-3.3469,-3.4189,-3.441,-3.4639,-3.517,-3.5278,-3.532,-3.4696,-3.4881,-3.5255,-3.5495,-3.5644,-3.5644,-3.563,-3.5601,-3.5053,-3.4882,-3.4944,-3.3999,-3.3678,-3.3828,-3.3404,0.0,-3.325,-3.3282,-3.3376,-3.343,-3.3415,-3.3555,-3.3818,-3.3818,-3.3894,-3.4061,-3.4166,-3.43,-3.4461,-3.4503,-3.4678,-3.4774,-3.2891,-3.2239,-3.2891,-3.3194,-3.3665,-3.4315,-3.4456,-3.462,-3.4741,-3.4796,-3.4906,-3.5018,-3.5041,-3.5111,-3.5222,-3.5245,-3.4921,-3.4263,-3.4186,-3.3517,-3.2185,0.0,0.0,0.0,0.0,0.0,0.0,0.0,0.0,0.0,0.0,0.0,0.0,0.0,0.0,-2.896,-2.9566,0.0,-2.9303,-2.9813,0.0,0.0,0.0,-2.9523,-2.9743,-2.9879,-2.9964,-2.9963,0.0,0.0,-3.1471,-3.2169,-3.2762,-3.303,-3.2955,-3.2916,-3.2997,-3.3013,-3.306,-3.3232,-3.3262,-3.3292,-3.3262,-3.3386,-3.3502,-3.3574,-3.3726,-3.3815,-3.3934,-3.3985,-3.4036,-3.4148,-3.4233,-3.4305,-3.4363,-3.442,-3.4636,-3.4774,-3.4945,-3.5091,-3.5168,-3.5245,-3.5293,-3.5426,-3.5263,-3.5369,-3.5319,-3.5226,-3.5226,-3.5226,-3.5212,-3.5108,-3.5037,-3.5097,-3.4981,-3.5032,-3.521,-3.5249,-3.5352,-3.552,-3.5692,-3.5551,-3.5281,-3.5267,-3.5115,-3.485,-3.4835,-3.4981,-3.5238,-3.48,-3.4697,-3.4821,-3.4468,-3.4328,-3.4341,-3.397,-3.3838,-3.3953,-3.4212,-3.4474,-3.4755,-3.4781,-3.4884,-3.4996,-3.4627,-3.4448,-3.4472,-3.4611,-3.4643,-3.4691,-3.4707,-3.4625,-3.442,-3.398,-3.3581,-3.3234,-3.217,0.0,0.0,0.0,0.0,0.0,0.0,0.0,0.0,0.0,-2.8045,-2.9152,0.0,-2.9755,0.0,-3.0563,-3.0616,-3.0488,-3.0217,0.0,0.0,-2.9534,-2.9316,-2.9403,-2.9971,-3.0421,-3.0577,-3.1377,-3.2144,-3.2756,-3.3125,-3.3617,-3.4235,-3.3452,-3.2836,-3.2916,-3.2916,-3.2932,-3.3015,-3.3062,-3.3057,-3.3106,-3.3229,-3.3352,-3.3378,-3.3477,-3.3605,-3.3671,-3.3739,-3.3802,-3.3947,-3.4023,-3.4111,-3.4221,-3.4316,-3.442,-3.4564,-3.4791,-3.4964,-3.5019,-3.5136,-3.5223,-3.6193,-3.6012,-3.6012,-3.5805,-3.5454,-3.5375,-3.538,-3.5366,-3.518,-3.5107,-3.5079,-3.5116,-3.5263,-3.5447,-3.563,-3.5797,-3.592,-3.6115,-3.6162,-3.6093,-3.6093,-3.604,-3.5891,-3.5644,-3.5662,-3.5896,-3.5235,-3.5048,-3.5287,-3.5001,-3.4911,-3.5003,-3.5141,-3.5058,-3.48,-3.4837,-3.4927,-3.509,-3.5214,-3.5321,-3.5385,-3.4813,-3.4545,-3.4646,-3.4404,-3.43,-3.4423,-3.4349,-3.4325,-3.4325,-3.3999,-3.3688,-3.3448,-3.2794,-3.1797,0.0,0.0,0.0,0.0,0.0,0.0,0.0,0.0,0.0,0.0,0.0,-3.0858,-3.165,-3.17,-3.1716,-3.1796,-3.1495,-3.1325,-3.1409,-3.1196,-3.1096,-3.1155,-3.1623,-3.1956,-3.207,-3.2579,-3.3068,-3.3523,-3.3745,-3.4033,-3.4506,-3.4004,-3.3616,-3.3716,-3.3536,-3.3303,-3.3336,-3.31,-3.2934,-3.2997,-3.3091,-3.3168,-3.3214,-3.3271,-3.336,-3.3433,-3.3506,-3.3605,-3.3698,-3.3834,-3.3934,-3.4011,-3.4136,-3.4245,-3.437,-3.455,-3.4722,-3.487,-3.5001,-3.5129,-3.6797,-3.6731,-3.6688,-3.6396,-3.5934,-3.5802,-3.5697,-3.5602,-3.5246,-3.5094,-3.5145,-3.4972,-3.5054,-3.5241,-3.5465,-3.5577,-3.5577,-3.5813,-3.6049,-3.6273,-3.6324,-3.648,-3.6661,-3.6173,-3.606,-3.6215,-3.5577,-3.5448,-3.5759,-3.5668,-3.5735,-3.5957,-3.6038,-3.5874,-3.5431,-3.5293,-3.5284,-3.5373,-3.5641,-3.5812,-3.5796,-3.5084,-3.4803,-3.4955,-3.4323,-3.403,-3.4201,-3.4101,-3.405,-3.405,-3.405,-3.3809,-3.3291,-3.3202,-3.2355,0.0,-3.0342,0.0,0.0,0.0,0.0,0.0,0.0,0.0,0.0,-3.1323,-3.1968,-3.2608,-3.2674,-3.2718,-3.284,-3.2884,-3.2972,-3.3151,-3.3262,-3.3368,-3.3401,-3.3539,-3.3639,-3.3622,-3.3758,-3.385,-3.3993,-3.4154,-3.435,-3.4584,-3.4716,-3.4818,-3.4992,-3.4429,-3.3951,-3.4001,-3.3414,-3.3054,-3.3114,-3.3021,-3.2945,-3.3024,-3.307,-3.3119,-3.3247,-3.3322,-3.3375,-3.3495,-3.3633,-3.3753,-3.378,-3.3934,-3.4092,-3.4167,-3.4281,-3.4465,-3.4711,-3.4879,-3.4992,-3.6673,-3.624,-3.624,-3.6175,-3.607,-3.6052,-3.5727,-3.5195,-3.5129,-3.5184,-3.5346,-3.5465,-3.5649,-3.5861,-3.6292,-3.6448,-3.6487,-3.6834,-3.6741,-3.6319,-3.6533,-3.6459,-3.6151,-3.6185,-3.6289,-3.6406,-3.5977,-3.5885,-3.6071,-3.5565,-3.5377,-3.5602,-3.5619,-3.564,-3.5666,0.0,0.0,0.0,-3.5736,-3.5765,-3.5851,-3.5164,-3.4666,-3.446,-3.4425,0.0,-3.3829,-3.3797,-3.3771,-3.3771,-3.3771,0.0,0.0,0.0,0.0,0.0,0.0,0.0,0.0,0.0,0.0,0.0,-3.1482,-3.158,-3.1931,-3.2069,-3.2216,-3.237,-3.2478,-3.2545,-3.2584,-3.2796,-3.2923,-3.2967,-3.3043,-3.3074,-3.3096,-3.3117,-3.3182,-3.3284,-3.3444,-3.3786,-3.4453,-3.4709,-3.5095,-3.5652,-3.5908,-3.6032,-3.616,-3.5246,-3.4641,-3.4641,-3.404,-3.3614,-3.363,-3.3133,-3.2792,-3.2838,-3.2918,-3.2963,-3.3044,-3.3119,-3.3226,-3.3378,-3.3452,-3.3553,-3.3684,-3.3788,-3.3868,-3.3928,-3.4061,-3.4257,-3.4572,-3.4739,-3.4849,-3.7273,-3.6998,-3.6998,-3.6828,0.0,-3.6554,-3.6188,-3.5587,-3.5727,-3.5736,-3.5623,-3.5747,-3.5709,-3.5602,-3.5991,-3.6191,-3.623,-3.664,-3.6746,-3.6501,-3.663,-3.6627,-3.6504,-3.6362,-3.6388,-3.6526,-3.6268,-3.6045,-3.5922,-3.5766,-3.5573,-3.5359,-3.5439,-3.5572,-3.5688,-3.5894,-3.6058,-3.6197,-3.6151,-3.6151,-3.6256,-3.5619,-3.5237,-3.5178,-3.4545,0.0,0.0,0.0,0.0,0.0,0.0,0.0,0.0,-3.3117,0.0,-3.2428,-3.2112,-3.1771,-3.1453,-3.1748,-3.198,-3.2061,-3.2405,-3.261,-3.2657,-3.3028,-3.3304,-3.3288,-3.3407,-3.3494,-3.3494,-3.3674,-3.3766,-3.3806,-3.395,-3.404,-3.4046,-3.4108,-3.4175,-3.4236,-3.4303,-3.4543,-3.503,-3.5217,-3.5484,-3.5924,-3.6084,-3.6191,-3.627,-3.5615,-3.4995,-3.4741,-3.4445,-3.4199,-3.4146,-3.3582,-3.3104,-3.3172,-3.2954,-3.2789,-3.2786,-3.2898,-3.3042,-3.3135,-3.3244,-3.3393,-3.3506,-3.3601,-3.3666,-3.3793,-3.3881,-3.4023,-3.4269,-3.4461,-3.4634,-3.79,-3.79,-3.79,-3.7625,-3.7155,-3.7155,-3.6836,-3.6353,0.0,0.0,0.0,-3.5971,-3.5708,-3.5204,-3.5588,-3.5683,-3.5642,-3.6018,-3.6284,-3.6468,-3.6508,-3.6587,-3.6755,-3.6431,-3.6368,-3.6542,-3.6388,-3.6128,-3.5846,-3.6075,-3.5929,-3.5418,-3.5538,-3.5627,-3.5671,-3.5846,-3.6052,-3.6304,-3.6367,-3.6429,-3.6569,-3.6014,-3.5779,-3.5952,-3.4776,-3.4138,-3.4166,-3.3427,-3.3041,-3.3068,-3.2975,-3.2951,-3.3058,-3.3069,-3.2845,-3.2374,-3.2217,-3.1924,-3.1476,-3.1887,-3.2191,-3.2269,-3.283,-3.3144,-3.3045,-3.3736,-3.4151,-3.4151,-3.4308,-3.4423,-3.4423,-3.4554,-3.4683,-3.4667,-3.4875,-3.5001,-3.5001,-3.5152,-3.5155,-3.5261,-3.5184,-3.5314,-3.5412,-3.547,-3.5594,-3.5684,-3.5795,-3.591,-3.5994,-3.5742,-3.5382,-3.5051,-3.4849,-3.4696,-3.4628,-3.4141,-3.3687,-3.3459,-3.3054,-3.2716,-3.2625,-3.2722,-3.2836,-3.29,-3.3075,-3.3214,-3.3304,-3.3408,-3.3491,-3.3601,-3.3716,-3.3775,-3.3908,-3.4111,-3.4335,-3.79,-3.79,-3.79,-3.7848,-3.7782,-3.7782,-3.758,-3.7228,-3.6509,-3.6144,-3.6066,-3.6309,-3.6079,-3.5537,-3.579,-3.5635,-3.5208,-3.544,-3.5562,-3.5588,-3.575,-3.5884,-3.5897,-3.6146,-3.6341,-3.6325,-3.6306,-3.6468,-3.6656,-3.6431,-3.6117,-3.5868,-3.6026,-3.5911,-3.5582,-3.5569,-3.5602,-3.5666,-3.575,-3.5911,-3.6085,-3.5835,-3.5564,-3.5324,-3.511,-3.4862,-3.4554,-3.3844,-3.3588,-3.3743,-3.3224,-3.2912,-3.2924,-3.2912,-3.2893,-3.2826,-3.2783,-3.2721,-3.2654,-3.2721,-3.2714,-3.2571,-3.2621,-3.2868,-3.3229,-3.3465,-3.3633,-3.3617,-3.3949,-3.4151,-3.4176,-3.4358,-3.4521,-3.4521,-3.4683,-3.478,-3.4763,-3.4875,-3.4994,-3.5105,-3.5111,-3.5175,-3.5268,-3.5314,-3.5337,-3.5383,-3.5452,-3.5435,-3.5588,-3.5878,-3.6111,-3.5984,-3.5503,-3.5157,-3.5059,-3.4543,-3.3981,-3.3327,-3.3261,-3.2985,-3.2615,-3.2558,-3.2607,-3.2773,-3.2868,-3.2963,-3.306,-3.3216,-3.3289,-3.3364,-3.3466,-3.3563,-3.3643,-3.3748,-3.3908,-3.7808,-3.7703,-3.7716,-3.7598,-3.7459,-3.7459,-3.74,-3.7256,-3.6832,-3.6464,-3.6237,-3.6326,-3.6059,-3.5526,-3.5404,-3.5214,-3.4994,-3.4875,-3.4867,-3.4853,-3.4977,-3.5046,-3.5168,-3.5481,-3.5777,-3.599,-3.6189,-3.636,-3.6429,-3.6427,-3.6331,-3.6126,-3.6084,-3.5751,-3.5225,-3.5294,-3.5326,-3.5326,-3.5507,-3.5686,-3.5831,-3.5752,-3.5679,-3.5627,-3.5277,-3.5003,-3.4834,-3.4145,-3.3822,-3.391,-3.3618,-3.3295,-3.2972,-3.297,-3.2801,-3.2447,-3.2432,-3.2416,-3.2416,-3.2416,-3.2318,-3.2148,-3.2203,-3.2302,-3.2441,-3.2846,-3.3113,-3.3113,-3.3523,-3.3771,-3.3771,-3.4025,-3.4201,-3.4275,-3.4399,-3.4497,-3.457,-3.4643,-3.4691,-3.478,-3.478,-3.4828,-3.497,-3.497,-3.5041,-3.5152,-3.5245,-3.5297,-3.5327,-3.5577,-3.5805,-3.5963,-3.5792,-3.5685,-3.5599,-3.5077,-3.4553,-3.4197,-3.3554,-3.3096,-3.2754,-3.2546,-3.2406,-3.2524,-3.2641,-3.2722,-3.287,-3.2967,-3.3028,-3.3137,-3.3211,-3.3316,-3.3404,-3.3506,-3.3698,-3.7598,-3.7413,-3.7413,-3.7307,-3.7108,-3.7015,-3.7015,-3.7015,-3.6968,-3.6726,-3.6356,-3.6409,-3.616,-3.5596,-3.5337,-3.5076,-3.4805,-3.4549,-3.4347,-3.4243,-3.423,-3.4301,-3.4509,-3.4771,-3.5113,-3.5426,-3.5884,-3.6087,-3.6049,-3.6362,-3.6488,-3.636,-3.6091,-3.56,-3.5022,-3.5189,-3.5197,-3.5096,-3.5261,-3.5457,-3.5653,-3.5671,-3.5735,-3.5847,-3.5378,-3.5121,-3.5123,-3.447,-3.4076,-3.4061,-3.3925,-3.3622,-3.3138,-3.3093,-3.2866,-3.2382,-3.2322,-3.2322,-3.2322,-3.2322,-3.222,-3.206,-3.2206,-3.2206,-3.2075,-3.2547,-3.2841,-3.273,-3.3076,-3.334,-3.3382,-3.3642,-3.3848,-3.3949,-3.4126,-3.425,-3.4349,-3.4415,-3.4423,-3.4423,-3.4423,-3.4464,-3.4586,-3.4594,-3.4691,-3.4923,-3.5041,-3.5128,-3.5111,-3.5111,-3.5274,-3.5503,-3.5711,-3.5788,-3.581,-3.5471,-3.507,-3.4937,-3.4085,-3.3416,-3.3047,-3.2518,-3.2246,-3.2319,-3.2353,-3.2473,-3.2625,-3.2707,-3.2773,-3.2852,-3.2945,-3.3073,-3.3198,-3.3319,-3.3502,-3.7168,-3.7155,-3.7121,-3.7121,-3.7062,-3.6815,-3.6722,-3.6722,-3.6546,-3.6427,-3.6445,-3.6845,-3.6698,-3.6282,-3.6154,-3.5577,-3.4661,-3.4589,-3.4268,-3.3793,-3.3755,-3.3755,-3.3839,-3.423,-3.4481,-3.4605,-3.5182,-3.5629,-3.5934,-3.6198,-3.6399,-3.6516,-3.6186,-3.5746,-3.5343,-3.5443,-3.5283,-3.4746,-3.4883,-3.5133,-3.5489,-3.5522,-3.5537,-3.5522,-3.5477,-3.5529,-3.5537,-3.4979,-3.4633,-3.4603,-3.4044,-3.3622,-3.341,-3.3379,-3.3349,-3.3259,-3.3245,-3.3274,-3.3259,-3.3289,-3.3154,-3.3076,-3.3016,-3.2986,-3.2846,-3.3031,-3.2886,-3.2529,-3.2676,-3.2893,-3.2884,-3.3277,-3.3513,-3.3555,-3.3771,-3.3949,-3.3975,-3.4075,-3.4151,-3.4134,-3.4126,-3.4201,-3.4275,-3.4325,-3.4399,-3.4546,-3.4618,-3.4659,-3.4643,-3.4739,-3.4804,-3.4883,-3.5111,-3.536,-3.5389,-3.5515,-3.5238,-3.4735,-3.467,-3.41,-3.3294,-3.275,-3.2519,-3.2242,-3.2037,-3.2161,-3.2284,-3.2387,-3.2524,-3.2557,-3.269,-3.2854,-3.2997,-3.3073,-3.3235,-3.6593,-3.6439,-3.6452,-3.6452,-3.6465,-3.6499,-3.6546,-3.6499,-3.6452,-3.6417,-3.6417,-3.6593,-3.6561,-3.6333,-3.597,-3.5388,-3.4654,-3.4325,-3.39,-3.3394,-3.3356,-3.3386,-3.3556,-3.3725,-3.3937,-3.4243,-3.4647,-3.5018,-3.5507,-3.6044,-3.6161,-3.5979,-3.6061,-3.5894,-3.5432,-3.569,-3.5528,-3.4891,-3.502,-3.5063,-3.4894,-3.5049,-3.5148,-3.5148,-3.5148,-3.5166,-3.5187,-3.4964,-3.483,-3.48,-3.4577,-3.4186,-3.3784,-3.3754,-3.3576,-3.3204,-3.316,-3.316,-3.316,-3.316,-3.3083,-3.2926,-3.302,-3.2989,-3.2847,-3.3004,-3.2955,-3.2766,-3.2784,-3.2911,-3.3008,-3.2998,-3.2996,-3.3102,-3.3303,-3.3466,-3.3529,-3.3591,-3.3633,-3.3617,-3.371,-3.3771,-3.3822,-3.3975,-3.4075,-3.4176,-3.4275,-3.4374,-3.4374,-3.4497,-3.457,-3.4594,-3.4739,-3.4923,-3.5111,-3.5297,-3.5221,-3.5015,-3.4672,-3.4112,-3.3871,-3.2876,-3.2415,-3.2343,-3.2093,-3.1925,-3.1947,-3.2055,-3.2179,-3.2249,-3.237,-3.2539,-3.2673,-3.2753,-3.2914,-3.6026,-3.587,-3.587,-3.5895,-3.5908,-3.6193,-3.6275,-3.6323,-3.6358,-3.6417,-3.6417,-3.6417,-3.6417,-3.6355,-3.5943,-3.542,-3.4893,-3.4537,-3.3972,-3.3357,-3.3307,-3.3305,-3.3338,-3.3398,-3.3569,-3.3894,-3.4105,-3.4439,-3.4949,-3.5615,-3.5785,-3.5507,-3.5944,-3.5905,-3.5424,-3.5702,-3.5573,-3.4989,-3.5146,-3.4965,-3.4453,-3.4627,-3.4777,-3.4765,-3.4835,-3.4835,-3.4835,-3.4868,-3.4883,-3.485,-3.4835,-3.4629,-3.4141,-3.4112,-3.3891,-3.3448,-3.3375,-3.3375,-3.3375,-3.3375,-3.3311,-3.3214,-3.3311,-3.3311,-3.3232,-3.3311,-3.3407,-3.3458,-3.3256,-3.3186,-3.321,-3.3073,-3.2974,-3.2939,-3.3092,-3.3181,-3.3139,-3.3118,-3.3134,-3.3203,-3.3282,-3.3361,-3.3424,-3.3607,-3.3797,-3.3838,-3.3975,-3.4134,-3.4151,-3.4226,-3.4325,-3.4366,-3.4399,-3.4594,-3.4859,-3.5041,-3.5128,-3.5091,-3.4691,-3.451,-3.4443,-3.3338,-3.2444,-3.2505,-3.2056,-3.1745,-3.1687,-3.1728,-3.1857,-3.2001,-3.2109,-3.2214,-3.237,-3.2438,-3.2573,-3.5368,-3.5608,-3.5608,-3.562,-3.5668,-3.5908,-3.6015,-3.6051,-3.6275,-3.6405,-3.6417,-3.6417,-3.6417,-3.6417,-3.6342,-3.6019,-3.5495,-3.537,-3.4839,-3.3922,-3.3834,-3.3571,-3.3124,-3.3326,-3.3398,-3.3484,-3.367,-3.3979,-3.4439,-3.4895,-3.5277,-3.5413,-3.5789,-3.5701,-3.526,-3.5526,-3.5426,-3.4957,-3.5036,-3.4801,-3.4317,-3.4448,-3.4482,-3.4428,-3.4597,-3.4664,-3.4698,-3.4802,-3.485,-3.4683,-3.4683,-3.4587,-3.4375,-3.4375,-3.4331,-3.4302,-3.4302,-3.4317,-3.4288,-3.4259,-3.4259,-3.4269,-3.4201,-3.4269,-3.4172,-3.4172,-3.4272,-3.4551,-3.3944,-3.3642,-3.3573,-3.3578,-3.3498,-3.3215,-3.331,-3.3175,-3.2741,-3.2846,-3.273,-3.2901,-3.2928,-3.2962,-3.3096,-3.3346,-3.345,-3.3487,-3.3617,-3.372,-3.3771,-3.3848,-3.3924,-3.4,-3.4151,-3.4349,-3.4513,-3.4707,-3.4763,-3.4754,-3.4781,-3.4765,-3.4401,-3.3896,-3.322,-3.266,-3.2293,-3.1924,-3.1553,-3.1466,-3.1634,-3.1746,-3.1803,-3.193,-3.2073,-3.2161,-3.2284,-3.4433,-3.4835,-3.5017,-3.5163,-3.5368,-3.562,-3.5764,-3.5752,-3.6003,-3.6146,-3.6181,-3.6323,-3.6417,-3.6417,-3.6417,-3.6069,-3.552,-3.5495,-3.5094,-3.4437,-3.4073,-3.3796,-3.3639,-3.3343,-3.3197,-3.324,-3.3441,-3.3641,-3.3937,-3.4327,-3.4577,-3.4825,-3.5182,-3.5359,-3.5345,-3.5557,-3.5454,-3.5036,-3.5082,-3.4868,-3.4441,-3.4446,-3.4301,-3.3916,-3.4082,-3.4191,-3.4191,-3.4312,-3.4366,-3.4312,-3.4414,-3.4481,-3.4414,-3.438,-3.438,-3.438,-3.438,-3.438,-3.438,-3.438,-3.438,-3.438,-3.438,-3.438,-3.438,-3.438,-3.4414,-3.4471,-3.434,-3.4153,-3.4121,-3.3804,-3.338,-3.3261,-3.3411,-3.3514,-3.3376,-3.3357,-3.332,-3.2979,-3.268,-3.2511,-3.2753,-3.2807,-3.29,-3.2942,-3.3145,-3.3319,-3.345,-3.3555,-3.3668,-3.3745,-3.3848,-3.3924,-3.3975,-3.4349,-3.457,-3.4611,-3.4617,-3.4657,-3.4447,-3.4031,-3.341,-3.3201,-3.2792,-3.214,-3.1726,-3.1407,-3.1514,-3.1428,-3.1488,-3.1618,-3.1747,-3.1839,-3.202,-3.3744,-3.4139,-3.4335,-3.464,-3.4969,-3.5223,-3.5368,-3.5476,-3.5777,-3.5872,-3.5908,-3.6133,-3.6275,-3.6275,-3.637,-3.6182,-3.5818,-3.5818,-3.547,-3.4989,-3.46,-3.4336,-3.4098,-3.3596,-3.3345,-3.335,-3.3316,-3.3398,-3.3598,-3.3781,-3.3992,-3.4176,-3.4577,-3.4839,-3.499,-3.5223,-3.5238,-3.4994,-3.5033,-3.4867,-3.4506,-3.4539,-3.4341,-3.3839,-3.3932,-3.3967,-3.3752,-3.3848,-3.3971,-3.404,-3.4196,-3.4346,-3.438,-3.438,-3.438,-3.438,-3.438,-3.438,-3.438,-3.438,-3.438,-3.438,-3.438,-3.438,-3.438,-3.438,-3.438,-3.438,-3.438,-3.4448,-3.4422,-3.3976,-3.3581,-3.3515,-3.3658,-3.3724,-3.356,-3.3653,-3.3592,-3.3362,-3.3069,-3.2865,-3.2844,-3.2844,-3.2851,-3.2789,-3.2885,-3.2935,-3.3038,-3.3198,-3.333,-3.3477,-3.3555,-3.3607,-3.3684,-3.3924,-3.4176,-3.4226,-3.4349,-3.4448,-3.4456,-3.4037,-3.3787,-3.3654,-3.3188,-3.2458,-3.1912,-3.1537,-3.1308,-3.1199,-3.1215,-3.1312,-3.1428,-3.1559,-3.171,-3.3346,-3.3595,-3.3595,-3.3892,-3.4384,-3.4628,-3.492,-3.5187,-3.5476,-3.5572,-3.562,-3.586,-3.6003,-3.6051,-3.6228,-3.6345,-3.6295,-3.627,-3.6019,-3.552,-3.5408,-3.5119,-3.4668,-3.4161,-3.3859,-3.3809,-3.3388,-3.3222,-3.3398,-3.3454,-3.3526,-3.3725,-3.3979,-3.416,-3.4118,-3.4509,-3.4703,-3.4733,-3.4897,-3.478,-3.4326,-3.4591,-3.4517,-3.4027,-3.4286,-3.4122,-3.341,-3.3571,-3.3731,-3.3862,-3.404,-3.4196,-3.4346,-3.438,-3.438,-3.438,-3.438,-3.438,-3.438,-3.438,-3.438,-3.438,-3.438,-3.438,-3.438,-3.438,-3.438,-3.438,-3.438,-3.4414,-3.4414,-3.4317,-3.4174,-3.4044,-3.4009,-3.3868,-3.3519,-3.3421,-3.3591,-3.3774,-3.3668,-3.3819,-3.3757,-3.3405,-3.3186,-3.3137,-3.2913,-3.2773,-3.2958,-3.3096,-3.2986,-3.3117,-3.3291,-3.3434,-3.3456,-3.3503,-3.3668,-3.3822,-3.4,-3.4126,-3.4226,-3.3999,-3.3876,-3.3767,-3.3531,-3.2848,-3.2023,-3.1651,-3.1328,-3.1191,-3.1143,-3.1066,-3.1134,-3.1235,-3.137,-3.2645,-3.3047,-3.3058,-3.3358,-3.3843,-3.3941,-3.4237,-3.4628,-3.4932,-3.5114,-3.532,-3.562,-3.5716,-3.5764,-3.5847,-3.5943,-3.6098,-3.6146,-3.6093,-3.6009,-3.5671,-3.5433,-3.5169,-3.4726,-3.4274,-3.3935,-3.3734,-3.3476,-3.3273,-3.3197,-3.3283,-3.3484,-3.3556,-3.3683,-3.381,-3.3979,-3.4092,-3.4272,-3.4369,-3.443,-3.452,-3.4644,-3.4499,-3.4192,-3.4361,-3.4254,-3.3782,-3.3916,-3.3832,-3.3522,-3.3779,-3.404,-3.4162,-3.4196,-3.4264,-3.438,-3.438,-3.438,-3.438,-3.438,-3.438,-3.438,-3.438,-3.438,-3.438,-3.438,-3.438,-3.438,-3.438,-3.438,-3.438,-3.438,-3.4331,-3.4291,-3.439,-3.4387,-3.4177,-3.3982,-3.3888,-3.3878,-3.3583,-3.336,-3.3439,-3.3351,-3.3457,-3.3546,-3.3422,-3.3401,-3.3623,-3.3573,-3.3552,-3.3398,-3.3404,-3.3282,-3.3201,-3.3184,-3.3244,-3.343,-3.3591,-3.3848,-3.3924,-3.3984,-3.3881,-3.3811,-3.3623,-3.3146,-3.2331,-3.1863,-3.1594,-3.1165,-3.0995,-3.0921,-3.0864,-3.0938,-3.1041,-3.1834,-3.219,-3.2291,-3.2645,-3.3135,-3.3235,-3.3595,-3.4089,-3.4286,-3.4543,-3.4932,-3.5175,-3.538,-3.5464,-3.556,-3.5716,-3.586,-3.5872,-3.5955,-3.6096,-3.5997,-3.5855,-3.5734,-3.5232,-3.4738,-3.4248,-3.3997,-3.3721,-3.3395,-3.3224,-3.3167,-3.327,-3.327,-3.3356,-3.3471,-3.3556,-3.3683,-3.3823,-3.3894,-3.405,-3.4301,-3.4426,-3.4406,-3.4282,-3.4472,-3.438,-3.4079,-3.4272,-3.4228,-3.3868,-3.3945,-3.3986,-3.3945,-3.4005,-3.4108,-3.423,-3.4312,-3.4312,-3.438,-3.438,-3.438,-3.438,-3.438,-3.438,-3.438,-3.438,-3.438,-3.438,-3.438,-3.438,-3.438,-3.438,-3.438,-3.438,-3.4501,-3.4597,-3.4624,-3.4431,-3.4309,-3.4257,-3.4024,-3.3787,-3.3824,-3.3667,-3.3749,-3.386,-3.3727,-3.3744,-3.3925,-3.3969,-3.377,-3.3644,-3.3625,-3.3387,-3.2977,-3.2863,-3.2869,-3.3018,-3.3187,-3.3477,-3.3658,-3.371,-3.3691,-3.3754,-3.3646,-3.3274,-3.2546,-3.2355,-3.2089,-3.1553,-3.0981,-3.0863,-3.0833,-3.0663,-3.0736,-3.0931,-3.123,-3.1424,-3.1874,-3.2319,-3.2594,-3.2996,-3.3496,-3.3595,-3.3892,-3.4323,-3.458,-3.4884,-3.5175,-3.532,-3.5464,-3.5572,-3.5572,-3.562,-3.5752,-3.5963,-3.6128,-3.6147,-3.5699,-3.5211,-3.4731,-3.4324,-3.401,-3.3784,-3.3407,-3.3149,-3.3124,-3.3111,-3.3124,-3.3197,-3.3313,-3.3398,-3.3441,-3.3556,-3.3683,-3.3713,-3.3937,-3.4134,-3.4304,-3.4472,-3.4467,-3.4326,-3.4578,-3.471,-3.4479,-3.4278,-3.4106,-3.3818,-3.3872,-3.4111,-3.4198,-3.4117,-3.4239,-3.4375,-3.4346,-3.438,-3.438,-3.438,-3.438,-3.438,-3.438,-3.438,-3.438,-3.438,-3.438,-3.438,-3.438,-3.438,-3.438,-3.4414,-3.4481,-3.4664,-3.4635,-3.4614,-3.4728,-3.4839,-3.4824,-3.4662,-3.4301,-3.4191,-3.4142,-3.3832,-3.381,-3.3905,-3.4073,-3.3894,-3.3849,-3.3834,-3.3531,-3.3135,-3.3012,-3.2977,-3.2821,-3.2927,-3.3091,-3.334,-3.3372,-3.345,-3.3549,-3.3582,-3.323,-3.296,-3.2716,-3.2336,-3.1746,-3.1339,-3.1041,-3.08,-3.0678,-3.0554,-3.0661,-3.089,-3.0972,-3.1219,-3.1516,-3.1783,-3.2229,-3.2723,-3.2946,-3.3296,-3.3744,-3.3892,-3.4188,-3.458,-3.4677,-3.492,-3.5175,-3.5271,-3.5416,-3.5572,-3.5512,-3.5752,-3.6051,-3.5961,-3.5634,-3.5274,-3.5056,-3.4655,-3.3947,-3.3771,-3.3495,-3.3124,-3.3174,-3.3136,-3.3124,-3.3167,-3.3154,-3.3185,-3.324,-3.3356,-3.3471,-3.3526,-3.3683,-3.3894,-3.4147,-3.429,-3.4382,-3.4805,-3.4872,-3.4537,-3.4467,-3.4451,-3.4435,-3.459,-3.461,-3.4448,-3.4504,-3.4479,-3.4272,-3.422,-3.4273,-3.438,-3.4438,-3.438,-3.438,-3.438,-3.438,-3.438,-3.438,-3.438,-3.438,-3.438,-3.438,-3.438,-3.438,-3.4414,-3.4481,-3.4481,-3.4515,-3.4534,-3.4549,-3.4601,-3.4624,-3.457,-3.4508,-3.4581,-3.4466,-3.4336,-3.4379,-3.4426,-3.4388,-3.4072,-3.3908,-3.3614,-3.3362,-3.3259,-3.3081,-3.2792,-3.2736,-3.2749,-3.2936,-3.2996,-3.3134,-3.324,-3.3351,-3.3123,-3.3067,-3.2949,-3.2439,-3.1926,-3.1694,-3.1424,-3.1037,-3.0796,-3.0604,-3.0349,-3.0464,-3.0568,-3.0713,-3.0858,-3.1178,-3.1578,-3.2026,-3.224,-3.2645,-3.3158,-3.3247,-3.3545,-3.404,-3.4089,-3.4286,-3.4689,-3.475,-3.4799,-3.4896,-3.4799,-3.509,-3.5524,-3.5752,-3.5734,-3.5531,-3.5435,-3.5032,-3.454,-3.4329,-3.3947,-3.3533,-3.342,-3.3319,-3.3124,-3.3124,-3.3124,-3.3124,-3.3124,-3.3154,-3.3283,-3.327,-3.3398,-3.3556,-3.3738,-3.3949,-3.4272,-3.4618,-3.47,-3.4568,-3.4569,-3.4588,-3.4582,-3.4728,-3.4748,-3.4632,-3.4814,-3.481,-3.4718,-3.471,-3.47,-3.4617,-3.4614,-3.451,-3.4385,-3.4346,-3.438,-3.438,-3.438,-3.438,-3.438,-3.438,-3.4346,-3.4278,-3.4278,-3.4312,-3.438,-3.4414,-3.4414,-3.438,-3.4346,-3.4312,-3.4433,-3.4395,-3.4496,-3.4587,-3.4595,-3.4651,-3.4798,-3.4854,-3.478,-3.438,-3.4177,-3.3979,-3.3733,-3.3572,-3.3232,-3.2929,-3.2542,-3.2539,-3.2488,-3.2597,-3.2715,-3.2823,-3.2996,-3.3082,-3.2977,-3.2882,-3.2659,-3.2257,-3.2063,-3.1748,-3.135,-3.1131,-3.09,-2.9994,-3.0047,-3.0245,-3.0339,-3.0401,-3.0672,-3.1023,-3.1424,-3.1527,-3.1986,-3.2544,-3.2645,-3.2996,-3.3496,-3.3545,-3.3706,-3.4026,-3.4014,-3.3965,-3.4014,-3.4014,-3.4347,-3.4726,-3.5223,-3.544,-3.5473,-3.5281,-3.5152,-3.4959,-3.4794,-3.448,-3.4028,-3.3878,-3.3646,-3.3307,-3.3187,-3.3124,-3.3124,-3.3124,-3.3124,-3.3154,-3.3154,-3.324,-3.3368,-3.3441,-3.3654,-3.3937,-3.4217,-3.4342,-3.4473,-3.4699,-3.4653,-3.4437,-3.4509,-3.463,-3.4778,-3.4938,-3.5106,-3.5243,-3.5249,-3.5359,-3.4989,-3.5031,-3.4907,-3.4583,-3.4614,-3.4698,-3.4781,-3.4583,-3.4708,-3.4708,-3.4621,-3.4605,-3.4525,-3.4376,-3.4407,-3.4452,-3.4448,-3.4361,-3.4346,-3.4176,-3.4094,-3.404,-3.402,-3.4034,-3.4312,-3.4346,-3.4414,-3.4515,-3.4534,-3.4568,-3.4514,-3.4449,-3.4457,-3.4196,-3.3918,-3.3522,-3.3115,-3.2562,-3.2332,-3.2135,-3.2177,-3.2237,-3.2355,-3.2492,-3.259,-3.2586,-3.2524,-3.2513,-3.2494,-3.2233,-3.1946,-3.1654,-3.157,-3.1406,-2.9994,-2.9994,-3.0036,-3.0088,-3.0151,-3.0349,-3.0547,-3.0703,-3.0868,-3.1322,-3.1783,-3.1885,-3.2291,-3.2946,-3.2946,-3.3108,-3.3308,-3.3358,-3.3308,-3.3108,-3.3308,-3.3308,-3.3595,-3.4176,-3.4823,-3.5078,-3.521,-3.5072,-3.4918,-3.4991,-3.4828,-3.4259,-3.4033,-3.3859,-3.3721,-3.3332,-3.3124,-3.3124,-3.3093,-3.3124,-3.3124,-3.3124,-3.3111,-3.3197,-3.3313,-3.3441,-3.3569,-3.3725,-3.3956,-3.4254,-3.4655,-3.4794,-3.4848,-3.4995,-3.4966,-3.4733,-3.495,-3.4989,-3.4843,-3.4989,-3.5087,-3.5232,-3.5249,-3.5352,-3.5396,-3.5304,-3.5461,-3.5597,-3.5632,-3.5517,-3.5453,-3.5461,-3.5282,-3.5168,-3.5196,-3.5239,-3.5239,-3.4573,-3.4134,-3.4063,-3.4,-3.3951,-3.3965,-3.3896,-3.3931,-3.3985,-3.402,-3.4054,-3.4122,-3.4191,-3.4259,-3.4361,-3.4283,-3.425,-3.4163,-3.3916,-3.3703,-3.3296,-3.2783,-3.238,-3.2164,-3.1797,-3.1913,-3.1949,-3.1951,-3.2051,-3.2107,-3.2272,-3.2322,-3.2358,-3.235,-3.2111,-3.1888,-3.1877,-3.1763,-2.9994,-2.9994,-2.9994,-2.9994,-3.0047,-3.0141,-3.0297,-3.0391,-3.0557,-3.0868,-3.1178,-3.123,-3.1538,-3.2048,-3.2037,-3.219,-3.2392,-3.2443,-3.2392,-3.228,-3.2392,-3.2392,-3.2342,-3.2835,-3.3484,-3.4286,-3.458,-3.4631,-3.481,-3.4987,-3.4955,-3.4601,-3.438,-3.4259,-3.4058,-3.3558,-3.3421,-3.3407,-3.3194,-3.3124,-3.3124,-3.3124,-3.3124,-3.3124,-3.3197,-3.3283,-3.3283,-3.3368,-3.3496,-3.3654,-3.3937,-3.4356,-3.4743,-3.4977,-3.4886,-3.4767,-3.5009,-3.514,-3.4998,-3.5098,-3.5261,-3.5248,-3.5362,-3.5316,-3.5399,-3.5424,-3.5608,-3.5703,-3.5747,-3.5834,-3.5739,-3.5652,-3.5534,-3.53,-3.5388,-3.5402,-3.5195,-3.4683,-3.4325,-3.4233,-3.4013,-3.385,-3.3744,-3.3766,-3.3724,-3.3744,-3.3779,-3.3813,-3.3965,-3.4034,-3.3985,-3.402,-3.3985,-3.3971,-3.3971,-3.3871,-3.3853,-3.3499,-3.3058,-3.2745,-3.2532,-3.2072,-3.1628,-3.159,-3.1542,-3.1582,-3.1682,-3.1894,-3.1992,-3.1959,-3.1952,-3.1999,-3.2071,-3.2021,-3.1856,-2.9994,-2.9994,-2.9994,-2.9994,-2.9994,-2.9994,-3.0151,-3.0287,-3.0349,-3.0505,-3.0724,-3.0724,-3.0972,-3.1127,-3.1178,-3.1281,-3.1435,-3.1538,-3.1527,-3.1465,-3.1424,-3.1465,-3.1465,-3.1618,-3.2128,-3.3185,-3.3583,-3.3944,-3.4495,-3.4848,-3.4775,-3.4709,-3.4703,-3.4524,-3.4243,-3.3863,-3.358,-3.3564,-3.3296,-3.3008,-3.2977,-3.2952,-3.2952,-3.2952,-3.2952,-3.2952,-3.2952,-3.2982,-3.2995,-3.2995,-3.2927,-3.3343,-3.3894,-3.4356,-3.4509,-3.4483,-3.4815,-3.4967,-3.4954,-3.5184,-3.5278,-3.5056,-3.5225,-3.5253,-3.519,-3.54,-3.5616,-3.5774,-3.5877,-3.5914,-3.5596,-3.5677,-3.5447,-3.5217,-3.5213,-3.5208,-3.5059,-3.4973,-3.4872,-3.474,-3.4292,-3.3924,-3.3698,-3.3607,-3.3557,-3.3501,-3.3536,-3.3605,-3.3758,-3.3827,-3.3744,-3.3709,-3.3675,-3.3675,-3.3675,-3.3675,-3.3638,-3.3531,-3.318,-3.3001,-3.2758,-3.2395,-3.1873,-3.1267,-3.1144,-3.1264,-3.1294,-3.1321,-3.1408,-3.1437,-3.1595,-3.1732,-3.1903,-3.2092,-3.1891,-2.9994,-2.9994,-2.9994,-2.9994,-2.9994,-2.9994,-3.0047,-3.0047,-3.0099,-3.0245,-3.0443,-3.0443,-3.062,-3.0776,-3.089,-3.0879,-3.0879,-3.0879,-3.0765,-3.0651,-3.0599,-3.0588,-3.0599,-3.0588,-3.1002,-3.1629,-3.228,-3.2974,-3.3683,-3.4066,-3.424,-3.4401,-3.4426,-3.436,-3.4342,-3.4053,-3.3678,-3.3523,-3.3284,-3.3024,-3.2691,-3.2574,-3.2562,-3.2562,-3.2562,-3.2574,-3.2519,-3.2519,-3.2519,-3.2519,-3.2506,-3.2593,-3.2896,-3.3343,-3.3598,-3.3768,-3.4063,-3.4356,-3.441,-3.4522,-3.4772,-3.4993,-3.5076,-3.5399,-3.5556,-3.5806,-3.5864,-3.6192,-3.635,-3.6367,-3.6161,-3.6022,-3.6044,-3.59,-3.5857,-3.5988,-3.5892,-3.5568,-3.5254,-3.5092,-3.4554,-3.407,-3.39,-3.3682,-3.3486,-3.3445,-3.3382,-3.3375,-3.3417,-3.3466,-3.3466,-3.3431,-3.341,-3.3361,-3.3361,-3.3396,-3.3403,-3.3437,-3.3218,-3.3035,-3.2843,-3.2636,-3.2179,-3.1625,-3.1207,-3.1188,-3.1138,-3.1011,-3.0998,-3.116,-3.1309,-3.1424,-3.1481,-3.1523,-3.1752,-2.9994,-2.9994,-2.9994,-2.9994,-2.9994,-2.9994,-2.9994,-2.9994,-2.9994,-3.0088,-3.0193,-3.0193,-3.0256,-3.036,-3.0422,-3.0318,-3.0203,-3.0193,-3.0036,-2.9764,-2.9711,-2.9701,-2.9764,-2.9754,-2.9973,-3.0443,-3.095,-3.1863,-3.2873,-3.3074,-3.3484,-3.3883,-3.4002,-3.4113,-3.4234,-3.3969,-3.3748,-3.3526,-3.3317,-3.2941,-3.2406,-3.2296,-3.2213,-3.2213,-3.2313,-3.24,-3.2356,-3.2257,-3.2213,-3.2169,-3.2113,-3.2025,-3.2157,-3.2419,-3.2797,-3.3056,-3.3343,-3.3598,-3.3696,-3.3852,-3.4105,-3.4481,-3.4577,-3.4812,-3.5209,-3.5413,-3.571,-3.6031,-3.6191,-3.6111,-3.5816,-3.5884,-3.5764,-3.5642,-3.5737,-3.5858,-3.583,-3.5678,-3.5494,-3.5275,-3.4768,-3.4335,-3.4238,-3.3973,-3.357,-3.3392,-3.3296,-3.3247,-3.3219,-3.3255,-3.3332,-3.3241,-3.322,-3.3206,-3.3206,-3.3206,-3.3206,-3.3206,-3.3248,-3.3066,-3.3016,-3.2861,-3.2549,-3.2042,-3.1706,-3.1529,-3.1323,-3.1322,-3.1123,-3.0865,-3.0889,-3.0953,-3.0895,-3.097,-3.1204,-2.9994,-2.9994,-2.9994,-2.9994,-2.9994,-2.9994,-2.9994,-2.9994,-2.9994,-2.9994,-2.9994,-2.9994,-2.9994,-2.9942,-2.9827,-2.9722,-2.9501,-2.9501,-2.9343,-2.9132,-2.9089,-2.9026,-2.9026,-2.9026,-2.9237,-2.9659,-2.9816,-3.0588,-3.1812,-3.2167,-3.2633,-3.3074,-3.3285,-3.3595,-3.3789,-3.3642,-3.3682,-3.3589,-3.3374,-3.2873,-3.2486,-3.2106,-3.1926,-3.189,-3.2074,-3.2094,-3.2081,-3.1937,-3.1906,-3.1906,-3.1849,-3.1705,-3.1749,-3.1849,-3.2113,-3.2463,-3.2742,-3.297,-3.3099,-3.3185,-3.3356,-3.3738,-3.3865,-3.4105,-3.4468,-3.4812,-3.5113,-3.5345,-3.5426,-3.5345,-3.5141,-3.5195,-3.5072,-3.499,-3.5072,-3.5223,-3.5223,-3.5196,-3.5251,-3.5021,-3.473,-3.4558,-3.4416,-3.4203,-3.3841,-3.3808,-3.3716,-3.3492,-3.3473,-3.3406,-3.3386,-3.3184,-3.3122,-3.3122,-3.3086,-3.3037,-3.3051,-3.3016,-3.3122,-3.3073,-3.3157,-3.3178,-3.2806,-3.2461,-3.2436,-3.2255,-3.1947,-3.1511,-3.1222,-3.0945,-3.0664,-3.0497,-3.0534,-3.0552,-3.0717,-2.9994,-2.9994,-2.9994,-2.9994,-2.9994,-2.9994,-2.9994,-2.9994,-2.9994,-2.9994,-2.9942,-2.9994,-2.9827,-2.9606,-2.9343,-2.9237,-2.9185,-2.9142,-2.9036,-2.8781,-2.8727,-2.8727,-2.8727,-2.8737,-2.8877,-2.9132,-2.9185,-2.9858,-3.0785,-3.1157,-3.1629,-3.2128,-3.2471,-3.2723,-3.3024,-3.3109,-3.3146,-3.3043,-3.294,-3.2744,-3.2442,-3.1947,-3.1757,-3.165,-3.1527,-3.1425,-3.1559,-3.1547,-3.16,-3.1705,-3.1705,-3.1705,-3.1705,-3.1705,-3.1749,-3.1925,-3.2201,-3.2475,-3.2562,-3.2605,-3.2692,-3.3025,-3.3154,-3.3398,-3.3768,-3.4176,-3.4439,-3.4522,-3.4564,-3.4522,-3.4397,-3.4452,-3.441,-3.441,-3.4439,-3.4522,-3.4564,-3.4634,-3.4675,-3.4662,-3.4338,-3.4473,-3.4537,-3.431,-3.4142,-3.419,-3.4132,-3.3849,-3.3606,-3.3491,-3.3334,-3.3099,-3.283,-3.2789,-3.2824,-3.2789,-3.2824,-3.2824,-3.2931,-3.3051,-3.3051,-3.3086,-3.3192,-3.2968,-3.2925,-3.2629,-3.2109,-3.1669,-3.1363,-3.1176,-3.1027,-3.062,-3.0213,-3.0246,-3.0409,-2.9994,-2.9994,-2.9994,-2.9994,-2.9994,-2.9994,-2.9994,-2.9994,-2.9994,-2.9942,-2.9774,-2.9774,-2.9606,-2.9343,-2.9132,-2.9036,-2.893,-2.8877,-2.8717,-2.8514,-2.8461,-2.8514,-2.8451,-2.8461,-2.8568,-2.8664,-2.8824,-2.9036,-2.9711,-3.0287,-3.0806,-3.1311,-3.1618,-3.1885,-3.2139,-3.2392,-3.247,-3.2395,-3.2267,-3.2165,-3.2002,-3.1708,-3.1504,-3.1492,-3.1553,-3.1482,-3.1351,-3.1474,-3.1478,-3.1502,-3.1484,-3.1528,-3.1661,-3.1705,-3.1705,-3.1705,-3.1893,-3.2038,-3.2169,-3.2169,-3.23,-3.2475,-3.2649,-3.2853,-3.3129,-3.3416,-3.3628,-3.3628,-3.3768,-3.3781,-3.3781,-3.3894,-3.3937,-3.3937,-3.3894,-3.3937,-3.3979,-3.4008,-3.405,-3.4008,-3.3995,-3.4095,-3.4187,-3.41,-3.3965,-3.4029,-3.401,-3.3813,-3.356,-3.3322,-3.3155,-3.301,-3.2668,-3.2381,-3.2417,-3.2453,-3.2525,-3.2561,-3.2704,-3.2789,-3.281,-3.2881,-3.2931,-3.2966,-3.2813,-3.2493,-3.2117,-3.2024,-3.187,-3.1669,-3.1481,-3.0991,-3.0513,-3.0469,-3.0549,-2.9889,-2.9879,-2.9889,-2.9889,-2.9889,-2.9837,-2.9784,-2.9774,-2.9732,-2.9669,-2.9501,-2.9406,-2.9195,-2.9026,-2.893,-2.8771,-2.8621,-2.8621,-2.8451,-2.8344,-2.8301,-2.8291,-2.8344,-2.8301,-2.8301,-2.8291,-2.8514,-2.8674,-2.8887,-2.93,-2.9921,-3.0474,-3.0754,-3.1023,-3.1322,-3.1578,-3.1739,-3.1807,-3.1834,-3.1828,-3.1793,-3.1548,-3.1453,-3.1496,-3.1622,-3.1642,-3.1413,-3.1542,-3.1586,-3.1592,-3.148,-3.1579,-3.1791,-3.168,-3.1641,-3.1661,-3.1761,-3.1805,-3.1893,-3.1937,-3.2038,-3.2169,-3.23,-3.2431,-3.2636,-3.2785,-3.2871,-3.2914,-3.3056,-3.3154,-3.3185,-3.3258,-3.3258,-3.33,-3.33,-3.3343,-3.3386,-3.3386,-3.3343,-3.327,-3.3313,-3.3428,-3.3537,-3.3664,-3.3729,-3.3868,-3.3806,-3.3727,-3.3498,-3.3214,-3.2986,-3.2812,-3.2447,-3.2102,-3.2109,-3.2152,-3.2181,-3.2228,-3.2408,-3.2453,-3.2431,-3.2489,-3.2561,-3.2561,-3.2525,-3.2437,-3.2134,-3.2277,-3.2401,-3.1962,-3.157,-3.1221,-3.0923,-3.0815,-3.0506,-2.9606,-2.9659,-2.9606,-2.9617,-2.9606,-2.93,-2.9185,-2.9237,-2.9185,-2.9195,-2.9142,-2.8887,-2.8781,-2.8674,-2.8568,-2.8398,-2.8354,-2.8344,-2.8291,-2.8291,-2.8301,-2.8301,-2.8301,-2.8301,-2.8301,-2.8301,-2.8354,-2.8354,-2.8408,-2.8727,-2.9195,-2.9617,-2.9984,-3.0245,-3.0505,-3.0754,-3.1075,-3.1322,-3.1538,-3.1803,-3.1783,-3.1667,-3.1571,-3.1471,-3.1267,-3.1049,-3.1303,-3.1542,-3.1724,-3.1821,-3.1715,-3.1769,-3.1893,-3.1746,-3.1693,-3.1684,-3.1749,-3.1769,-3.1741,-3.1749,-3.1761,-3.1805,-3.195,-3.2125,-3.2332,-3.2388,-3.2431,-3.2419,-3.255,-3.2562,-3.2519,-3.2519,-3.2723,-3.2766,-3.2853,-3.281,-3.281,-3.2736,-3.2692,-3.2562,-3.2692,-3.2884,-3.297,-3.3128,-3.354,-3.3659,-3.3895,-3.3814,-3.3459,-3.3198,-3.2869,-3.2607,-3.2175,-3.1913,-3.186,-3.1817,-3.179,-3.1766,-3.1847,-3.1917,-3.1913,-3.2009,-3.2019,-3.2055,-3.1982,-3.2055,-3.2101,-3.2055,-3.1965,-3.1874,-3.1675,-3.144,-3.1065,-3.0809,-3.0336,-2.9543,-2.93,-2.9142,-2.9142,-2.928,-2.9132,-2.9132,-2.9132,-2.9132,-2.8973,-2.8834,-2.8568,-2.8461,-2.8398,-2.8398,-2.8301,-2.8301,-2.8291,-2.8301,-2.8301,-2.8301,-2.8301,-2.8301,-2.8301,-2.8301,-2.8301,-2.8301,-2.8301,-2.8354,-2.8461,-2.8504,-2.8867,-2.9248,-2.9448,-2.9711,-3.0088,-3.0401,-3.0703,-3.1013,-3.1281,-3.1249,-3.1203,-3.1164,-3.1131,-3.146,-3.1158,-3.1157,-3.1484,-3.1584,-3.1645,-3.1654,-3.1855,-3.2043,-3.1948,-3.1839,-3.1784,-3.1827,-3.1774,-3.1588,-3.1584,-3.1705,-3.1705,-3.1805,-3.1893,-3.2025,-3.1981,-3.1981,-3.1981,-3.2125,-3.2169,-3.2169,-3.2313,-3.2487,-3.24,-3.24,-3.2356,-3.2356,-3.2313,-3.2313,-3.23,-3.2388,-3.255,-3.2593,-3.2667,-3.3116,-3.353,-3.3729,-3.3821,-3.3418,-3.3106,-3.2808,-3.2525,-3.2167,-3.195,-3.1847,-3.1669,-3.142,-3.1416,-3.145,-3.1433,-3.1505,-3.1323,-3.1384,-3.1421,-3.1408,-3.1357,-3.1394,-3.1519,-3.1616,-3.1685,-3.1755,-3.1779,-3.1378,-3.0834,-3.035,-2.9383,-2.894,-2.8727,-2.8727,-2.893,-2.8867,-2.8867,-2.8867,-2.8867,-2.8771,-2.8568,-2.8354,-2.8301,-2.8301,-2.8301,-2.8301,-2.8301,-2.8301,-2.8301,-2.8301,-2.8301,-2.8301,-2.8301,-2.8301,-2.8301,-2.8301,-2.8301,-2.8301,-2.8301,-2.8301,-2.8344,-2.8504,-2.8664,-2.8877,-2.9142,-2.9448,-2.9827,-3.0026,-3.0245,-3.0401,-3.0453,-3.0599,-3.0681,-3.0733,-3.1092,-3.1138,-3.1102,-3.1367,-3.1534,-3.1585,-3.1615,-3.1828,-3.2011,-3.2086,-3.2031,-3.1949,-3.1935,-3.1884,-3.1629,-3.1555,-3.1729,-3.1705,-3.1705,-3.1705,-3.1705,-3.1705,-3.1749,-3.1749,-3.1849,-3.1893,-3.1893,-3.2038,-3.2125,-3.2081,-3.2081,-3.2081,-3.2081,-3.2069,-3.2081,-3.2113,-3.2213,-3.2257,-3.2344,-3.2388,-3.2649,-3.2982,-3.3056,-3.3159,-3.3046,-3.2832,-3.2706,-3.247,-3.225,-3.2076,-3.194,-3.1709,-3.1523,-3.1486,-3.1436,-3.1151,-3.1111,-3.0943,-3.0686,-3.057,-3.057,-3.0621,-3.0608,-3.0671,-3.1084,-3.1576,-3.1616,-3.159,-3.1204,-3.0688,-3.0494,-2.9154,-2.8704,-2.8408,-2.8451,-2.8674,-2.8451,-2.8344,-2.8398,-2.8398,-2.8344,-2.8344,-2.8291,-2.8301,-2.8301,-2.8301,-2.8301,-2.8301,-2.8301,-2.8301,-2.8301,-2.8301,-2.8301,-2.8301,-2.8301,-2.8301,-2.8301,-2.8301,-2.8301,-2.8301,-2.8301,-2.8301,-2.8301,-2.8408,-2.8514,-2.8727,-2.8983,-2.9132,-2.9185,-2.9501,-2.9659,-2.9816,-3.0078,-3.0235,-3.0339,-3.0557,-3.0639,-3.0803,-3.1119,-3.1338,-3.1403,-3.1578,-3.1802,-3.1965,-3.1783,-3.1796,-3.198,-3.2052,-3.1938,-3.1702,-3.1717,-3.1684,-3.1608,-3.1584,-3.1617,-3.1661,-3.1705,-3.1705,-3.1705,-3.1761,-3.1761,-3.1749,-3.1749,-3.1793,-3.1805,-3.1849,-3.1849,-3.1893,-3.1893,-3.1937,-3.1937,-3.1981,-3.2038,-3.2125,-3.2169,-3.23,-3.2444,-3.2444,-3.2475,-3.2581,-3.2605,-3.2555,-3.2473,-3.2284,-3.2197,-3.2043,-3.1811,-3.1618,-3.1584,-3.1396,-3.1079,-3.0825,-3.0671,-3.0378,-2.9945,-2.9919,-3.0072,-2.9907,-2.9742,-3.0165,-3.0595,-3.1147,-3.1162,-3.0824,-3.0614,-3.0485,-2.9276,-2.88,-2.8462,-2.8354,-2.8408,-2.8344,-2.8301,-2.8301,-2.8301,-2.8301,-2.8301,-2.8301,-2.8301,-2.8301,-2.8301,-2.8301,-2.8301,-2.8301,-2.8301,-2.8301,-2.8301,-2.8301,-2.8301,-2.8301,-2.8301,-2.8301,-2.8301,-2.8301,-2.8301,-2.8301,-2.8301,-2.8301,-2.8291,-2.8354,-2.8461,-2.8674,-2.8834,-2.8877,-2.9079,-2.928,-2.928,-2.9448,-2.9554,-2.9606,-2.9869,-3.0088,-3.0256,-3.0651,-3.0909,-3.1075,-3.1306,-3.1598,-3.1839,-3.1661,-3.1946,-3.1987,-3.1934,-3.1995,-3.1759,-3.167,-3.1539,-3.1414,-3.1413,-3.1502,-3.1451,-3.1629,-3.1673,-3.1717,-3.1685,-3.1685,-3.1705,-3.1705,-3.1761,-3.1761,-3.1761,-3.1761,-3.1761,-3.1761,-3.1761,-3.1761,-3.1805,-3.1805,-3.1893,-3.1937,-3.2081,-3.2125,-3.2169,-3.2313,-3.2419,-3.2419,-3.2444,-3.2432,-3.2321,-3.2272,-3.2172,-3.1921,-3.1726,-3.1639,-3.1299,-3.0844,-3.0633,-3.0459,-3.014,-2.981,-2.9659,-2.9509,-2.9383,-2.9312,-2.9246,-2.9574,-3.0101,-3.0596,-3.0488,-3.0505,-3.0658,-2.9316,-2.8887,-2.8467,-2.8301,-2.8301,-2.8301,-2.8301,-2.8301,-2.8301,-2.8301,-2.8301,-2.8301,-2.8301,-2.8301,-2.8301,-2.8301,-2.8301,-2.8301,-2.8301,-2.8301,-2.8301,-2.8301,-2.8301,-2.8301,-2.8301,-2.8301,-2.8301,-2.8301,-2.8301,-2.8301,-2.8301,-2.8301,-2.8301,-2.8301,-2.8354,-2.8514,-2.8568,-2.8611,-2.8771,-2.8814,-2.8824,-2.893,-2.8983,-2.9079,-2.929,-2.9501,-2.9711,-2.9984,-3.0245,-3.0557,-3.092,-3.1219,-3.1424,-3.1677,-3.1871,-3.179,-3.1786,-3.1852,-3.1726,-3.1445,-3.1235,-3.1043,-3.1318,-3.1614,-3.1646,-3.177,-3.1786,-3.1759,-3.166,-3.1665,-3.1697,-3.1697,-3.1661,-3.1661,-3.1717,-3.1717,-3.1705,-3.1705,-3.1705,-3.1705,-3.1705,-3.1705,-3.1705,-3.1705,-3.1805,-3.1893,-3.1937,-3.2081,-3.2169,-3.2169,-3.2169,-3.2157,-3.2157,-3.2127,-3.2098,-3.2099,-3.1884,-3.1706,-3.1308,-3.0851,-3.05,-3.0301,-2.997,-2.9706,-2.9556,-2.9342,-2.9061,-2.8946,-2.8935,-2.8967,-2.9177,-2.9584,-2.9947,-3.0164,-3.0327,-2.9271,-2.8852,-2.8423,-2.8237,-2.8291,-2.8291,-2.8301,-2.8301,-2.8301,-2.8301,-2.8301,-2.8301,-2.8301,-2.8301,-2.8301,-2.8301,-2.8301,-2.8301,-2.8301,-2.8301,-2.8301,-2.8301,-2.8301,-2.8301,-2.8301,-2.8301,-2.8301,-2.8301,-2.8301,-2.8301,-2.8301,-2.8301,-2.8301,-2.8301,-2.8301,-2.8354,-2.8354,-2.8408,-2.8398,-2.8451,-2.8504,-2.8558,-2.8664,-2.8771,-2.892,-2.9026,-2.9248,-2.9406,-2.9669,-2.9984,-3.0245,-3.0505,-3.0765,-3.1023,-3.1322,-3.1498,-3.1623,-3.1578,-3.1494,-3.1183,-3.1147,-3.1128,-3.1645,-3.2122,-3.2148,-3.1936,-3.1933,-3.1857,-3.1782,-3.169,-3.1636,-3.162,-3.1617,-3.1661,-3.1673,-3.1717,-3.1717,-3.1705,-3.1705,-3.1705,-3.1705,-3.1717,-3.1673,-3.1717,-3.1572,-3.1584,-3.1629,-3.1584,-3.1673,-3.1761,-3.1761,-3.1717,-3.1761,-3.1862,-3.1877,-3.1848,-3.1736,-3.1484,-3.1315,-3.0934,-3.0563,-3.0248,-3.0069,-2.983,-2.9499,-2.9226,-2.892,-2.8786,-2.8722,-2.8792,-2.8886,-2.8858,-2.9271,-2.947,-2.9628,-2.8877,-2.8695,-2.7943,-2.7809,-2.8014,-2.8237,-2.8301,-2.8301,-2.8301,-2.8301,-2.8301,-2.8301,-2.8301,-2.8301,-2.8301,-2.8301,-2.8301,-2.8301,-2.8301,-2.8301,-2.8301,-2.8301,-2.8301,-2.8301,-2.8301,-2.8301,-2.8301,-2.8301,-2.8301,-2.8301,-2.8301,-2.8301,-2.8301,-2.8301,-2.8301,-2.8301,-2.8301,-2.8301,-2.8301,-2.8301,-2.8301,-2.8408,-2.8461,-2.8504,-2.8504,-2.8664,-2.8824,-2.8877,-2.9142,-2.9353,-2.9659,-2.9931,-3.0203,-3.0505,-3.0754,-3.0972,-3.1038,-3.1025,-3.1054,-3.1088,-3.1098,-3.1295,-3.1717,-3.1856,-3.1961,-3.1994,-3.2066,-3.2008,-3.1807,-3.1709,-3.1656,-3.1639,-3.161,-3.1571,-3.1579,-3.1584,-3.1584,-3.1629,-3.1629,-3.1717,-3.1717,-3.1617,-3.1617,-3.1484,-3.135,-3.1362,-3.1318,-3.1273,-3.1273,-3.1362,-3.1407,-3.1374,-3.1374,-3.1508,-3.1386,-3.1327,-3.1306,-3.1226,-3.1092,-3.0997,-3.0761,-3.0487,-3.0247,-2.994,-2.9599,-2.9202,-2.8826,-2.8796,-2.8931,-2.8787,-2.8839,-2.8666,-2.8551,-2.8797,-2.8961,-2.8662,-2.8605,-2.7772,-2.7539,-2.7691,-2.7853,-2.8023,-2.813,-2.8237,-2.8301,-2.8301,-2.8301,-2.8301,-2.8301,-2.8301,-2.8301,-2.8301,-2.8301,-2.8301,-2.8301,-2.8301,-2.8301,-2.8301,-2.8301,-2.8301,-2.8301,-2.8301,-2.8301,-2.8301,-2.8301,-2.8301,-2.8301,-2.8301,-2.8301,-2.8301,-2.8301,-2.8301,-2.8301,-2.8301,-2.8301,-2.8301,-2.8301,-2.8301,-2.8301,-2.8301,-2.8408,-2.8514,-2.8514,-2.8664,-2.8877,-2.9195,-2.9353,-2.9669,-2.9921,-3.0183,-3.0401,-3.0495,-3.0567,-3.066,-3.0774,-3.0991,-3.1219,-3.1414,-3.1537,-3.171,-3.1788,-3.2013,-3.2141,-3.1901,-3.1705,-3.1703,-3.1664,-3.1567,-3.1492,-3.144,-3.1431,-3.1463,-3.1496,-3.1584,-3.1673,-3.1617,-3.1528,-3.1439,-3.1261,-3.1139,-3.1139,-3.1005,-3.0814,-3.0916,-3.105,-3.1107,-3.1163,-3.1118,-3.1118,-3.0984,-3.0849,-3.0883,-3.0916,-3.0857,-3.081,-3.0736,-3.0576,-3.0231,-2.9968,-2.9717,-2.9433,-2.9207,-2.919,-2.9216,-2.9097,-2.8866,-2.8582,-2.8375,-2.8293,-2.8383,-2.8493,-2.8427,-2.7663,-2.7323,-2.7377,-2.7431,-2.7593,-2.7853,-2.8077,-2.8247,-2.8301,-2.8301,-2.8301,-2.8301,-2.8301,-2.8301,-2.8301,-2.8301,-2.8301,-2.8291,-2.8301,-2.8301,-2.8301,-2.8301,-2.8301,-2.8301,-2.8301,-2.8301,-2.8301,-2.8301,-2.8301,-2.8301,-2.8301,-2.8301,-2.8301,-2.8301,-2.8301,-2.8301,-2.8301,-2.8301,-2.8301,-2.8301,-2.8301,-2.8301,-2.8301,-2.8301,-2.8301,-2.8354,-2.8408,-2.8568,-2.8737,-2.8824,-2.9142,-2.9396,-2.9711,-2.9827,-2.9889,-2.9984,-3.0141,-3.0245,-3.0401,-3.0609,-3.0776,-3.0989,-3.124,-3.1606,-3.1892,-3.2173,-3.1965,-3.1798,-3.1757,-3.1622,-3.1472,-3.1506,-3.1539,-3.1419,-3.1333,-3.1317,-3.133,-3.1362,-3.1261,-3.1217,-3.1083,-3.0904,-3.0646,-3.0748,-3.0601,-3.0363,-3.0318,-3.0499,-3.0556,-3.0658,-3.0612,-3.0522,-3.0567,-3.0465,-3.051,-3.0544,-3.0487,-3.0397,-3.0227,-3.017,-3.017,-2.9897,-2.9647,-2.9829,-2.9817,-2.9588,-2.9382,-2.9347,-2.9049,-2.8611,-2.8334,-2.8221,-2.8005,-2.7317,-2.7293,-2.6949,-2.6935,-2.7098,-2.7323,-2.7431,-2.7539,-2.7593,-2.7862,-2.8237,-2.8301,-2.8237,-2.8237,-2.8237,-2.8237,-2.8237,-2.8184,-2.8291,-2.8237,-2.8237,-2.8237,-2.8291,-2.8291,-2.8291,-2.8301,-2.8301,-2.8301,-2.8301,-2.8301,-2.8301,-2.8301,-2.8301,-2.8301,-2.8301,-2.8301,-2.8301,-2.8301,-2.8301,-2.8301,-2.8301,-2.8301,-2.8301,-2.8301,-2.8301,-2.8301,-2.8301,-2.8301,-2.8344,-2.8398,-2.8408,-2.8568,-2.8781,-2.9079,-2.9237,-2.929,-2.929,-2.9406,-2.9511,-2.9659,-2.9827,-3.0026,-3.0183,-3.0443,-3.0794,-3.1334,-3.1693,-3.1973,-3.2065,-3.1878,-3.1728,-3.1558,-3.1405,-3.149,-3.1575,-3.1379,-3.1193,-3.12,-3.1123,-3.1088,-3.0986,-3.0851,-3.0784,-3.05,-3.025,-3.0068,-2.9863,-2.968,-2.9577,-2.9634,-2.9577,-2.968,-2.9817,-2.9817,-2.9909,-2.9954,-2.9943,-2.9897,-2.9795,-2.9703,-2.9669,-2.976,-2.9806,-2.9715,-2.9624,-2.9669,-2.9715,-2.9601,-2.9443,-2.9376,-2.9296,-2.8875,-2.8724,-2.8543,-2.811,-2.6553,-2.6637,-2.634,-2.6336,-2.6618,-2.6781,-2.6935,-2.7215,-2.7206,-2.7476,-2.7862,-2.7916,-2.7916,-2.7916,-2.7906,-2.7916,-2.7916,-2.7862,-2.7862,-2.7916,-2.8067,-2.8121,-2.8121,-2.8184,-2.8291,-2.8301,-2.8301,-2.8301,-2.8301,-2.8301,-2.8301,-2.8301,-2.8301,-2.8301,-2.8301,-2.8301,-2.8301,-2.8301,-2.8301,-2.8301,-2.8301,-2.8301,-2.8301,-2.8301,-2.8301,-2.8301,-2.8301,-2.8301,-2.8291,-2.8291,-2.8291,-2.8354,-2.8514,-2.8654,-2.8717,-2.8771,-2.8771,-2.8824,-2.893,-2.9089,-2.9248,-2.9448,-2.9554,-2.9816,-3.0078,-3.0514,-3.0886,-3.1138,-3.1534,-3.1438,-3.1406,-3.1257,-3.1172,-3.1147,-3.112,-3.0995,-3.1082,-3.1261,-3.1333,-3.1414,-3.1217,-3.089,-3.0681,-3.0118,-2.9851,-2.9624,-2.9382,-2.9101,-2.894,-2.8822,-2.8743,-2.8689,-2.8839,-2.9059,-2.9244,-2.9244,-2.9244,-2.9152,-2.9106,-2.9198,-2.9255,-2.9439,-2.9485,-2.9301,-2.9209,-2.9255,-2.9255,-2.9163,-2.9301,-2.9271,-2.9251,-2.9162,-2.9015,-2.8778,-2.8343,-2.584,-2.6087,-2.5684,-2.5688,-2.5953,-2.6008,-2.6291,-2.6772,-2.6826,-2.6935,-2.7098,-2.7152,-2.7215,-2.7377,-2.7431,-2.7431,-2.7431,-2.7539,-2.7485,-2.7539,-2.7745,-2.7799,-2.7906,-2.8023,-2.8077,-2.8184,-2.8184,-2.8237,-2.8301,-2.8301,-2.8301,-2.8301,-2.8301,-2.8301,-2.8301,-2.8301,-2.8301,-2.8301,-2.8301,-2.8301,-2.8301,-2.8301,-2.8301,-2.8301,-2.8301,-2.8301,-2.8301,-2.8301,-2.8301,-2.8301,-2.8301,-2.8301,-2.8354,-2.8398,-2.8398,-2.8398,-2.8398,-2.8514,-2.8621,-2.8674,-2.8824,-2.893,-2.8983,-2.9132,-2.9396,-2.9659,-3.0036,-3.0287,-3.0681,-3.0938,-3.0912,-3.0906,-3.0792,-3.0758,-3.0669,-3.0688,-3.0957,-3.1131,-3.123,-3.141,-3.1123,-3.0737,-3.033,-2.9777,-2.9443,-2.9217,-2.896,-2.8628,-2.8346,-2.8153,-2.8031,-2.7905,-2.794,-2.8175,-2.8398,-2.8491,-2.8398,-2.8351,-2.8305,-2.8595,-2.8792,-2.8839,-2.8839,-2.8792,-2.8746,-2.8653,-2.8606,-2.856,-2.8699,-2.8839,-2.8936,-2.8908,-2.8854,-2.861,-2.8444,-2.4754,-2.4802,-2.4697,-2.4915,-2.534,-2.534,-2.5615,-2.5898,-2.5953,-2.6008,-2.6054,-2.6118,-2.6445,-2.7377,-2.7431,-2.7323,-2.7161,-2.7215,-2.7377,-2.7431,-2.7422,-2.7431,-2.7539,-2.7701,-2.7755,-2.7853,-2.8014,-2.8077,-2.813,-2.8184,-2.8291,-2.8291,-2.8291,-2.8301,-2.8301,-2.8301,-2.8301,-2.8301,-2.8301,-2.8301,-2.8291,-2.8291,-2.8291,-2.8301,-2.8301,-2.8301,-2.8301,-2.8301,-2.8301,-2.8301,-2.8301,-2.8301,-2.8301,-2.8301,-2.8301,-2.8237,-2.8291,-2.8291,-2.8354,-2.8291,-2.8398,-2.8398,-2.8504,-2.8558,-2.8761,-2.8761,-2.8973,-2.8983,-2.9438,-2.9963,-3.0099,-3.0151,-3.0108,-3.0209,-3.0181,-3.0453,-3.0756,-3.0576,-3.0488,-3.0488,-3.0291,-2.9996,-2.9766,-2.931,-2.901,-2.8796,-2.8673,-2.8345,-2.8063,-2.7748,-2.7396,-2.7259,-2.7191,-2.7183,-2.7363,-2.7563,-2.7563,-2.7515,-2.7563,-2.7846,-2.8045,-2.8139,-2.8139,-2.8092,-2.7961,-2.782,-2.782,-2.7857,-2.7904,-2.8045,-2.8384,-2.8505,-2.8465,-2.8403,-2.8152]},{"header":{"parameterUnit":"m.s-1","parameterCategory":1,"la1":31.0,"la2":29.5877,"lo1":-88.7671,"lo2":-86.6584,"dy":0.0162,"dx":0.0185,"nx":115,"ny":88,"refTime":"2023-05-09T06:00:00:Z","depth":0,"parameterNumber":3,"parameterNumberName":"V-component_of_WINDS"},"data":[0.0,0.0,0.0,0.0,0.0,0.0,0.0,0.0,0.0,0.0,0.0,0.0,0.0,0.0,0.0,0.0,0.0,0.0,0.0,0.0,0.0,0.0,0.0,0.0,0.0,0.0,0.0,0.0,0.0,0.0,0.0,0.0,0.0,0.0,0.0,0.0,0.0,0.0,0.0,0.0,0.0,0.0,0.0,0.0,0.0,0.0,0.0,0.0,0.0,0.0,0.0,0.0,0.0,0.0,0.0,0.0,0.0,0.0,0.0,0.0,0.0,0.0,0.0,0.0,0.0,0.0,0.0,0.0,0.0,0.0,0.0,0.0,0.0,0.0,0.0,0.0,0.0,0.0,0.0,0.0,0.0,0.0,0.0,0.0,0.0,0.0,0.0,0.0,0.0,0.0,0.0,0.0,0.0,0.0,0.0,0.0,0.0,0.0,0.0,0.0,0.0,0.0,0.0,0.0,0.0,0.0,0.0,0.0,0.0,0.0,0.0,0.0,0.0,0.0,0.0,0.0,0.0,0.0,0.0,0.0,0.0,0.0,0.0,0.0,0.0,0.0,0.0,0.0,0.0,0.0,0.0,0.0,0.0,0.0,0.0,0.0,0.0,0.0,0.0,0.0,0.0,0.0,0.0,0.0,0.0,0.0,0.0,0.0,0.0,0.0,0.0,0.0,0.0,0.0,0.0,0.0,0.0,0.0,0.0,0.0,0.0,0.0,0.0,0.0,0.0,0.0,0.0,0.0,0.0,0.0,0.0,0.0,0.0,0.0,0.0,0.0,0.0,0.0,0.0,0.0,0.0,0.0,0.0,0.0,0.0,0.0,0.0,0.0,0.0,0.0,0.0,0.0,0.0,0.0,0.0,0.0,0.0,0.0,0.0,0.0,0.0,0.0,0.0,0.0,0.0,0.0,0.0,0.0,0.0,0.0,0.0,0.0,0.0,0.0,0.0,0.0,0.0,0.0,0.0,0.0,0.0,0.0,0.0,0.0,0.0,0.0,0.0,0.0,0.0,0.0,0.0,0.0,0.0,0.0,0.0,0.0,0.0,0.0,0.0,0.0,0.0,0.0,0.0,0.0,0.0,0.0,0.0,0.0,0.0,0.0,0.0,0.0,0.0,0.0,0.0,0.0,0.0,0.0,0.0,0.0,0.0,0.0,0.0,0.0,0.0,0.0,0.0,0.0,0.0,0.0,0.0,0.0,0.0,0.0,0.0,0.0,0.0,0.0,0.0,0.0,0.0,0.0,0.0,0.0,0.0,0.0,0.0,0.0,0.0,0.0,0.0,0.0,0.0,0.0,0.0,0.0,0.0,0.0,0.0,0.0,0.0,0.0,0.0,0.0,0.0,0.0,0.0,0.0,0.0,0.0,0.0,0.0,0.0,0.0,0.0,0.0,0.0,0.0,0.0,0.0,0.0,0.0,0.0,0.0,0.0,0.0,0.0,0.0,0.0,0.0,0.0,0.0,0.0,0.0,0.0,0.0,0.0,0.0,0.0,0.0,0.0,0.0,0.0,0.0,0.0,0.0,0.0,0.0,0.0,0.0,0.0,0.0,0.0,0.0,0.0,0.0,0.0,0.0,0.0,0.0,0.0,0.0,0.0,0.0,0.0,0.0,0.0,0.0,0.0,0.0,0.0,0.0,0.0,0.0,0.0,0.0,0.0,0.0,0.0,0.0,0.0,0.0,0.0,0.0,0.0,0.0,0.0,0.0,0.0,0.0,0.0,0.0,0.0,0.0,0.0,0.0,0.0,0.0,0.0,0.0,0.0,0.0,0.0,0.0,0.0,0.0,0.0,0.0,0.0,0.0,0.0,0.0,0.0,0.0,0.0,0.0,0.0,0.0,0.0,0.0,0.0,0.0,0.0,0.0,0.0,0.0,0.0,0.0,0.0,0.0,0.0,0.0,0.0,0.0,0.0,0.0,0.0,0.0,0.0,0.0,0.0,0.0,0.0,0.0,0.0,0.0,0.0,0.0,0.0,0.0,0.0,0.0,0.0,0.0,0.0,0.0,0.0,0.0,0.0,0.0,0.0,0.0,0.0,0.0,0.0,0.0,0.0,0.0,0.0,0.0,0.0,0.0,0.0,0.0,0.0,0.0,0.0,0.0,0.0,0.0,0.0,0.0,0.0,0.0,0.0,0.0,0.0,0.0,0.0,0.0,0.0,0.0,0.0,0.0,0.0,0.0,0.0,0.0,0.0,0.0,0.0,0.0,0.0,0.0,0.0,0.0,0.0,0.0,0.0,0.0,0.0,0.0,0.0,0.0,0.0,0.0,0.0,0.0,0.0,0.0,0.0,0.0,0.0,0.0,0.0,0.0,0.0,0.0,0.0,0.0,0.0,0.0,0.0,0.0,0.0,0.0,0.0,0.0,0.0,0.0,0.0,0.0,0.0,0.0,0.0,0.0,0.0,0.0,0.0,0.0,0.0,0.0,0.0,0.0,0.0,0.0,0.0,0.0,0.0,0.0,0.0,0.0,0.0,0.0,0.0,0.0,0.0,0.0,0.0,0.0,0.0,0.0,0.0,0.0,0.0,0.0,0.0,0.0,0.0,0.0,0.0,0.0,0.0,0.0,0.0,0.0,0.0,0.0,0.0,0.0,0.0,0.0,0.0,0.0,0.0,0.0,0.0,0.0,0.0,0.0,0.0,0.0,0.0,0.0,0.0,0.0,0.0,0.0,0.0,0.0,0.0,0.0,0.0,0.0,0.0,0.0,0.0,0.0,0.0,0.0,0.0,0.0,0.0,0.0,0.0,0.0,0.0,0.0,0.0,0.0,0.0,0.0,0.0,0.0,0.0,0.0,0.0,0.0,0.0,0.0,0.0,0.0,0.0,0.0,0.0,0.0,0.0,0.0,0.0,0.0,0.0,0.0,0.0,0.0,0.0,0.0,0.0,0.0,0.0,0.0,0.0,0.0,0.0,0.0,0.0,0.0,0.0,0.0,0.0,0.0,0.0,0.0,0.0,0.0,0.0,0.0,0.0,0.0,0.0,0.0,0.0,0.0,0.0,0.0,0.0,0.0,0.0,0.0,0.0,0.0,0.0,0.0,0.0,0.0,0.0,0.0,0.0,0.0,0.0,0.0,0.0,0.0,0.0,0.0,0.0,0.0,0.0,0.0,0.0,0.0,0.0,0.0,0.0,0.0,0.0,0.0,0.0,0.0,0.0,0.0,0.0,0.0,0.0,0.0,0.0,0.0,0.0,0.0,0.0,0.0,0.0,0.0,0.0,0.0,0.0,0.0,0.0,0.0,0.0,0.0,0.0,0.0,0.0,0.0,0.0,0.0,0.0,0.0,0.0,0.0,0.0,0.0,0.0,0.0,0.0,0.0,0.0,0.0,0.0,0.0,0.0,0.0,0.0,0.0,0.0,0.0,0.0,0.0,0.0,0.0,0.0,0.0,0.0,0.0,0.0,0.0,0.0,0.0,0.0,0.0,0.0,0.0,0.0,0.0,0.0,0.0,0.0,0.0,0.0,0.0,0.0,0.0,0.0,0.0,0.0,0.0,0.0,0.0,0.0,0.0,0.0,0.0,0.0,0.0,0.0,0.0,0.0,0.0,0.0,0.0,0.0,0.0,0.0,0.0,0.0,0.0,0.0,0.0,0.0,0.0,0.0,0.0,0.0,0.0,0.0,0.0,0.0,0.0,0.0,0.0,0.0,0.0,0.0,0.0,0.0,0.0,0.0,0.0,0.0,0.0,0.0,0.0,0.0,0.0,0.0,0.0,0.0,0.0,0.0,0.0,0.0,0.0,0.0,0.0,0.0,0.0,0.0,0.0,0.0,0.0,0.0,0.0,0.0,0.0,0.0,0.0,0.0,0.0,0.0,0.0,0.0,0.0,0.0,0.0,0.0,0.0,0.0,0.0,0.0,0.0,0.0,0.0,0.0,0.0,0.0,0.0,0.0,0.0,0.0,0.0,0.0,0.0,0.0,0.0,0.0,0.0,0.0,0.0,0.0,0.0,0.0,0.0,0.0,0.0,0.0,0.0,0.0,0.0,0.0,0.0,0.0,0.0,0.0,0.0,0.0,0.0,0.0,0.0,0.0,0.0,0.0,0.0,0.0,0.0,0.0,0.0,0.0,0.0,0.0,0.0,0.0,0.0,0.0,0.0,0.0,0.0,0.0,0.0,0.0,0.0,0.0,0.0,0.0,0.0,0.0,0.0,0.0,0.0,0.0,0.0,0.0,0.0,0.0,0.0,0.0,0.0,0.0,0.0,0.0,0.0,0.0,0.0,0.0,0.0,0.0,0.0,0.1109,0.0,0.0,0.0,0.0,0.0,0.0,0.0,0.0,0.0,0.0,0.0,0.0,0.0,0.0,0.0,0.0,0.0,0.0,0.0,0.0,0.0,0.0,0.0,0.0,0.0,0.0,0.0,0.0,0.0,0.0,0.0,0.0,0.0,0.0,0.0,0.0,0.0,0.0,0.0,0.0,0.0,0.0,0.0,0.0,0.0,0.0,0.0,0.0,0.0,0.0,0.0,0.0,0.0,0.0,0.0,0.0,0.0,0.0,0.0,0.0,0.0,0.0,0.0,0.0,0.0,0.0,0.0,0.0,0.0,0.0,0.0,0.0,0.0,0.0,0.0,0.0,0.0,0.0,0.0,0.0,0.0,0.0,0.0,0.0,0.0,0.0,0.0,0.0,0.0,0.0,0.0,0.0,0.0,0.0,0.0,0.0,0.0,0.0,0.0,0.0,0.0,0.0,0.0,0.0,0.0,0.0,0.0,0.0,0.0,0.0,0.1109,0.1109,0.1109,0.1109,0.1109,0.0,0.0,0.0,0.0,0.0,0.0,0.0,0.0,0.0,0.0,0.0,0.0,0.0,0.0,0.0,0.0,0.0,0.0,0.0,0.0,0.0,0.0,0.0,0.0,0.0,0.0,0.0,0.0,0.0,0.0,0.0,0.0,0.0,0.0,0.0,0.0,0.0,0.0,0.0,0.0,0.0,0.0,0.0,0.0,0.0,0.0,0.0,0.0,0.0,0.0,0.0,0.0,0.0,0.0,0.0,0.0,0.0,0.0,0.0,0.0,0.0,0.0,0.0,0.0,0.0,0.0,0.0,0.0,0.0,0.0,0.0,0.0,0.0,0.0,0.0,0.0,0.0,0.0,0.0,0.0,0.0,0.0,0.0,0.0,0.0,0.0,0.0,0.0,0.0,0.0,0.0,0.0,0.0,0.0,0.0,0.0,0.0,0.0,0.0,0.0,0.0,0.0,0.0,0.0,0.0,0.0,0.0,0.0,0.0,0.0,0.0,0.0,0.1109,0.1109,0.1109,0.0,0.0,0.0,0.0,0.0,0.0,0.0,0.0,0.0,0.0,0.0,0.0,0.0,0.0,0.0,0.0,0.0,0.0,0.0,0.0,0.0,0.0,0.0,0.0,0.0,0.0,0.0,0.0,0.0,0.0,0.0,0.0,0.0,0.0,0.0,0.0,0.0,0.0,0.0,0.0,0.0,0.0,0.0,0.0,0.0,0.0,0.0,0.0,0.0,0.0,0.0,0.0,0.0,0.0,0.0,0.0,0.0,0.0,0.0,0.0,0.0,0.0,0.0,0.0,0.0,0.0,0.0,0.0,0.0,0.0,0.0,0.0,0.0,0.0,0.0,0.0,0.0,0.0,0.0,0.0,0.0,0.0,0.0,0.0,0.0,0.0,0.0,0.0,0.0,0.0,0.0,0.0,0.0,0.0,0.0,0.0,0.0,0.0,0.0,0.0,0.0,0.0,0.0,0.0,0.0,0.0,0.0,0.0,0.0,0.0,0.1109,0.1109,0.1109,0.0,0.1109,0.0,0.0,0.0,0.0,0.0,0.0,0.0,0.0,0.0,0.0,0.0,0.0,0.0,0.0,0.0,0.0,0.0,0.0,0.0,0.0,0.0,0.0,0.0,0.0,0.0,0.0,0.0,0.0,0.0,0.0,0.0,0.0,0.0,0.0,0.0,0.0,0.0,0.0,0.0,0.0,0.0,0.0,0.0,0.0,0.0,0.0,0.0,0.0,0.0,0.0,0.0,0.0,0.0,0.0,0.0,0.0,0.0,0.0,0.0,0.0,0.0,0.0,0.0,0.0,0.0,0.0,0.0,0.0,0.0,0.0,0.0,0.0,0.0,0.0,0.0,0.0,0.0,0.0,0.0,0.0,0.0,0.0,0.0,0.0,0.0,0.0,0.0,0.0,0.0,0.0,0.0,0.0,0.0,0.0,0.0,0.0,0.0,0.0,0.0,0.0,0.0,0.0,0.0,0.0,0.0,0.0,0.0,0.0,0.0,0.0,0.1051,0.1051,0.1033,0.1033,0.0,0.0,0.0,0.0,0.0,0.0,0.0,0.0,0.0,0.0,0.0,0.0,0.0,0.0,0.0,0.0,0.0,0.0,0.0,0.0,0.0,0.0,0.0,0.0,0.0,0.0,0.0,0.0,0.0,0.0,0.0,0.0,0.0,0.0,0.0,0.0,0.0,0.0,0.0,0.0,0.0,0.0,0.0,0.0,0.0,0.0,0.0,0.0,0.0,0.0,0.0,0.0,0.0,0.0,0.0,0.0,0.0,0.0,0.0,0.0,0.0,0.0,0.0,0.0,0.0,0.0,0.0,0.0,0.0,0.0,0.0,0.0,0.0,0.0,0.0,0.0,0.0,0.0,0.0,0.0,0.0,0.0,0.0,0.0,0.0,0.0,0.0,0.0,0.0,0.0,0.0,0.0,0.0,0.0,0.0,0.0,0.0,0.0,0.0,0.0,0.0,0.0,0.0,0.0,0.0,0.0,0.0,0.0,0.0,0.0,0.1207,0.1126,0.1085,0.1125,0.1128,0.1129,0.0,0.0,0.0,0.0,0.0,0.0,0.0,0.0,0.0,0.0,0.0,0.0,0.0,0.0,0.0,0.0,0.0,0.0,0.0,0.0,0.0,0.0,0.0,0.0,0.0,0.0,0.0,0.0,0.0,0.0,0.0,0.0,0.0,0.0,0.0,0.0,0.0,0.0,0.0,0.0,0.0,0.0,0.0,0.0,0.0,0.0,0.0,0.0,0.0,0.0,0.0,0.0,0.0,0.0,0.0,0.0,0.0,0.0,0.0,0.0,0.0,0.0,0.0,0.0,0.0,0.0,0.0,0.0,0.0,0.0,0.0,0.0,0.0,0.0,0.0,0.0,0.0,0.0,0.0,0.0,0.0,0.0,0.0,0.0,0.0,0.0,0.0,0.0,0.0,0.0,0.0,0.0,0.0,0.0,0.0,0.0,0.0,0.0,0.0,0.0,0.0,0.0,0.0,0.0,0.0,0.0,0.0,0.0,0.1519,0.1481,0.1431,0.1393,0.1391,0.1409,0.0,0.0,0.0,0.0,0.0,0.0,0.0,0.0,0.0,0.0,0.0,0.0,0.0,0.0,0.0,0.0,0.0,0.0,0.0,0.0,0.0,0.0,0.0,0.0,0.0,0.0,0.0,0.0,0.0,0.0,0.0,0.0,0.0,0.0,0.0,0.0,0.0,0.0,0.0,0.0,0.0,0.0,0.0,0.0,0.0,0.0,0.0,0.0,0.0,0.0,0.0,0.0,0.0,0.0,0.0,0.0,0.0,0.0,0.0,0.0,0.0,0.0,0.0,0.0,0.0,0.0,0.0,0.0,0.0,0.0,0.0,0.0,0.0,0.0,0.0,0.0,0.0,0.0,0.0,0.0,0.0,0.0,0.0,0.0,0.0,0.0,0.0,0.0,0.0,0.0,0.0,0.0,0.0,0.0,0.0,0.0,0.0,0.0,0.0,0.0,0.0,0.0,0.0,0.0,0.0,0.0,0.0,0.0,0.0,0.1902,0.1586,0.1411,0.1339,0.1337,0.14,0.0,0.0,0.0,0.0,0.0,0.0,0.0,0.0,0.0,0.0,0.0,0.0,0.0,0.0,0.0,0.0,0.0,0.0,0.0,0.0,0.0,0.0,0.0,0.0,0.0,0.0,0.0,0.0,0.0,0.0,0.0,0.0,0.0,0.0,0.0,0.0,0.0,0.0,0.0,0.0,0.0,0.0,0.0,0.0,0.0,0.0,0.0,0.0,0.0,0.0,0.0,0.0,0.0,0.0,0.0,0.0,0.0,0.0,0.0,0.0,0.0,0.0,0.0,0.0,0.0,0.0,0.0,0.0,0.0,0.0,0.0,0.0,0.0,0.0,0.0,0.0,0.0,0.0,0.0,0.0,0.0,0.0,0.0,0.0,0.0,0.0,0.0,0.0,0.0,0.0,0.0,0.0,0.0,0.0,0.0,0.0,0.0,0.0,0.0,0.0,0.0,0.0,0.0,0.0,0.0,0.0,0.0,0.0,0.0,0.2161,0.0,0.1628,0.1536,0.1506,0.1574,0.0,0.0,0.0,0.0,0.0,0.0,0.0,0.0,0.0,0.0,0.0,0.0,0.0,0.0,0.0,0.0,0.0,0.0,0.0,0.0,0.0,0.0,0.0,0.0,0.0,0.0,0.0,0.0,0.0,0.0,0.0,0.0,0.0,0.0,0.0,0.0,0.0,0.0,0.0,0.0,0.0,0.0,0.0,0.0,0.0,0.0,0.0,0.0,0.0,0.0,0.0,0.0,0.0,0.0,0.0,0.0,0.0,0.0,0.0,0.0,0.0,0.0,0.0,0.0,0.0,0.0,0.0,0.0,0.0,0.0,0.0,0.0,0.0,0.0,0.0,0.0,0.0,0.0,0.0,0.0,0.0,0.0,0.0,0.0,0.0,0.0,0.0,0.0,0.0,0.0,0.0,0.0,0.0,0.0,0.0,0.0,0.0,0.0,0.0,0.0,0.0,0.0,0.0,0.0,0.0,0.0,0.0,0.0,0.2918,0.2355,0.2223,0.2122,0.2001,0.1997,0.1999,0.0,0.0,0.0,0.0,0.0,0.0,0.0,0.0,0.0,0.0,0.0,0.0,0.0,0.0,0.0,0.0,0.0,0.0,0.0,0.0,0.0,0.0,0.0,0.0,0.0,0.0,0.0,0.0,0.0,0.0,0.0,0.0,0.0,0.0,0.0,0.0,0.0,0.0,0.0,0.0,0.0,0.0,0.0,0.0,0.0,0.0,0.0,0.0,0.0,0.0,0.0,0.0,0.0,0.0,0.0,0.0,0.0,0.0,0.0,0.0,0.0,0.0,0.0,0.0,0.0,0.0,0.0,0.0,0.0,0.0,0.0,0.0,0.0,0.0,0.0,0.0,0.0,0.0,0.0,0.0,0.0,0.0,0.0,0.0,0.0,0.0,0.0,0.0,0.0,0.0,0.0,0.0,0.0,0.0,0.0,0.0,0.0,0.0,0.0,0.0,0.0,0.0,0.0,0.0,0.0,0.0,0.0,0.0,0.0,0.2868,0.2442,0.2188,0.2127,0.2065,0.2031,0.0,0.0,0.0,0.0,0.0,0.0,0.0,0.0,0.0,0.0,0.0,0.0,0.0,0.0,0.0,0.0,0.0,0.0,0.0,0.0,0.0,0.0,0.0,0.0,0.0,0.0,0.0,0.0,0.0,0.0,0.0,0.0,0.0,0.0,0.0,0.0,0.0,0.0,0.0,0.0,0.0,0.0,0.0,0.0,0.0,0.0,0.0,0.0,0.0,0.0,0.0,0.0,0.0,0.0,0.0,0.0,0.0,0.0,0.0,0.0,0.0,0.0,0.0,0.0,0.0,0.0,0.0,0.0,0.0,0.0,0.0,0.0,0.0,0.0,0.0,0.0,0.0,0.0,0.0,0.0,0.0,0.0,0.0,0.0,0.0,0.0,0.0,0.0,0.0,0.0,0.0,0.0,0.0,0.0,0.0,0.0,0.0,0.0,0.0,0.0,0.0,0.0,0.0,0.0,0.0,0.0,0.0,0.0,0.0,0.3718,0.2974,0.2517,0.2389,0.2292,0.2248,0.2226,0.0,0.0,0.0,0.0,0.0,0.0,0.0,0.0,0.0,0.0,0.0,0.0,0.0,0.0,0.0,0.0,0.0,0.0,0.0,0.0,0.0,0.0,0.0,0.0,0.0,0.0,0.0,0.0,0.0,0.0,0.0,0.0,0.0,0.0,0.0,0.0,0.0,0.0,0.0,0.0,0.0,0.0,0.0,0.0,0.0,0.0,0.0,0.0,0.0,0.0,0.0,0.0,0.0,0.0,0.0,0.0,0.0,0.0,0.0,0.0,0.0,0.0,0.0,0.0,0.0,0.0,0.0,0.0,0.0,0.0,0.0,0.0,0.0,0.0,0.0,0.0,0.0,0.0,0.0,0.0,0.0,0.0,0.0,0.0,0.0,0.0,0.0,0.0,0.0,0.0,0.0,0.0,0.0,0.0,0.0,0.0,0.0,0.0,0.0,0.0,0.0,0.0,0.0,0.0,0.0,0.0,0.0,0.0,0.4868,0.3861,0.3137,0.2792,0.2758,0.2659,0.0,0.0,0.0,0.0,0.0,0.0,0.0,0.0,0.0,0.0,0.0,0.0,0.0,0.0,0.0,0.0,0.0,0.0,0.0,0.0,0.0,0.0,0.0,0.0,0.0,0.0,0.0,0.0,0.0,0.0,0.0,0.0,0.0,0.0,0.0,0.0,0.0,0.0,0.0,0.0,0.0,0.0,0.0,0.0,0.0,0.0,0.0,0.0,0.0,0.0,0.0,0.0,0.0,0.0,0.0,0.0,0.0,0.0,0.0,0.0,0.0,0.0,0.0,0.0,0.0,0.0,0.0,0.0,0.0,0.0,0.0,0.0,0.0,0.0,0.0,0.0,0.0,0.0,0.0,0.0,0.0,0.0,0.0,0.0,0.0,0.0,0.0,0.0,0.0,0.0,0.0,0.0,0.0,0.0,0.0,0.0,0.0,0.0,0.0,0.0,0.0,0.0,0.0,0.0,0.0,0.0,0.0,0.0,0.0,0.5777,0.5107,0.4375,0.3673,0.3395,0.3126,0.0,0.0,0.0,0.0,0.0,0.0,0.0,0.0,0.0,0.0,0.0,0.0,0.0,0.0,0.0,0.0,0.0,0.0,0.0,0.0,0.0,0.0,0.0,0.0,0.0,0.0,0.0,0.0,0.0,0.0,0.0,0.0,0.0,0.0,0.0,0.0,0.0,0.0,0.0,0.0,0.0,0.0,0.0,0.0,0.0,0.0,0.0,0.0,0.0,0.0,0.0,0.0,0.0,0.0,0.0,0.0,0.0,0.0,0.0,0.0,0.0,0.0,0.0,0.0,0.0,0.0,0.0,0.0,0.0,0.0,0.0,0.0,0.0,0.0,0.0,0.0,0.0,0.0,0.0,0.0,0.0,0.0,0.0,0.0,0.0,0.0,0.0,0.0,0.0,0.0,0.0,0.0,0.0,0.0,0.0,0.0,0.0,0.0,0.0,0.0,0.0,0.0,0.0,0.0,0.0,0.0,0.0,0.0,0.6351,0.6517,0.6084,0.5603,0.5015,0.4326,0.383,0.0,0.0,0.0,0.0,0.0,0.0,0.0,0.0,0.0,0.0,0.0,0.0,0.0,0.0,0.0,0.0,0.0,0.0,0.0,0.0,0.0,0.0,0.0,0.0,0.0,0.0,0.0,0.0,0.0,0.0,0.0,0.0,0.0,0.0,0.0,0.0,0.0,0.0,0.0,0.0,0.0,0.0,0.0,0.0,0.0,0.0,0.0,0.0,0.0,0.0,0.0,0.0,0.0,0.0,0.0,0.0,0.0,0.0,0.0,0.0,0.0,0.0,0.0,0.0,0.0,0.0,0.0,0.0,0.0,0.0,0.0,0.0,0.0,0.0,0.0,0.0,0.0,0.0,0.0,0.0,0.0,0.0,0.0,0.0,0.0,0.0,0.0,0.0,0.0,0.0,0.0,0.0,0.0,0.0,0.0,0.0,0.0,0.0,0.0,0.0,0.0,0.0,0.0,0.0,0.0,0.0,0.0,0.0,0.6918,0.7125,0.6839,0.6686,0.6529,0.5426,0.4679,0.0,0.0,0.0,0.0,0.0,0.0,0.0,0.0,0.0,0.0,0.0,0.0,0.0,0.0,0.0,0.0,0.0,0.0,0.0,0.0,0.0,0.0,0.0,0.0,0.0,0.0,0.0,0.0,0.0,0.0,0.0,0.0,0.0,0.0,0.0,0.0,0.0,0.0,0.0,0.0,0.0,0.0,0.0,0.0,0.0,0.0,0.0,0.0,0.0,0.0,0.0,0.0,0.0,0.0,0.0,0.0,0.0,0.0,0.0,0.0,0.0,0.0,0.0,0.0,0.0,0.0,0.0,0.0,0.0,0.0,0.0,0.0,0.0,0.0,0.0,0.0,0.0,0.0,0.0,0.0,0.0,0.0,0.0,0.0,0.0,0.0,0.0,0.0,0.0,0.0,0.0,0.0,0.0,0.0,0.0,0.0,0.0,0.0,0.0,0.0,0.0,0.0,0.0,0.0,0.0,0.0,0.0,0.0,0.7681,0.7875,0.7651,0.7533,0.7495,0.6238,0.5485,0.0,0.0,0.0,0.0,0.0,0.0,0.0,0.0,0.0,0.0,0.0,0.0,0.0,0.0,0.0,0.0,0.0,0.0,0.0,0.0,0.0,0.0,0.0,0.0,0.0,0.0,0.0,0.0,0.0,0.0,0.0,0.0,0.0,0.0,0.0,0.0,0.0,0.0,0.0,0.0,0.0,0.0,0.0,0.0,0.0,0.0,0.0,0.0,0.5259,0.0,0.0,0.0,0.0,0.0,0.0,0.0,0.0,0.0,0.0,0.0,0.0,0.0,0.0,0.0,0.0,0.0,0.0,0.0,0.0,0.0,0.0,0.0,0.0,0.0,0.0,0.0,0.0,0.0,0.0,0.0,0.0,0.0,0.0,0.0,0.0,0.0,0.0,0.0,0.0,0.0,0.0,0.0,0.0,0.0,0.0,0.0,0.0,0.0,0.0,0.0,0.0,0.0,0.0,0.0,0.0,0.0,0.0,0.0,0.8419,0.8542,0.8318,0.8165,0.805,0.7231,0.6578,0.0,0.0,0.0,0.0,0.0,0.0,0.0,0.0,0.0,0.0,0.0,0.0,0.0,0.0,0.0,0.0,0.0,0.0,0.0,0.0,0.0,0.0,0.0,0.0,0.0,0.0,0.0,0.0,0.0,0.0,0.0,0.0,0.0,0.0,0.0,0.0,0.0,0.0,0.0,0.0,0.0,0.0,0.0,0.0,0.0,0.0,0.0,0.0,0.0,0.0,0.0,0.0,0.0,0.0,0.0,0.0,0.0,0.0,0.0,0.0,0.0,0.0,0.0,0.0,0.0,0.0,0.0,0.0,0.0,0.0,0.0,0.0,0.0,0.0,0.0,0.0,0.0,0.0,0.0,0.0,0.0,0.0,0.0,0.0,0.0,0.0,0.0,0.0,0.0,0.0,0.0,0.0,0.0,0.0,0.0,0.0,0.0,0.0,0.0,0.0,0.0,0.0,0.0,0.0,0.0,0.0,0.0,0.9119,0.9121,0.9102,0.8927,0.8742,0.8556,0.8169,0.7721,0.7214,0.0,0.0,0.0,0.0,0.0,0.0,0.0,0.0,0.0,0.0,0.0,0.0,0.0,0.0,0.0,0.0,0.0,0.0,0.0,0.0,0.0,0.0,0.0,0.0,0.0,0.0,0.0,0.0,0.0,0.0,0.0,0.0,0.0,0.0,0.0,0.0,0.0,0.0,0.6708,0.6865,0.0,0.0,0.0,0.0,0.0,0.0,0.0,0.0,0.5659,0.0,0.0,0.0,0.0,0.0,0.0,0.0,0.0,0.0,0.0,0.0,0.0,0.0,0.0,0.0,0.0,0.0,0.0,0.0,0.0,0.0,0.0,0.0,0.0,0.0,0.0,0.0,0.0,0.0,0.0,0.0,0.0,0.0,0.0,0.0,0.0,0.0,0.0,0.0,0.0,0.0,0.0,0.0,0.0,0.0,0.0,0.0,0.0,0.0,0.0,0.0,0.0,0.0,0.0,0.0,0.0,0.9567,0.9699,0.9648,0.9496,0.9468,0.9359,0.9132,0.8903,0.8668,0.8406,0.0,0.0,0.0,0.0,0.0,0.0,0.0,0.0,0.0,0.0,0.0,0.0,0.0,0.0,0.0,0.0,0.0,0.0,0.0,0.0,0.0,0.0,0.0,0.0,0.0,0.0,0.0,0.0,0.0,0.0,0.0,0.0,0.0,0.0,0.0,0.0,0.0,0.0,0.0,0.7082,0.7122,0.0,0.0,0.0,0.0,0.0,0.0,0.0,0.0,0.5449,0.0,0.0,0.0,0.0,0.0,0.0,0.0,0.0,0.0,0.0,0.0,0.0,0.0,0.0,0.0,0.0,0.0,0.0,0.0,0.0,0.0,0.0,0.0,0.0,0.0,0.0,0.0,0.0,0.0,0.0,0.0,0.0,0.0,0.0,0.0,0.0,0.0,0.0,0.0,0.0,0.0,0.0,0.0,0.0,0.0,0.0,0.0,0.0,0.0,0.0,0.0,0.0,0.0,0.0,0.0,1.039,1.0471,1.0436,1.0212,1.0105,0.9954,0.9771,0.9587,0.9263,0.0,0.0,0.0,0.0,0.0,0.0,0.0,0.0,0.0,0.0,0.0,0.0,0.0,0.0,0.0,0.0,0.0,0.0,0.0,0.0,0.0,0.0,0.0,0.0,0.0,0.0,0.0,0.0,0.0,0.0,0.0,0.0,0.0,0.0,0.0,0.0,0.0,0.0,0.0,0.0,0.7253,0.735,0.723,0.0,0.0,0.0,0.0,0.0,0.0,0.6551,0.6177,0.0,0.0,0.0,0.0,0.0,0.0,0.0,0.0,0.0,0.0,0.0,0.0,0.0,0.0,0.0,0.0,0.0,0.0,0.0,0.0,0.0,0.0,0.0,0.0,0.0,0.0,0.0,0.0,0.0,0.0,0.0,0.0,0.0,0.0,0.0,0.0,0.0,0.0,0.0,0.0,0.0,0.0,0.0,0.0,0.0,0.0,0.0,0.0,0.0,0.0,0.0,0.0,0.0,0.0,0.0,1.1186,1.1199,1.1149,1.0925,1.0775,1.0588,1.0406,1.018,0.9843,0.0,0.0,0.0,0.0,0.0,0.0,0.0,0.0,0.0,0.0,0.0,0.0,0.0,0.0,0.0,0.0,0.0,0.0,0.0,0.0,0.0,0.0,0.0,0.0,0.0,0.0,0.0,0.0,0.0,0.0,0.0,0.0,0.0,0.0,0.0,0.0,0.0,0.0,0.0,0.0,0.0,0.7598,0.7564,0.7612,0.0,0.0,0.0,0.0,0.7428,0.7168,0.0,0.0,0.0,0.0,0.0,0.0,0.0,0.0,0.0,0.0,0.0,0.0,0.0,0.0,0.0,0.0,0.0,0.0,0.0,0.0,0.0,0.0,0.0,0.0,0.0,0.0,0.0,0.0,0.0,0.0,0.0,0.0,0.0,0.0,0.0,0.0,0.0,0.0,0.0,0.0,0.0,0.0,0.0,0.0,0.0,0.0,0.0,0.0,0.0,0.0,0.0,0.0,0.0,0.0,0.0,0.0,1.177,1.1676,1.1558,1.1335,1.1304,1.1186,1.0999,1.0812,1.0541,0.0,0.0,0.0,0.0,0.0,0.0,0.0,0.0,0.0,0.0,0.0,0.0,0.0,0.0,0.0,0.0,0.0,0.0,0.0,0.0,0.0,0.0,0.0,0.0,0.0,0.0,0.0,0.0,0.0,0.0,0.0,0.0,0.0,0.0,0.0,0.0,0.0,0.0,0.0,0.0,0.0,0.7952,0.7767,0.8059,0.8237,0.0,0.0,0.7793,0.7735,0.7342,0.0,0.0,0.0,0.0,0.0,0.0,0.0,0.0,0.0,0.0,0.0,0.0,0.0,0.0,0.0,0.0,0.0,0.0,0.0,0.0,0.0,0.0,0.0,0.0,0.0,0.0,0.0,0.0,0.0,0.0,0.0,0.0,0.0,0.0,0.0,0.0,0.0,0.0,0.0,0.0,0.0,0.0,0.0,0.0,0.0,0.0,0.0,0.0,0.0,0.0,0.0,0.0,0.0,0.0,0.0,1.2351,1.2451,1.2591,1.2521,1.2213,1.2213,1.2068,1.1739,1.1459,1.112,0.0,0.0,0.0,0.0,0.0,0.0,0.0,0.0,0.0,0.0,0.0,0.0,0.0,0.0,0.0,0.0,0.0,0.0,0.0,0.0,0.0,0.0,0.0,0.0,0.0,0.0,0.0,0.0,0.0,0.0,0.0,0.0,0.0,0.0,0.0,0.0,0.0,0.0,0.0,0.0,0.0,0.0,0.7982,0.8212,0.0,0.0,0.0,0.8291,0.8323,0.0,0.0,0.0,0.0,0.0,0.0,0.0,0.0,0.0,0.0,0.0,0.0,0.0,0.0,0.0,0.0,0.0,0.0,0.0,0.0,0.0,0.0,0.0,0.0,0.0,0.0,0.0,0.0,0.0,0.0,0.0,0.0,0.0,0.0,0.0,0.0,0.0,0.0,0.0,0.0,0.0,0.0,0.0,0.0,0.0,0.0,0.0,0.0,0.0,0.0,0.0,0.0,0.0,0.0,0.0,0.0,0.0,1.3263,1.3461,1.3435,1.3167,1.3167,1.2981,1.2641,1.2308,0.0,0.0,0.0,0.0,0.0,0.0,0.0,0.0,0.0,0.0,0.0,0.0,0.0,0.0,0.0,0.0,0.0,0.0,0.0,0.0,0.0,0.0,0.0,0.0,0.0,0.0,0.0,1.0445,0.0,0.0,0.0,0.0,0.0,0.0,0.0,0.0,0.0,0.0,0.0,0.0,0.0,0.0,0.827,0.831,0.8454,0.8608,0.0,0.0,0.8703,0.8703,0.8244,0.7872,0.0,0.0,0.0,0.0,0.0,0.0,0.0,0.0,0.0,0.0,0.0,0.0,0.0,0.0,0.0,0.0,0.0,0.0,0.0,0.0,0.0,0.0,0.0,0.0,0.0,0.0,0.0,0.0,0.0,0.0,0.0,0.0,0.0,0.0,0.0,0.0,0.0,0.0,0.0,0.0,0.0,0.0,0.0,0.0,0.0,0.0,0.0,0.0,0.0,0.0,0.0,0.0,0.0,0.0,1.4085,1.4209,1.4058,1.4037,1.4102,1.4116,1.3999,1.3796,1.3463,1.3105,0.0,0.0,0.0,0.0,0.0,0.0,0.0,0.0,0.0,0.0,0.0,0.0,0.0,0.0,0.0,0.0,0.0,0.0,0.0,0.0,0.0,0.0,0.0,0.0,0.0,0.0,0.0,0.0,0.0,0.0,0.0,0.0,0.0,0.0,0.0,0.0,0.0,0.0,0.0,0.0,0.0,0.8846,0.8958,0.8968,0.897,0.0,0.8827,0.8703,0.8703,0.8354,0.808,0.808,0.0,0.0,0.0,0.0,0.0,0.0,0.0,0.0,0.0,0.0,0.0,0.0,0.0,0.0,0.0,0.0,0.0,0.0,0.0,0.0,0.0,0.0,0.0,0.0,0.0,0.0,0.0,0.0,0.0,0.0,0.0,0.0,0.0,0.0,0.0,0.0,0.0,0.0,0.0,0.0,0.0,0.0,0.0,0.0,0.0,0.0,0.0,0.0,0.0,0.0,0.0,0.0,0.0,1.5067,1.4852,1.5196,1.5318,1.5244,1.5125,1.4974,1.479,1.4311,1.4002,0.0,0.0,0.0,0.0,0.0,0.0,0.0,0.0,0.0,0.0,0.0,0.0,0.0,0.0,0.0,0.0,0.0,0.0,0.0,0.0,0.0,0.0,0.0,0.0,0.0,0.0,0.0,0.0,1.1217,1.1101,1.106,0.0,0.0,0.0,0.0,0.0,0.0,0.0,0.0,0.0,0.0,0.9403,0.9378,0.9362,0.0,0.0,0.9208,0.9013,0.8903,0.8652,0.8411,0.8134,0.7748,0.0,0.0,0.0,0.0,0.0,0.0,0.0,0.0,0.0,0.0,0.0,0.0,0.0,0.0,0.0,0.0,0.0,0.0,0.0,0.0,0.0,0.0,0.0,0.0,0.0,0.0,0.0,0.0,0.0,0.0,0.0,0.0,0.0,0.0,0.0,0.0,0.0,0.0,0.0,0.0,0.0,0.0,0.0,0.0,0.0,0.0,0.0,0.0,0.0,0.0,0.0,0.0,1.5955,1.5728,1.6293,1.6532,1.6429,1.6229,1.6028,1.5786,1.5266,1.5014,0.0,0.0,0.0,0.0,0.0,0.0,0.0,0.0,0.0,0.0,0.0,0.0,0.0,0.0,0.0,0.0,0.0,0.0,0.0,0.0,0.0,0.0,0.0,0.0,0.0,0.0,0.0,0.0,1.1604,1.141,1.1192,0.0,0.0,0.0,0.0,0.0,0.0,0.0,0.0,0.0,0.0,1.0148,1.0064,0.9958,0.9841,0.9771,0.962,0.9372,0.9128,0.8923,0.8687,0.8351,0.0,0.0,0.0,0.0,0.0,0.0,0.0,0.0,0.0,0.0,0.0,0.0,0.0,0.0,0.0,0.0,0.0,0.0,0.0,0.0,0.0,0.0,0.0,0.0,0.0,0.0,0.0,2.1092,0.0,0.0,2.0603,0.0,0.0,0.0,0.0,0.0,0.0,0.0,0.0,0.0,0.0,0.0,0.0,0.0,0.0,0.0,0.0,0.0,0.0,0.0,0.0,0.0,0.0,1.6746,1.6863,1.7278,1.7528,1.7626,1.7489,1.7245,1.696,1.6453,1.6158,1.6142,0.0,0.0,0.0,0.0,0.0,0.0,0.0,0.0,0.0,0.0,0.0,0.0,0.0,0.0,0.0,0.0,0.0,0.0,0.0,0.0,0.0,0.0,0.0,0.0,0.0,0.0,1.267,1.2288,1.1793,0.0,0.0,0.0,0.0,0.0,0.0,0.0,0.0,0.0,1.1062,1.1179,1.1208,1.1057,1.0738,1.0443,1.0223,1.0035,0.9772,0.9374,0.9144,0.8906,0.0,0.0,0.0,0.0,0.0,0.0,0.0,0.0,0.0,0.0,0.0,0.0,0.0,0.0,0.0,0.0,0.0,0.0,0.0,0.0,0.0,0.0,0.0,0.0,0.0,0.0,0.0,2.3418,2.3381,0.0,0.0,0.0,0.0,0.0,0.0,0.0,0.0,0.0,0.0,0.0,2.2834,2.2589,0.0,0.0,0.0,0.0,0.0,0.0,0.0,0.0,0.0,0.0,0.0,0.0,1.799,1.7913,1.8413,1.873,1.8736,1.8425,1.8224,1.8126,1.7654,1.7286,1.7075,0.0,0.0,0.0,0.0,0.0,0.0,0.0,0.0,0.0,0.0,0.0,0.0,0.0,0.0,0.0,0.0,0.0,0.0,0.0,0.0,0.0,0.0,0.0,0.0,0.0,1.3127,0.0,0.0,0.0,0.0,0.0,0.0,0.0,0.0,0.0,0.0,0.0,1.1864,1.1655,1.1893,1.1977,1.1742,1.1484,1.1223,0.0,0.0,0.0,0.0,0.0,0.0,0.0,0.0,0.0,0.0,0.0,0.0,0.0,0.0,0.7008,0.6053,0.565,0.5343,0.5256,0.0,0.0,0.0,0.0,0.0,0.0,0.0,0.0,0.0,0.0,0.0,0.0,0.0,0.0,2.5443,0.0,2.4621,0.0,0.0,0.0,0.0,0.0,0.0,0.0,0.0,2.4251,2.415,2.3746,2.3599,2.3221,0.0,2.232,2.1295,0.0,0.0,0.0,0.0,0.0,0.0,0.0,0.0,1.8915,1.8975,1.9475,1.9736,1.9618,1.9301,1.9094,1.8993,1.8665,1.8289,1.7951,1.7734,1.7307,0.0,0.0,0.0,0.0,0.0,0.0,0.0,0.0,0.0,0.0,0.0,0.0,0.0,0.0,0.0,0.0,0.0,0.0,0.0,0.0,0.0,0.0,0.0,1.3813,0.0,0.0,0.0,0.0,0.0,0.0,0.0,0.0,0.0,1.217,1.2402,1.2561,1.2506,1.2762,1.2827,1.2462,0.0,0.0,0.0,0.0,0.0,0.0,0.0,1.0462,0.9775,0.946,0.921,0.8856,0.8695,0.8589,0.8518,0.0,0.0,0.6884,0.6457,0.623,0.6113,0.5762,0.5473,0.5311,0.5189,0.4978,0.0,0.0,0.0,0.0,0.0,0.0,0.0,0.0,2.7143,2.7041,0.0,2.6232,0.0,0.0,0.0,0.0,0.0,2.4985,0.0,0.0,2.5726,2.5503,2.4731,2.4731,2.4157,2.3141,2.2925,2.2662,2.2217,2.0872,0.0,0.0,0.0,0.0,0.0,0.0,1.9585,2.0035,2.0419,2.0527,2.0303,2.0059,1.9833,1.9645,1.9469,1.9157,1.8799,1.8935,1.8676,1.7918,1.7637,0.0,0.0,0.0,0.0,0.0,0.0,0.0,0.0,0.0,0.0,0.0,0.0,0.0,0.0,0.0,0.0,0.0,0.0,0.0,0.0,1.4533,0.0,0.0,0.0,0.0,0.0,0.0,0.0,0.0,0.0,0.0,1.2866,1.3022,1.3244,1.3538,0.0,0.0,0.0,0.0,1.2709,1.2157,1.204,1.1838,1.1242,1.1175,1.1001,1.0617,0.0,0.0,0.9138,0.9068,0.9008,0.8791,0.8776,0.8533,0.7957,0.7531,0.7216,0.6992,0.6638,0.6316,0.596,0.5847,0.5692,3.0957,0.0,0.0,0.0,0.0,2.8309,2.8251,2.8251,2.8251,2.8216,2.8132,2.7966,0.0,0.0,0.0,0.0,0.0,0.0,2.7274,2.7036,2.7185,2.7064,2.6651,2.6675,2.6348,2.5767,2.5217,2.4788,2.4367,2.2984,2.1889,2.111,0.0,0.0,0.0,0.0,2.0796,2.0802,2.1088,2.1156,2.0935,2.0722,2.0518,2.0342,2.0255,2.0197,2.0072,1.9822,1.9627,1.9375,1.8598,0.0,0.0,0.0,0.0,0.0,0.0,0.0,0.0,0.0,0.0,0.0,0.0,0.0,0.0,0.0,0.0,0.0,0.0,0.0,1.6169,1.5346,1.4751,0.0,0.0,0.0,0.0,0.0,0.0,0.0,0.0,0.0,1.3715,1.3766,1.3799,0.0,0.0,1.4072,1.3681,1.3572,1.3419,1.3119,1.2936,0.0,1.238,1.2231,1.1966,1.1361,1.0991,1.0595,1.0154,1.0044,1.0013,0.9823,0.9538,0.9278,0.9072,0.8423,0.7727,0.7256,0.7037,0.6892,0.6656,0.6572,0.6459,3.3067,3.1246,3.099,3.0829,3.0732,3.062,3.0583,3.0533,3.0312,3.017,3.0058,2.9507,2.9034,2.864,2.8351,0.0,0.0,0.0,2.8352,2.8048,2.8035,2.7901,2.7631,2.7619,2.7446,2.7137,2.6698,2.6294,2.591,2.503,2.4202,2.3415,0.0,0.0,2.1808,2.1696,2.1676,2.1766,2.1814,2.1769,2.154,2.1377,2.1146,2.0954,2.0954,2.0925,2.0848,2.06,2.0383,2.0252,1.9627,1.8994,0.0,0.0,0.0,0.0,0.0,0.0,0.0,0.0,0.0,0.0,0.0,1.5362,1.5649,0.0,0.0,0.0,1.6513,1.6647,1.673,1.6158,0.0,0.0,0.0,0.0,0.0,0.0,0.0,1.4003,1.4189,1.4386,1.4463,1.4506,1.442,1.414,1.4328,1.4353,1.408,0.0,1.3928,1.3645,1.3499,1.3353,1.31,1.2926,1.2654,1.2107,1.1775,1.144,1.1074,1.0962,1.0887,1.0588,1.0293,1.0067,0.9997,0.9311,0.8578,0.7933,0.7668,0.7442,0.7195,0.7057,0.6945,3.4772,3.4503,3.412,3.3757,3.3457,3.3457,3.3444,3.3417,3.2831,3.2528,3.2231,3.095,3.0257,3.006,2.9359,0.0,2.9031,2.8995,2.8886,2.8615,2.8602,2.8407,2.8002,2.8002,2.7878,2.7644,2.7483,2.7284,2.6985,2.6836,2.6609,2.6323,2.3678,2.2469,2.2764,2.239,2.2388,2.2821,2.2644,2.2429,2.2239,2.2008,2.1759,2.1617,2.1578,2.1464,2.132,2.1282,2.1138,2.0791,2.0693,2.0289,1.9434,0.0,0.0,0.0,0.0,0.0,0.0,0.0,0.0,0.0,0.0,0.0,0.0,0.0,0.0,1.7102,1.7459,0.0,1.6706,1.6954,0.0,0.0,0.0,1.5615,1.5278,1.5183,1.5103,1.5061,0.0,0.0,1.5137,1.5215,1.5147,1.4792,1.4673,1.4569,1.4433,1.4397,1.4289,1.3935,1.3863,1.379,1.3608,1.3404,1.3112,1.2762,1.2526,1.2224,1.1892,1.1744,1.1595,1.126,1.0999,1.0775,1.0588,1.0196,0.9728,0.8993,0.847,0.8021,0.7676,0.7411,0.718,3.725,3.6595,3.6466,3.5474,3.3869,3.3869,3.3869,3.3856,3.3682,3.3614,3.3524,3.3051,3.2739,3.2548,3.2159,3.1901,3.1772,3.1578,3.1177,3.0535,3.0522,3.019,2.9568,2.9555,2.9352,2.8919,2.856,2.8223,2.7946,2.7417,2.7123,2.7012,2.6184,2.5325,2.4443,2.4011,2.3805,2.3775,2.3737,2.3585,2.3384,2.281,2.2478,2.244,2.2262,2.2176,2.2101,2.2111,2.2059,2.1981,2.1544,2.1188,2.0969,1.9908,0.0,0.0,0.0,0.0,0.0,0.0,0.0,0.0,0.0,1.6768,1.743,0.0,1.779,0.0,1.8228,1.8215,1.8048,1.7622,0.0,0.0,1.6455,1.6,1.584,1.6062,1.609,1.5791,1.5901,1.607,1.6287,1.6067,1.5945,1.6146,1.5422,1.4748,1.4569,1.4569,1.4533,1.4441,1.4333,1.4245,1.4181,1.3891,1.3645,1.3528,1.3229,1.29,1.2673,1.2489,1.2261,1.1855,1.1632,1.1372,1.1037,1.0738,1.04,0.9911,0.916,0.8475,0.8246,0.791,0.7607,3.8728,3.8282,3.8282,3.7402,3.6,3.5529,3.5303,3.5289,3.495,3.4802,3.4774,3.4208,3.3831,3.3638,3.3444,3.3236,3.3132,3.2949,3.2489,3.1862,3.1862,3.1537,3.0994,3.0713,3.0391,3.0054,2.9566,2.9149,2.8767,2.8407,2.8208,2.8093,2.789,2.7268,2.6224,2.5485,2.5028,2.4799,2.4657,2.4503,2.4376,2.3759,2.3356,2.3205,2.2934,2.2703,2.2515,2.2628,2.2665,2.2665,2.2344,2.2034,2.1722,2.1043,2.0208,0.0,0.0,0.0,0.0,0.0,0.0,0.0,0.0,0.0,0.0,0.0,1.891,1.93,1.9331,1.9341,1.9247,1.8877,1.859,1.8409,1.792,1.7504,1.7358,1.7439,1.7441,1.7232,1.7232,1.7352,1.7451,1.7147,1.6922,1.711,1.6448,1.581,1.541,1.5239,1.509,1.5017,1.478,1.4577,1.4433,1.4217,1.4036,1.3928,1.3739,1.3521,1.3339,1.3156,1.29,1.2599,1.2231,1.1892,1.1669,1.1298,1.0962,1.0631,1.003,0.9344,0.8775,0.8322,0.803,3.9633,3.9562,3.9602,3.9287,3.8703,3.7809,3.7289,3.7028,3.634,3.6025,3.592,3.5048,3.4522,3.4331,3.4099,3.3983,3.3983,3.3763,3.3396,3.2949,3.2922,3.2632,3.2222,3.1653,3.1277,3.1067,3.052,3.0009,2.9608,2.9534,2.9392,2.9182,2.8988,2.8599,2.7932,2.6898,2.6228,2.5877,2.554,2.5368,2.5357,2.491,2.4426,2.3968,2.3645,2.3279,2.2852,2.3001,2.3075,2.3075,2.3075,2.2805,2.2244,2.2132,2.1466,0.0,2.0083,0.0,0.0,0.0,0.0,0.0,0.0,0.0,0.0,1.9716,2.0122,2.0425,2.0466,2.0395,2.0273,2.0201,2.0057,1.9723,1.9495,1.9314,1.9139,1.8976,1.8839,1.8829,1.8664,1.8619,1.8601,1.8304,1.7977,1.7907,1.7736,1.736,1.6737,1.6238,1.5832,1.563,1.5272,1.4977,1.47,1.4573,1.4453,1.4274,1.4165,1.4101,1.3899,1.3717,1.3484,1.3236,1.2826,1.2452,1.2378,1.1892,1.149,1.1267,1.085,1.025,0.9382,0.8818,0.8441,4.0463,3.9985,3.9985,3.9913,3.9797,3.9603,3.8734,3.7495,3.7343,3.7157,3.7003,3.6645,3.6356,3.6175,3.5742,3.5583,3.5544,3.5184,3.4714,3.4165,3.3993,3.3556,3.2909,3.2581,3.2318,3.2068,3.1343,3.0852,3.0604,3.0174,2.9882,2.9675,2.9624,2.9445,2.9075,0.0,0.0,0.0,2.6929,2.689,2.671,2.6258,2.5652,2.4808,2.4555,0.0,2.3468,2.3446,2.3482,2.3482,2.3482,0.0,0.0,0.0,0.0,0.0,0.0,0.0,0.0,0.0,0.0,0.0,2.1085,2.0902,2.0687,2.0726,2.0822,2.0871,2.074,2.0634,2.0609,2.0344,2.0175,2.0103,1.9903,1.9775,1.9739,1.9703,1.9594,1.9459,1.926,1.9213,1.9344,1.9042,1.8906,1.9106,1.9042,1.8807,1.8474,1.7333,1.6476,1.62,1.5873,1.563,1.5548,1.5275,1.4987,1.4792,1.4613,1.4461,1.4325,1.4101,1.3848,1.3528,1.3346,1.309,1.2636,1.2298,1.2077,1.1848,1.1521,1.0925,0.9954,0.943,0.9094,4.1395,4.1091,4.1091,4.0902,0.0,4.0597,3.9927,3.8837,3.8734,3.8406,3.7951,3.7834,3.7547,3.7109,3.6705,3.6508,3.6468,3.6085,3.5641,3.5248,3.5142,3.4834,3.4339,3.3834,3.3489,3.3251,3.2371,3.168,3.1227,3.075,3.0315,2.9934,2.9869,2.965,2.9419,2.9197,2.8682,2.7775,2.7866,2.7866,2.7632,2.7147,2.6553,2.5912,2.5388,0.0,0.0,0.0,0.0,0.0,0.0,0.0,0.0,2.3731,0.0,2.3184,2.2853,2.2558,2.2332,2.2489,2.2601,2.2554,2.2743,2.2517,2.1718,2.1757,2.1835,2.1825,2.1643,2.1544,2.1544,2.1298,2.1151,2.1124,2.0855,2.0707,2.066,2.0595,2.0484,2.0419,2.0307,2.0246,2.0225,1.9976,1.9821,1.9913,1.9745,1.9548,1.9234,1.8294,1.74,1.6898,1.6568,1.6404,1.6333,1.5973,1.5613,1.5468,1.5149,1.49,1.4812,1.4561,1.4281,1.4065,1.3855,1.3492,1.3156,1.2856,1.2629,1.2342,1.204,1.1632,1.0887,1.0331,0.9809,4.2092,4.2092,4.2092,4.1787,4.1265,4.1265,4.1,4.0463,0.0,0.0,0.0,3.8828,3.846,3.7834,3.742,3.7194,3.707,3.6733,3.6443,3.623,3.6191,3.6111,3.5884,3.5181,3.4739,3.4526,3.3489,3.2673,3.1993,3.1498,3.089,3.0317,3.0085,2.9828,2.947,2.9287,2.9064,2.8749,2.8669,2.859,2.8379,2.7948,2.7516,2.7031,2.6385,2.5901,2.5571,2.5189,2.4955,2.4919,2.4848,2.4718,2.4574,2.4526,2.4304,2.3792,2.3839,2.3677,2.3132,2.3595,2.3874,2.3769,2.4127,2.3861,2.2712,2.2809,2.2927,2.2927,2.2654,2.2515,2.2515,2.2279,2.2149,2.2138,2.1845,2.1606,2.1606,2.1436,2.128,2.1292,2.1193,2.1167,2.0964,2.0789,2.0654,2.0498,2.0303,2.0059,1.9747,1.9104,1.8321,1.7811,1.7518,1.7299,1.7218,1.6836,1.643,1.6229,1.581,1.543,1.5256,1.4999,1.4748,1.4605,1.4253,1.3928,1.371,1.3455,1.3193,1.2856,1.2606,1.2335,1.1966,1.1372,1.0743,4.2092,4.2092,4.2092,4.2034,4.1961,4.1961,4.2012,4.1986,4.0637,3.9967,3.988,3.9711,3.9287,3.8697,3.8464,3.8047,3.751,3.7264,3.7148,3.7095,3.694,3.6836,3.6769,3.6304,3.6026,3.5931,3.4831,3.4007,3.3515,3.2803,3.1953,3.1111,3.0837,3.0401,2.979,2.9714,2.9675,2.9598,2.9404,2.9145,2.8961,2.9084,2.8735,2.7973,2.7803,2.736,2.6514,2.6028,2.5656,2.5485,2.5036,2.4801,2.4754,2.4801,2.473,2.4624,2.4648,2.4601,2.4495,2.4601,2.4708,2.4767,2.4862,2.46,2.3977,2.3815,2.3714,2.3703,2.3224,2.2927,2.2889,2.258,2.2365,2.2365,2.2149,2.1997,2.1987,2.1845,2.1655,2.1512,2.1464,2.1397,2.1244,2.1167,2.1128,2.1051,2.0935,2.0925,2.0547,1.9836,1.9201,1.8982,1.8679,1.8497,1.8348,1.803,1.7501,1.6935,1.6674,1.6222,1.5688,1.5443,1.5248,1.4935,1.4677,1.4461,1.4289,1.3971,1.3746,1.3564,1.3309,1.301,1.2746,1.2409,1.1966,4.2175,4.2242,4.2257,4.231,4.2433,4.2433,4.2459,4.2482,4.1814,4.1305,4.0958,4.0879,4.049,3.9892,3.932,3.8938,3.861,3.8059,3.7801,3.7787,3.7672,3.7582,3.7467,3.7144,3.6886,3.6624,3.5874,3.5113,3.4419,3.3821,3.3001,3.2031,3.1368,3.0738,3.0151,3.0011,2.9972,2.9972,2.9728,2.9482,2.9275,2.9341,2.9151,2.8658,2.8376,2.8031,2.7585,2.7039,2.6723,2.6612,2.6383,2.613,2.5877,2.5817,2.5684,2.5407,2.5395,2.5383,2.5383,2.5383,2.5477,2.5629,2.5558,2.5465,2.5288,2.4695,2.4335,2.4335,2.3801,2.3482,2.3482,2.3113,2.2852,2.274,2.2553,2.2402,2.2289,2.2176,2.2101,2.1997,2.1997,2.1921,2.1693,2.1693,2.1578,2.1436,2.1282,2.1156,2.1069,2.0644,2.0206,1.9883,1.9586,1.9375,1.9329,1.8897,1.8469,1.8183,1.756,1.7,1.6509,1.6227,1.5805,1.547,1.5221,1.4999,1.4721,1.4549,1.4361,1.4109,1.3884,1.363,1.3411,1.3156,1.2599,4.231,4.2474,4.2474,4.2541,4.2688,4.2769,4.2769,4.2769,4.2809,4.2529,4.21,4.1976,4.1597,4.0949,4.0294,3.9821,3.9513,3.8879,3.8483,3.8366,3.8352,3.8263,3.8075,3.7863,3.7572,3.725,3.6755,3.6087,3.5348,3.4885,3.41,3.3027,3.2071,3.1358,3.0714,3.0522,3.0394,3.0241,3.0049,2.9818,2.9521,2.947,2.9392,2.9223,2.8841,2.8631,2.8505,2.8038,2.778,2.7767,2.7656,2.7409,2.7075,2.7038,2.6853,2.6457,2.6408,2.6408,2.6408,2.6408,2.6501,2.6664,2.6549,2.6549,2.6677,2.6005,2.5314,2.4945,2.4419,2.4057,2.4032,2.3666,2.3372,2.3224,2.2964,2.2777,2.2628,2.2563,2.2515,2.2515,2.2515,2.2488,2.23,2.2252,2.2101,2.1769,2.1578,2.1474,2.1464,2.1464,2.1195,2.0809,2.0411,2.0196,2.0157,1.9763,1.944,1.9316,1.8555,1.7861,1.7433,1.6928,1.6475,1.6114,1.5823,1.5576,1.5256,1.5078,1.4935,1.4713,1.4453,1.4209,1.3964,1.3674,1.3112,4.2662,4.2648,4.2703,4.2703,4.2729,4.2915,4.2996,4.2996,4.317,4.322,4.3051,4.2761,4.2216,4.1646,4.1499,4.0836,3.9873,3.9702,3.9334,3.8789,3.8745,3.8745,3.8671,3.8352,3.8127,3.8014,3.7481,3.6975,3.6487,3.6198,3.5381,3.4126,3.3304,3.2541,3.1823,3.1565,3.1216,3.0673,3.0457,3.0139,2.9779,2.974,2.9753,2.974,2.9703,2.9549,2.9294,2.8835,2.8549,2.8461,2.8126,2.7963,2.8034,2.807,2.8045,2.797,2.7957,2.7982,2.797,2.7995,2.8005,2.8187,2.8136,2.8172,2.8365,2.8149,2.729,2.5933,2.5016,2.473,2.4612,2.4177,2.3849,2.3824,2.3482,2.3224,2.3187,2.3038,2.2927,2.2916,2.2964,2.2852,2.274,2.2665,2.2553,2.2327,2.2214,2.2187,2.2176,2.2025,2.1959,2.1797,2.1464,2.1089,2.1002,2.0712,2.0294,1.9954,1.9516,1.8853,1.8171,1.7782,1.7427,1.6739,1.6368,1.6167,1.5964,1.5709,1.547,1.5355,1.507,1.4756,1.4433,1.4209,1.3724,4.313,4.3235,4.325,4.325,4.3265,4.321,4.317,4.321,4.325,4.3305,4.3305,4.313,4.2902,4.2634,4.2302,4.1617,4.0754,4.0367,3.978,3.9185,3.9141,3.909,3.8943,3.8797,3.8612,3.8366,3.7976,3.7634,3.7173,3.6598,3.5847,3.4973,3.4296,3.3619,3.2969,3.2632,3.2201,3.1624,3.1394,3.1021,3.0534,3.0267,3.0152,3.0152,3.0152,3.0101,2.9986,2.9796,2.9682,2.9656,2.9466,2.9262,2.8982,2.8956,2.8804,2.8547,2.8509,2.8509,2.8509,2.8509,2.8569,2.8749,2.8641,2.8677,2.8869,2.869,2.8208,2.7494,2.6489,2.5829,2.5673,2.4979,2.4527,2.4383,2.4141,2.3982,2.3861,2.374,2.3714,2.3703,2.3604,2.3482,2.3409,2.3187,2.3038,2.2889,2.274,2.259,2.259,2.2402,2.2289,2.2252,2.2025,2.1769,2.1464,2.1156,2.0903,2.0677,2.0373,1.9744,1.9261,1.86,1.8107,1.7424,1.7064,1.6797,1.6586,1.6377,1.6132,1.5991,1.57,1.5346,1.5106,1.4883,1.4525,4.3606,4.3708,4.3708,4.3738,4.3754,4.3518,4.3423,4.3384,4.3329,4.3305,4.3305,4.3305,4.3305,4.323,4.2836,4.2306,4.1677,4.116,4.0487,3.9753,3.9694,3.9516,3.9207,3.9104,3.8958,3.8649,3.8464,3.8165,3.7725,3.7042,3.6415,3.5975,3.5399,3.4825,3.4283,3.388,3.3391,3.2843,3.256,3.218,3.164,3.1246,3.0903,3.0622,3.0482,3.0482,3.0482,3.0444,3.0457,3.0495,3.0482,3.0302,2.9941,2.9915,2.9722,2.9398,2.9333,2.9333,2.9333,2.9333,2.9406,2.9515,2.9406,2.9406,2.9466,2.9406,2.9297,2.9149,2.8216,2.7417,2.6833,2.619,2.5589,2.5218,2.505,2.4834,2.4465,2.4394,2.4406,2.4345,2.4236,2.4127,2.4007,2.3751,2.3446,2.342,2.3187,2.2916,2.2927,2.2815,2.2665,2.2639,2.2553,2.2252,2.1835,2.1578,2.1474,2.1346,2.1103,2.0685,2.0339,1.9637,1.8921,1.8344,1.7907,1.7461,1.716,1.6959,1.6716,1.6482,1.6228,1.5974,1.5744,1.5559,1.5275,4.4166,4.3972,4.3972,4.3988,4.3949,4.3754,4.369,4.3636,4.3423,4.329,4.3305,4.3305,4.3305,4.3305,4.3215,4.2925,4.2396,4.2246,4.1519,4.0427,4.0322,4.0008,3.9388,3.9192,3.9104,3.9031,3.8819,3.8575,3.8165,3.7749,3.7419,3.7155,3.6738,3.625,3.5725,3.5294,3.4813,3.4203,3.3982,3.3607,3.3067,3.2761,3.2155,3.1204,3.0811,3.0736,3.0698,3.052,3.0495,3.0685,3.0685,3.0735,3.0884,3.0884,3.0844,3.0818,3.0818,3.0831,3.0805,3.0779,3.0779,3.0856,3.0727,3.0856,3.0701,3.0701,3.0589,3.0568,2.9899,2.9116,2.8234,2.7618,2.7066,2.642,2.6142,2.5744,2.5123,2.5147,2.4945,2.4849,2.4813,2.467,2.449,2.4116,2.397,2.3886,2.3703,2.3556,2.3482,2.3372,2.3261,2.315,2.2927,2.2628,2.2413,2.2111,2.1987,2.1928,2.1628,2.1356,2.0978,2.0569,1.9911,1.9286,1.8832,1.8339,1.7806,1.7442,1.7176,1.6968,1.6777,1.6533,1.6342,1.6167,1.5877,4.4874,4.4587,4.4419,4.4305,4.4166,4.3988,4.3871,4.3856,4.3675,4.3557,4.3503,4.3384,4.3305,4.3305,4.3305,4.2985,4.2425,4.2396,4.1916,4.104,4.0606,4.0277,4.0001,3.9561,3.9301,3.9265,3.9068,3.887,3.8612,3.8292,3.8066,3.7839,3.7481,3.7098,3.6761,3.6501,3.6,3.5343,3.5159,3.4792,3.4142,3.3998,3.3561,3.2752,3.1782,3.1261,3.1261,3.1099,3.1011,3.1099,3.0986,3.0911,3.0986,3.1024,3.1024,3.1024,3.1024,3.1024,3.1024,3.1024,3.1024,3.1024,3.1024,3.1024,3.1024,3.1024,3.0986,3.0835,3.0717,3.0282,2.9726,2.8808,2.8009,2.7724,2.742,2.7139,2.6907,2.6712,2.6445,2.6057,2.5648,2.523,2.5076,2.4778,2.4623,2.4599,2.4358,2.4152,2.397,2.3824,2.3629,2.3519,2.3372,2.3261,2.3187,2.2628,2.2289,2.2262,2.2107,2.1973,2.1682,2.1317,2.0725,2.0246,1.9752,1.9169,1.8641,1.8179,1.7875,1.751,1.732,1.7123,1.6925,1.6751,1.6403,4.5395,4.5098,4.4949,4.4739,4.4458,4.4281,4.4166,4.4104,4.3886,4.3808,4.3754,4.3542,4.3423,4.3423,4.3344,4.312,4.2686,4.2686,4.2366,4.1698,4.1235,4.092,4.0636,4.0038,3.9738,3.9657,3.9354,3.9104,3.8907,3.8775,3.859,3.8375,3.8066,3.7853,3.7687,3.7443,3.6971,3.6555,3.6437,3.6027,3.5344,3.5147,3.4794,3.4136,3.3127,3.2304,3.182,3.1633,3.1471,3.1397,3.1198,3.1061,3.1024,3.1024,3.1024,3.1024,3.1024,3.1024,3.1024,3.1024,3.1024,3.1024,3.1024,3.1024,3.1024,3.1024,3.1024,3.1024,3.1024,3.0949,3.0655,2.9862,2.9127,2.8815,2.8557,2.8298,2.8098,2.7803,2.7446,2.6956,2.6541,2.6201,2.6008,2.5661,2.5493,2.5445,2.5063,2.4706,2.4503,2.4286,2.4105,2.3934,2.3824,2.3751,2.3641,2.3261,2.2889,2.2815,2.2628,2.2478,2.2322,2.1999,2.1629,2.1183,2.0638,2.0037,1.9508,1.8996,1.858,1.8149,1.7886,1.7716,1.751,1.7314,1.6994,4.5687,4.5505,4.5505,4.5284,4.4911,4.4723,4.4496,4.4335,4.4104,4.4026,4.3988,4.3793,4.3675,4.3636,4.3463,4.3314,4.3254,4.3225,4.2925,4.2425,4.2291,4.1946,4.1407,4.0711,4.0352,4.0292,3.9702,3.9331,3.9104,3.9083,3.8995,3.8797,3.8575,3.8441,3.8478,3.8075,3.7872,3.7738,3.7587,3.7215,3.673,3.6292,3.5822,3.5236,3.4738,3.3826,3.2404,3.2067,3.187,3.1646,3.1397,3.1198,3.1061,3.1024,3.1024,3.1024,3.1024,3.1024,3.1024,3.1024,3.1024,3.1024,3.1024,3.1024,3.1024,3.1024,3.1024,3.1024,3.1024,3.0986,3.0986,3.0831,3.0435,2.9725,2.9498,2.9183,2.8691,2.8293,2.8,2.7656,2.7508,2.7508,2.7336,2.687,2.6457,2.6299,2.5889,2.5433,2.529,2.511,2.4801,2.4561,2.4522,2.4459,2.4196,2.3897,2.3629,2.3409,2.315,2.2964,2.2815,2.2557,2.2316,2.1876,2.1413,2.0776,2.0107,1.9634,1.9339,1.8927,1.8666,1.8299,1.8066,1.7852,1.7613,4.6191,4.5905,4.592,4.5703,4.5321,4.5247,4.5024,4.4723,4.4511,4.4343,4.4205,4.3988,4.391,4.3871,4.3778,4.3699,4.3596,4.3557,4.3397,4.301,4.2605,4.2321,4.2006,4.1384,4.0846,4.0442,4.0202,3.9807,3.939,3.9301,3.9228,3.9031,3.8943,3.8833,3.8723,3.8575,3.8449,3.8315,3.8254,3.7988,3.7589,3.7395,3.6996,3.6267,3.5972,3.5316,3.4302,3.3256,3.2529,3.209,3.1706,3.1397,3.1235,3.1198,3.1123,3.1024,3.1024,3.1024,3.1024,3.1024,3.1024,3.1024,3.1024,3.1024,3.1024,3.1024,3.1024,3.1024,3.1024,3.1024,3.1024,3.1024,3.0844,3.0538,3.0426,3.0223,2.9841,2.941,2.9071,2.8871,2.8556,2.8304,2.8121,2.7738,2.7519,2.7348,2.7005,2.6688,2.6566,2.6408,2.6214,2.5743,2.5574,2.5251,2.4905,2.4667,2.4487,2.4066,2.374,2.3372,2.3261,2.3139,2.2907,2.2592,2.2097,2.1577,2.0896,2.0397,2.0128,1.9711,1.9321,1.8995,1.8637,1.8361,1.8148,4.6754,4.6509,4.6439,4.6191,4.5817,4.5744,4.5505,4.5136,4.4986,4.4814,4.4511,4.432,4.4181,4.4089,4.4011,4.391,4.3793,4.3808,4.3714,4.3497,4.2995,4.2731,4.268,4.2081,4.1399,4.0816,4.0516,4.0187,3.9798,3.9508,3.9352,3.9213,3.9213,3.9141,3.9017,3.8943,3.8833,3.8738,3.8649,3.8486,3.8263,3.815,3.7878,3.733,3.7048,3.6546,3.5755,3.4724,3.3857,3.3137,3.2496,3.1971,3.1585,3.1434,3.1323,3.1161,3.1099,3.1099,3.1024,3.1024,3.1024,3.1024,3.1024,3.1024,3.1024,3.1024,3.1024,3.1024,3.1024,3.1024,3.1024,3.1024,3.1024,3.1024,3.0861,3.0811,3.0633,3.0262,2.9956,2.9779,2.9511,2.9306,2.9145,2.8818,2.8571,2.8349,2.805,2.7693,2.7594,2.7446,2.7103,2.6822,2.6627,2.6202,2.5649,2.5445,2.5278,2.4824,2.4334,2.3934,2.3677,2.3604,2.3427,2.3198,2.2802,2.255,2.1953,2.1466,2.1089,2.0589,2.0071,1.9567,1.9173,1.8929,1.8697,4.7403,4.7183,4.703,4.6703,4.6372,4.6227,4.5941,4.5578,4.5505,4.5284,4.4933,4.4761,4.4549,4.432,4.4205,4.4089,4.4026,4.4026,4.3988,4.3856,4.353,4.3343,4.3174,4.2734,4.2149,4.1482,4.0905,4.0531,4.0262,3.9813,3.9418,3.9388,3.9373,3.9388,3.9301,3.9177,3.9104,3.9068,3.8943,3.8833,3.8782,3.8612,3.8412,3.8182,3.7951,3.7532,3.681,3.6278,3.5553,3.463,3.3612,3.2864,3.2233,3.1864,3.1809,3.1543,3.14,3.1237,3.1088,3.1061,3.1024,3.1024,3.1024,3.1024,3.1024,3.1024,3.1024,3.1024,3.1024,3.1024,3.1024,3.1024,3.1024,3.1024,3.0986,3.0911,3.0736,3.071,3.0557,3.0456,3.0419,3.0406,3.0265,2.9817,2.9526,2.9224,2.8895,2.8559,2.8324,2.8275,2.794,2.7779,2.7705,2.7335,2.6832,2.6673,2.6467,2.5816,2.5266,2.4823,2.4223,2.408,2.397,2.3765,2.3514,2.3268,2.2972,2.2432,2.1914,2.1463,2.0841,2.0158,1.9811,1.9638,1.9325,4.7554,4.7453,4.7352,4.7167,4.6945,4.6789,4.6458,4.6088,4.5977,4.5724,4.5395,4.5284,4.5061,4.4761,4.4685,4.4496,4.432,4.4243,4.4127,4.4026,4.405,4.3856,4.3636,4.3431,4.2941,4.2224,4.1871,4.1392,4.0457,4.0247,3.9918,3.9388,3.9448,3.9403,3.9388,3.9352,3.9337,3.9286,3.9265,3.9141,3.9017,3.8995,3.8833,3.8649,3.8427,3.8167,3.7768,3.7406,3.6348,3.4764,3.4392,3.4077,3.3619,3.3403,3.2987,3.2477,3.2246,3.1872,3.1404,3.1288,3.12,3.1024,3.1076,3.1024,3.1024,3.1024,3.1024,3.1024,3.1024,3.1024,3.1024,3.1024,3.1024,3.1024,3.1024,3.0986,3.0911,3.0911,3.0874,3.0823,3.0836,3.0748,3.0633,3.0518,3.0263,3.0061,2.9895,2.9717,2.9428,2.9403,2.9176,2.9036,2.8896,2.8519,2.8181,2.797,2.7574,2.6852,2.6332,2.5876,2.5158,2.4527,2.4406,2.4261,2.4009,2.379,2.3532,2.3125,2.2661,2.2303,2.1885,2.1346,2.0836,2.0529,2.0112,4.7754,4.7704,4.7637,4.7521,4.7404,4.7217,4.6927,4.6598,4.6474,4.6191,4.5848,4.576,4.5541,4.5173,4.5136,4.4986,4.4701,4.4678,4.4641,4.4564,4.4641,4.4412,4.4065,4.3856,4.3542,4.3102,4.27,4.2121,4.1438,4.1003,4.0457,3.9963,3.9828,3.9709,3.9388,3.9388,3.9388,3.9388,3.9388,3.9337,3.9228,3.9213,3.9104,3.8943,3.8811,3.8627,3.8315,3.8028,3.7049,3.5718,3.5254,3.5044,3.4582,3.4352,3.3998,3.3444,3.3255,3.289,3.2446,3.2226,3.2006,3.1721,3.158,3.1346,3.1164,3.1061,3.1024,3.1024,3.1024,3.1024,3.1024,3.1024,3.1061,3.1136,3.1136,3.1099,3.1024,3.0986,3.0986,3.1024,3.1061,3.1099,3.0936,3.1037,3.0924,3.0735,3.0607,3.0455,3.0317,3.0432,3.0367,3.0084,2.9841,2.9473,2.913,2.8928,2.8635,2.7938,2.7306,2.6882,2.6016,2.5182,2.4933,2.479,2.4527,2.4312,2.4125,2.389,2.3565,2.3222,2.2923,2.2489,2.1901,2.1496,2.1039,4.8001,4.7968,4.782,4.7737,4.7721,4.7571,4.7319,4.703,4.6961,4.6649,4.6262,4.6191,4.5941,4.5578,4.5541,4.5447,4.5257,4.5241,4.5278,4.5241,4.5241,4.4964,4.4648,4.4281,4.4058,4.3805,4.3181,4.2833,4.2409,4.1836,4.1183,4.0643,4.0464,4.0098,3.9694,3.9463,3.9388,3.9388,3.9388,3.9388,3.9337,3.9337,3.9265,3.9156,3.9068,3.8885,3.8612,3.8337,3.7725,3.6646,3.6406,3.5963,3.5274,3.504,3.4782,3.4551,3.4334,3.405,3.3738,3.345,3.319,3.2699,3.2454,3.2127,3.1759,3.158,3.1517,3.1454,3.1207,3.1389,3.1389,3.131,3.1502,3.1706,3.1638,3.1459,3.1294,3.1153,3.1075,3.1061,3.1248,3.131,3.1397,3.1447,3.1461,3.1099,3.1061,3.0986,3.0874,3.0823,3.0785,3.067,3.0478,3.0351,3.0056,2.9811,2.9462,2.8978,2.8305,2.7675,2.6726,2.5998,2.5642,2.5335,2.5158,2.5064,2.5004,2.4732,2.439,2.4154,2.3851,2.3317,2.2788,2.2571,2.2195,4.8001,4.8001,4.7951,4.7919,4.7902,4.7754,4.7605,4.7504,4.742,4.7098,4.6789,4.6719,4.6439,4.5977,4.5977,4.5884,4.5739,4.5703,4.5739,4.5884,4.5739,4.5739,4.5505,4.5046,4.4572,4.4297,4.4067,4.3602,4.3024,4.2636,4.2062,4.1468,4.092,4.0352,4.0187,3.9723,3.9388,3.9388,3.9439,3.9388,3.9388,3.9388,3.9373,3.9301,3.9177,3.9068,3.8958,3.8797,3.8465,3.8043,3.7571,3.7149,3.6883,3.6717,3.6366,3.5967,3.5565,3.5142,3.4541,3.4309,3.3957,3.358,3.345,3.3255,3.3008,3.2849,3.2708,3.2618,3.2579,3.2474,3.2486,3.2708,3.2758,3.2794,3.2821,3.2861,3.2718,3.2029,3.1554,3.1487,3.1498,3.1522,3.1535,3.1609,3.1572,3.1485,3.1447,3.141,3.1336,3.1261,3.1187,3.1075,3.1073,3.0906,3.0828,3.0605,3.0346,2.998,2.9324,2.8837,2.7899,2.7037,2.6719,2.6278,2.5873,2.5781,2.5711,2.5441,2.5027,2.4885,2.4767,2.4307,2.3921,2.3642,2.3237,4.8001,4.8001,4.8001,4.8001,4.7968,4.7886,4.7787,4.7704,4.7621,4.742,4.7217,4.7183,4.6977,4.6631,4.6615,4.6509,4.6369,4.6333,4.6369,4.6423,4.6369,4.6369,4.6404,4.6032,4.5562,4.4986,4.4761,4.4326,4.3861,4.3495,4.3069,4.2349,4.1799,4.1468,4.095,4.0349,4.0006,3.9813,3.9559,3.9388,3.9388,3.9388,3.9388,3.9388,3.9301,3.9228,3.9228,3.9156,3.9046,3.8885,3.8612,3.824,3.7915,3.7672,3.741,3.712,3.6731,3.6388,3.5927,3.5638,3.5339,3.4714,3.4599,3.4254,3.3887,3.369,3.3496,3.3366,3.3262,3.3197,3.3327,3.3392,3.3574,3.3792,3.3729,3.3742,3.3619,3.2769,3.2009,3.1993,3.1856,3.1773,3.1743,3.1834,3.1793,3.1743,3.1706,3.1669,3.1535,3.1461,3.1485,3.1447,3.1485,3.1471,3.1471,3.1378,3.1225,3.0831,3.0358,3.0006,2.9486,2.8625,2.7859,2.7279,2.6643,2.6383,2.6233,2.5943,2.5791,2.5707,2.553,2.5282,2.5,2.4682,2.4224,4.8001,4.8001,4.8001,4.8001,4.8001,4.8001,4.7902,4.777,4.7754,4.7654,4.7537,4.7537,4.7352,4.7251,4.7217,4.7149,4.7046,4.6977,4.6961,4.6979,4.703,4.6979,4.6979,4.6876,4.6528,4.578,4.5489,4.5147,4.4752,4.4503,4.4013,4.3343,4.3046,4.2538,4.1911,4.1262,4.0736,4.0446,4.0034,3.9688,3.9562,3.9532,3.9532,3.9532,3.9532,3.9532,3.9532,3.9481,3.9496,3.9496,3.9502,3.9126,3.8649,3.824,3.8075,3.8046,3.7663,3.7415,3.732,3.7157,3.6771,3.6143,3.5924,3.5485,3.4884,3.456,3.4394,3.4172,3.4121,3.4082,3.4076,3.4302,3.4456,3.4607,3.4528,3.4448,3.4377,3.3625,3.3165,3.268,3.2471,3.2263,3.2189,3.2171,3.2054,3.2,3.1963,3.189,3.1757,3.1683,3.1743,3.178,3.1817,3.1817,3.1817,3.1817,3.1713,3.1542,3.1145,3.0908,3.0681,3.0011,2.9078,2.803,2.7433,2.7178,2.6905,2.6633,2.653,2.6496,2.6277,2.5926,2.5777,2.5699,2.5198,4.8001,4.8001,4.8001,4.8001,4.8001,4.8001,4.7968,4.7968,4.7935,4.782,4.7671,4.7671,4.7604,4.7504,4.7453,4.7436,4.7436,4.7436,4.7487,4.7538,4.7571,4.7555,4.7571,4.7555,4.7286,4.6892,4.6423,4.5909,4.5416,4.5104,4.4825,4.443,4.3767,4.3196,4.2885,4.2241,4.1589,4.1213,4.0828,4.051,4.0101,3.9869,3.9854,3.9854,3.9854,3.9869,3.9889,3.9889,3.9889,3.9889,3.9874,3.9803,3.9553,3.9126,3.8907,3.876,3.8501,3.824,3.8217,3.8089,3.7782,3.7444,3.7205,3.6898,3.642,3.6119,3.5786,3.5566,3.5488,3.5582,3.5847,3.5709,3.5965,3.6136,3.6014,3.591,3.5813,3.5336,3.4569,3.4036,3.3441,3.2901,3.288,3.274,3.255,3.2368,3.2236,3.2159,3.2059,3.2036,3.2036,3.2073,3.2123,3.2146,3.2146,3.2109,3.2046,3.2009,3.173,3.1555,3.1303,3.1038,3.0271,2.9233,2.8533,2.8206,2.7853,2.7496,2.7304,2.7327,2.6977,2.6602,2.6474,2.6393,2.6117,4.8001,4.8001,4.8001,4.8001,4.8001,4.8001,4.8001,4.8001,4.8001,4.7919,4.7853,4.7853,4.7836,4.777,4.7754,4.782,4.7869,4.7853,4.7951,4.8098,4.813,4.8114,4.8098,4.8081,4.7968,4.7671,4.732,4.6687,4.5981,4.5837,4.5562,4.5169,4.4614,4.4356,4.4016,4.338,4.2809,4.2337,4.1979,4.1505,4.0832,4.042,4.0137,4.0137,4.0081,4.0011,4.0046,4.0101,4.0137,4.0172,4.0191,4.0261,4.0156,3.9945,3.961,3.9394,3.9126,3.8907,3.8848,3.8686,3.8464,3.8127,3.8066,3.7825,3.7429,3.7155,3.6978,3.6665,3.6508,3.6587,3.6766,3.6836,3.6954,3.707,3.7007,3.6889,3.678,3.6465,3.5961,3.5352,3.4617,3.4111,3.3792,3.3532,3.3134,3.2814,3.2577,3.2459,3.2432,3.2395,3.24,3.2241,3.2291,3.2277,3.2277,3.2277,3.2277,3.2277,3.2178,3.2001,3.1884,3.1595,3.1159,3.0473,2.9891,2.9337,2.8955,2.8639,2.8394,2.8097,2.7691,2.7325,2.7214,2.704,2.6769,4.8001,4.8001,4.8001,4.8001,4.8001,4.8001,4.8001,4.8001,4.8001,4.8001,4.8001,4.8001,4.8001,4.8033,4.8082,4.8147,4.826,4.826,4.8356,4.8483,4.8532,4.8547,4.8547,4.8547,4.842,4.8163,4.8065,4.7555,4.6722,4.6477,4.6175,4.5837,4.5708,4.5505,4.5044,4.4543,4.4194,4.3675,4.3298,4.2649,4.1862,4.1093,4.0589,4.0543,4.0323,4.0257,4.0242,4.0331,4.0381,4.0381,4.0401,4.0489,4.0455,4.0401,4.0191,3.991,3.9631,3.9466,3.9358,3.9286,3.9141,3.8811,3.8701,3.8464,3.8113,3.7825,3.7572,3.7327,3.725,3.7327,3.7519,3.7495,3.761,3.7687,3.761,3.7443,3.7443,3.7333,3.7228,3.6584,3.5807,3.532,3.5022,3.4353,3.3914,3.3808,3.3569,3.3129,3.3038,3.2828,3.2737,3.2468,3.2336,3.2336,3.2372,3.2395,3.2408,3.2444,3.2336,3.2218,3.216,3.211,3.168,3.1278,3.105,3.0475,3.0119,2.9642,2.9179,2.8731,2.8345,2.8007,2.7735,2.757,2.7356,4.8001,4.8001,4.8001,4.8001,4.8001,4.8001,4.8001,4.8001,4.8001,4.8001,4.8033,4.8001,4.8082,4.8195,4.8356,4.842,4.8452,4.85,4.8564,4.8738,4.8769,4.8769,4.8769,4.8786,4.8658,4.8483,4.8452,4.8016,4.7404,4.7184,4.6892,4.6528,4.6266,4.6088,4.5873,4.557,4.5205,4.4553,4.4313,4.385,4.3051,4.2299,4.1953,4.1716,4.1367,4.0954,4.0851,4.0835,4.072,4.0489,4.0489,4.0489,4.0489,4.0489,4.0455,4.0316,4.0121,3.9925,3.9854,3.9818,3.9747,3.9445,3.9337,3.9104,3.876,3.8375,3.8165,3.8089,3.8052,3.8089,3.8202,3.8179,3.8217,3.8217,3.8165,3.8089,3.8052,3.7962,3.7924,3.791,3.7146,3.6646,3.6236,3.5452,3.4743,3.4641,3.4506,3.4071,3.3679,3.3491,3.3261,3.3027,3.2687,3.2646,3.261,3.2646,3.261,3.261,3.2503,3.2408,3.2408,3.2372,3.2264,3.1906,3.1726,3.1441,3.094,3.0383,2.9827,2.9456,2.9187,2.8679,2.8113,2.802,2.7987,4.8001,4.8001,4.8001,4.8001,4.8001,4.8001,4.8001,4.8001,4.8001,4.8033,4.8115,4.8115,4.8195,4.8356,4.8483,4.8564,4.8627,4.8658,4.8753,4.8894,4.8925,4.8894,4.8909,4.8925,4.8863,4.8784,4.869,4.8564,4.813,4.777,4.7437,4.7082,4.6876,4.6719,4.6545,4.6369,4.6051,4.5626,4.5237,4.4783,4.425,4.3643,4.3163,4.3147,4.2642,4.216,4.1794,4.1579,4.1208,4.087,4.0662,4.0627,4.0524,4.0489,4.0489,4.0489,4.0366,4.0277,4.0172,4.0172,4.0066,3.9925,3.9783,3.9589,3.9307,3.9038,3.8855,3.8855,3.876,3.8775,3.8775,3.8649,3.8612,3.8612,3.8649,3.8612,3.8575,3.8523,3.8486,3.8523,3.8509,3.7949,3.7391,3.6728,3.6105,3.5937,3.5605,3.5091,3.4601,3.4206,3.396,3.3665,3.3316,3.3023,3.2988,3.2952,3.2881,3.2846,3.2704,3.2646,3.2596,3.2525,3.2503,3.2467,3.2316,3.2001,3.1631,3.1196,3.0709,3.0383,3.0071,2.9538,2.9019,2.8725,2.8612,4.8066,4.8049,4.8066,4.8066,4.8066,4.8099,4.8131,4.8115,4.8164,4.8179,4.826,4.834,4.8468,4.8547,4.8627,4.8721,4.8832,4.8832,4.8909,4.897,4.9018,4.9001,4.897,4.9018,4.9018,4.9001,4.8894,4.8801,4.8675,4.8405,4.8,4.7605,4.7471,4.7319,4.7098,4.6927,4.6724,4.6606,4.5996,4.5667,4.5405,4.4742,4.4402,4.4156,4.3825,4.3352,4.2842,4.2626,4.2106,4.1735,4.1305,4.1155,4.0967,4.0732,4.0589,4.0524,4.047,4.0436,4.0366,4.0331,4.0277,4.0172,4.0066,3.996,3.9768,3.9595,3.9523,3.9487,3.9394,3.9337,3.9286,3.9199,3.9199,3.9162,3.9162,3.9126,3.909,3.909,3.9126,3.9213,3.9177,3.9053,3.8495,3.7967,3.7542,3.7286,3.6813,3.6168,3.5687,3.523,3.4988,3.4804,3.4342,3.405,3.3909,3.3733,3.3543,3.3227,3.3051,3.2952,3.3002,3.2917,3.2846,3.2846,3.2881,3.2721,3.2416,3.1997,3.1564,3.1204,3.0822,3.0481,3.0058,2.9693,2.914,4.8195,4.8163,4.8195,4.8212,4.8195,4.8405,4.8452,4.842,4.8452,4.8468,4.85,4.8675,4.8738,4.8801,4.8863,4.894,4.8987,4.897,4.9001,4.9001,4.9018,4.9018,4.9018,4.9018,4.9018,4.9018,4.8987,4.8987,4.8956,4.8769,4.8468,4.8212,4.7984,4.782,4.7654,4.7471,4.7285,4.7098,4.6647,4.6491,4.6244,4.5755,4.5298,4.5154,4.4653,4.4138,4.3886,4.3714,4.3365,4.3003,4.2375,4.1968,4.1752,4.1372,4.1117,4.0828,4.0728,4.0662,4.0536,4.0455,4.047,4.0436,4.0347,4.0207,4.0016,3.9996,3.996,3.9945,3.9839,3.9854,3.9889,3.9889,3.9696,3.9661,3.9589,3.9625,3.9625,3.9711,3.9747,3.9854,3.9747,3.9538,3.9466,3.8873,3.8414,3.8128,3.7892,3.7308,3.6997,3.6548,3.6345,3.6056,3.5578,3.5288,3.5152,3.4874,3.4315,3.399,3.378,3.3633,3.3556,3.3437,3.3374,3.3339,3.3409,3.3339,3.3241,3.2905,3.2528,3.2014,3.1606,3.1371,3.0862,3.0342,2.9681,4.8806,4.8405,4.85,4.85,4.8371,4.8483,4.8483,4.8483,4.8483,4.8578,4.8707,4.8863,4.8925,4.894,4.894,4.9018,4.9018,4.9001,4.9018,4.9018,4.9018,4.9018,4.9018,4.9018,4.9018,4.9018,4.9018,4.9018,4.8987,4.8925,4.8877,4.8642,4.8436,4.8292,4.813,4.7919,4.7721,4.7504,4.7302,4.7149,4.71,4.6919,4.664,4.6591,4.6205,4.5654,4.5228,4.4859,4.4381,4.3857,4.3368,4.305,4.2813,4.2396,4.1965,4.1515,4.1384,4.1129,4.0705,4.0608,4.0489,4.0489,4.0436,4.0366,4.0261,4.0296,4.0296,4.0296,4.0207,4.0172,4.0172,4.0081,3.994,4.0011,4.0011,4.0046,4.0046,4.0081,4.0081,4.0066,3.9996,3.9839,3.9803,3.9717,3.9292,3.8914,3.8716,3.848,3.8106,3.7834,3.7575,3.7252,3.6761,3.6432,3.6314,3.5716,3.5049,3.4815,3.4548,3.4378,3.4232,3.4108,3.4025,3.3991,3.3977,3.3997,3.3962,3.3874,3.3462,3.2882,3.2597,3.2409,3.1791,3.1037,3.0417,4.9266,4.8644,4.8769,4.8769,4.8627,4.8642,4.8642,4.8642,4.8642,4.8721,4.8863,4.8987,4.9018,4.9018,4.9018,4.9018,4.9018,4.9018,4.9018,4.9018,4.9018,4.9018,4.9018,4.9018,4.9018,4.9018,4.9018,4.9018,4.9018,4.9018,4.897,4.8877,4.8784,4.8658,4.85,4.8292,4.8082,4.7935,4.782,4.7721,4.7688,4.7571,4.7471,4.7438,4.7086,4.6822,4.6329,4.5961,4.5562,4.5003,4.4527,4.411,4.3857,4.356,4.309,4.2688,4.2283,4.193,4.1314,4.0754,4.052,4.0489,4.0489,4.0489,4.0489,4.0489,4.0455,4.0455,4.0401,4.0366,4.0366,4.0277,4.0207,4.0242,4.0242,4.0242,4.0242,4.0226,4.0242,4.0191,4.0137,4.0101,4.0031,3.9996,3.9783,3.9481,3.9394,3.9256,3.9122,3.8868,3.8719,3.8355,3.7927,3.7639,3.7396,3.6719,3.6104,3.5903,3.561,3.521,3.501,3.4898,3.476,3.4706,3.4706,3.4687,3.4673,3.4591,3.4221,3.3713,3.3462,3.3217,3.2667,3.1917,3.1371,4.9493,4.8851,4.8956,4.8909,4.8801,4.8909,4.897,4.894,4.894,4.897,4.897,4.9001,4.9018,4.9018,4.9018,4.9018,4.9018,4.9018,4.9018,4.9018,4.9018,4.9018,4.9018,4.9018,4.9018,4.9018,4.9018,4.9018,4.9018,4.9018,4.9018,4.9018,4.8956,4.8894,4.8769,4.8595,4.8483,4.8452,4.826,4.8163,4.8065,4.7902,4.7803,4.7737,4.7621,4.7406,4.7206,4.6905,4.657,4.6338,4.5626,4.5208,4.5021,4.4455,4.3965,4.3516,4.3415,4.2965,4.2166,4.1148,4.0828,4.0639,4.0608,4.0558,4.0524,4.0489,4.0489,4.0489,4.047,4.047,4.0455,4.0455,4.042,4.0436,4.0401,4.0401,4.0366,4.0366,4.0331,4.0331,4.0296,4.0277,4.0207,4.0172,4.0066,3.9975,3.9975,3.9925,3.9788,3.9642,3.9405,3.9219,3.8817,3.8712,3.8357,3.766,3.7183,3.6981,3.6679,3.6308,3.6011,3.5911,3.5725,3.5529,3.5499,3.5601,3.5484,3.5367,3.5008,3.4658,3.4216,3.3858,3.3346,3.2901,3.2407,5.0327,4.9632,4.9173,4.8987,4.8956,4.897,4.9018,4.9018,4.9018,4.9018,4.9018,4.9018,4.9018,4.9018,4.9018,4.9018,4.9018,4.9018,4.9018,4.9018,4.9018,4.9018,4.9018,4.9018,4.9018,4.9018,4.9018,4.9018,4.9018,4.9018,4.9018,4.9018,4.9001,4.8987,4.8925,4.8801,4.8707,4.8658,4.8515,4.8371,4.8371,4.8292,4.8227,4.8195,4.8033,4.7919,4.7836,4.7538,4.737,4.7285,4.6522,4.63,4.6111,4.564,4.5202,4.4741,4.4564,4.4038,4.3412,4.2702,4.2044,4.1405,4.0938,4.087,4.0712,4.0574,4.0539,4.0505,4.0555,4.0555,4.0489,4.0489,4.047,4.047,4.047,4.047,4.047,4.047,4.047,4.047,4.0436,4.0436,4.0366,4.0331,4.0242,4.0207,4.0172,4.0081,3.9945,3.9945,3.9799,3.9783,3.9647,3.9587,3.9289,3.8637,3.8316,3.8211,3.7884,3.75,3.7243,3.7032,3.6889,3.673,3.6626,3.6522,3.6447,3.6278,3.5955,3.5559,3.5166,3.4735,3.4309,3.3954,3.3604,5.0777,5.0033,4.9306,4.9018,4.9018,4.9018,4.9018,4.9018,4.9018,4.9018,4.9018,4.9018,4.9018,4.9018,4.9018,4.9018,4.9018,4.9018,4.9018,4.9018,4.9018,4.9018,4.9018,4.9018,4.9018,4.9018,4.9018,4.9018,4.9018,4.9018,4.9018,4.9018,4.9018,4.9018,4.8987,4.8894,4.8863,4.8815,4.8721,4.8673,4.869,4.8627,4.8595,4.8515,4.8388,4.826,4.813,4.7984,4.782,4.7621,4.7386,4.7167,4.703,4.6742,4.6373,4.5931,4.5291,4.4862,4.4376,4.3881,4.3189,4.2532,4.1941,4.1669,4.1522,4.1403,4.1144,4.1017,4.0797,4.062,4.057,4.057,4.0524,4.0524,4.0505,4.0505,4.0489,4.0489,4.0489,4.0489,4.0489,4.0489,4.0489,4.0489,4.0436,4.0366,4.0331,4.0242,4.0172,4.0172,4.0172,4.0156,4.0156,4.003,3.9904,3.9551,3.9373,3.9417,3.9009,3.8525,3.843,3.8264,3.8102,3.7937,3.7831,3.7725,3.7449,3.7217,3.6953,3.658,3.6111,3.5729,3.5297,3.493,3.4582,5.0826,5.0098,4.9354,4.9032,4.9001,4.9001,4.9018,4.9018,4.9018,4.9018,4.9018,4.9018,4.9018,4.9018,4.9018,4.9018,4.9018,4.9018,4.9018,4.9018,4.9018,4.9018,4.9018,4.9018,4.9018,4.9018,4.9018,4.9018,4.9018,4.9018,4.9018,4.9018,4.9018,4.9018,4.9018,4.8987,4.8987,4.8956,4.894,4.8909,4.8877,4.8846,4.8784,4.8721,4.861,4.8547,4.8436,4.834,4.8179,4.7984,4.782,4.7654,4.7487,4.7319,4.7098,4.6698,4.5904,4.5626,4.5399,4.495,4.4689,4.4249,4.3857,4.3509,4.2954,4.2381,4.2089,4.1705,4.1419,4.1021,4.0766,4.0655,4.0558,4.0524,4.0539,4.0505,4.0505,4.0489,4.0489,4.0489,4.0489,4.0505,4.0539,4.0505,4.0593,4.0608,4.0574,4.0608,4.0539,4.047,4.047,4.0505,4.047,4.0416,4.0255,4.0128,4.0167,4.0117,3.9902,3.9505,3.9473,3.942,3.9187,3.9051,3.9057,3.8872,3.8466,3.82,3.8029,3.7607,3.714,3.6442,3.5985,3.5671,3.5387,5.1432,5.1108,4.9896,4.9277,4.9138,4.9032,4.9018,4.9018,4.9018,4.9018,4.9018,4.9018,4.9018,4.9018,4.9018,4.9018,4.9018,4.9018,4.9018,4.9018,4.9018,4.9018,4.9018,4.9018,4.9018,4.9018,4.9018,4.9018,4.9018,4.9018,4.9018,4.9018,4.9018,4.9018,4.9018,4.9018,4.9018,4.9018,4.9018,4.9018,4.9018,4.8956,4.8925,4.8877,4.8877,4.8784,4.869,4.8658,4.85,4.8373,4.8163,4.8017,4.7869,4.7654,4.7471,4.7352,4.7005,4.6873,4.6807,4.6526,4.6214,4.5963,4.572,4.4763,4.399,4.3336,4.304,4.2669,4.2209,4.1794,4.1441,4.1233,4.1009,4.0866,4.0785,4.0608,4.0608,4.0574,4.0574,4.0505,4.0505,4.0558,4.0558,4.0662,4.0765,4.078,4.0814,4.0848,4.0848,4.078,4.0746,4.0796,4.0796,4.0693,4.0811,4.0734,4.0799,4.0786,4.052,4.0396,4.0453,4.0366,4.023,4.0094,3.9909,3.9644,3.9314,3.9094,3.8921,3.8639,3.8184,3.7359,3.6708,3.6365,3.6085,5.1708,5.1472,5.0103,4.9428,4.932,4.9229,4.9155,4.9094,4.9032,4.9018,4.9018,4.9018,4.9018,4.9018,4.9018,4.9018,4.9018,4.9018,4.9018,4.9018,4.9018,4.9018,4.9018,4.9018,4.9018,4.9018,4.9018,4.9018,4.9018,4.9018,4.9018,4.9018,4.9018,4.9018,4.9018,4.9018,4.9018,4.9018,4.9018,4.9018,4.9018,4.9018,4.9018,4.9018,4.9018,4.8956,4.8894,4.8894,4.8784,4.8658,4.8468,4.8373,4.8179,4.8,4.7836,4.7721,4.7638,4.7522,4.7439,4.7388,4.727,4.7167,4.7014,4.6318,4.5392,4.4668,4.4266,4.3835,4.3211,4.2651,4.2263,4.1925,4.1607,4.132,4.1065,4.0777,4.0727,4.0677,4.0608,4.0539,4.0558,4.0627,4.0696,4.0833,4.095,4.095,4.1052,4.1171,4.112,4.1018,4.1,4.0982,4.1016,4.1016,4.1117,4.1218,4.1169,4.112,4.1042,4.0979,4.1254,4.1227,4.0948,4.0778,4.0622,4.0419,4.0293,3.9992,3.9755,3.9503,3.9188,3.8451,3.7654,3.6956,3.6739,5.1802,5.1682,5.0163,4.9547,4.9518,4.9488,4.9398,4.9229,4.9124,4.9049,4.9018,4.9018,4.9018,4.9018,4.9018,4.9018,4.9018,4.9018,4.9018,4.9001,4.9018,4.9018,4.9018,4.9018,4.9018,4.9018,4.9018,4.9018,4.9018,4.9018,4.9018,4.9018,4.9018,4.9018,4.9018,4.9018,4.9018,4.9018,4.9018,4.9018,4.9018,4.9018,4.9018,4.9018,4.9018,4.9018,4.9018,4.8987,4.8956,4.8863,4.8786,4.869,4.85,4.8324,4.813,4.8082,4.8066,4.7984,4.7886,4.782,4.7721,4.7588,4.7504,4.7154,4.6424,4.5773,4.5336,4.4897,4.43,4.3867,4.351,4.2931,4.2532,4.2288,4.2044,4.1694,4.1392,4.1184,4.083,4.078,4.0833,4.0867,4.0969,4.1104,4.1321,4.127,4.1355,4.1505,4.1538,4.1406,4.1388,4.1337,4.137,4.1437,4.1404,4.1454,4.1421,4.1372,4.139,4.1456,4.1604,4.1621,4.1621,4.1434,4.1277,4.1435,4.1323,4.1006,4.0721,4.0578,4.0167,3.9471,3.8731,3.7965,3.7248,5.2476,5.229,5.055,4.9737,4.9649,4.9547,4.9488,4.9428,4.9398,4.9246,4.9032,4.9018,4.9032,4.9032,4.9032,4.9032,4.9032,4.9063,4.9001,4.9032,4.9032,4.9032,4.9001,4.9001,4.9001,4.9018,4.9018,4.9018,4.9018,4.9018,4.9018,4.9018,4.9018,4.9018,4.9018,4.9018,4.9018,4.9018,4.9018,4.9018,4.9018,4.9018,4.9018,4.9018,4.9018,4.9018,4.9018,4.9018,4.897,4.894,4.8956,4.8863,4.8738,4.8515,4.842,4.8388,4.8388,4.834,4.8276,4.8163,4.8082,4.7935,4.7836,4.7671,4.7305,4.6785,4.633,4.5875,4.5477,4.5107,4.4687,4.404,4.3524,4.3342,4.3063,4.2601,4.2155,4.1687,4.1208,4.1161,4.1213,4.1315,4.1413,4.1502,4.1636,4.1767,4.1866,4.1996,4.2045,4.2029,4.2045,4.1996,4.1899,4.1899,4.1834,4.1801,4.1785,4.1818,4.1867,4.1932,4.198,4.1916,4.1883,4.1948,4.1917,4.198,4.1948,4.1885,4.1661,4.147,4.1071,4.0388,3.9992,3.9376,3.8338,5.2823,5.2561,5.087,5.0057,4.993,4.9842,4.9737,4.9607,4.959,4.9441,4.9246,4.9216,4.9216,4.9216,4.9199,4.9216,4.9216,4.9246,4.9246,4.9216,4.9107,4.9077,4.9077,4.9063,4.9001,4.9018,4.9018,4.9018,4.9018,4.9018,4.9018,4.9018,4.9018,4.9018,4.9018,4.9018,4.9018,4.9018,4.9018,4.9018,4.9018,4.9018,4.9018,4.9018,4.9018,4.9018,4.9018,4.9018,4.9001,4.9001,4.9001,4.8987,4.8894,4.8767,4.8753,4.8721,4.8721,4.869,4.8627,4.8532,4.8436,4.8292,4.8227,4.8065,4.7902,4.744,4.7222,4.6822,4.6532,4.6173,4.5911,4.5373,4.4934,4.4689,4.4136,4.3554,4.3276,4.2929,4.2635,4.2551,4.2672,4.2909,4.2914,4.2715,4.2831,4.2703,4.2751,4.2541,4.2604,4.2731,4.2714,4.2633,4.2555,4.2381,4.2254,4.2254,4.2254,4.2317,4.2349,4.2285,4.227,4.2142,4.2109,4.2238,4.2302,4.227,4.227,4.2333,4.2238,4.1997,4.1678,4.1263,4.096,4.0625,3.9736,5.298,5.2466,5.1095,5.0415,5.0257,5.0228,5.0103,4.9825,4.9796,4.9737,4.9649,4.9619,4.9607,4.9518,4.9488,4.9488,4.9488,4.9428,4.9458,4.9428,4.929,4.926,4.9199,4.9155,4.9124,4.9063,4.9063,4.9032,4.9018,4.9018,4.9018,4.9018,4.9018,4.9018,4.9018,4.9018,4.9018,4.9018,4.9018,4.9018,4.9018,4.9018,4.9018,4.9018,4.9018,4.9018,4.9018,4.9018,4.9018,4.9018,4.9018,4.9018,4.8987,4.894,4.894,4.894,4.894,4.8894,4.8832,4.8801,4.869,4.8627,4.8595,4.8483,4.8324,4.8163,4.7951,4.777,4.7471,4.7188,4.6925,4.6694,4.6301,4.5925,4.5255,4.4651,4.4417,4.4152,4.3986,4.3833,4.4038,4.4308,4.4233,4.4042,4.3961,4.383,4.365,4.3354,4.3235,4.3455,4.358,4.3382,4.3127,4.2974,4.2803,4.2741,4.2803,4.2834,4.2865,4.2695,4.2586,4.2555,4.2555,4.2586,4.2618,4.268,4.2711,4.2743,4.2649,4.2555,4.23,4.1963,4.1787,4.1434,4.1002,5.2784,5.1421,5.1059,5.0801,5.0547,5.0547,5.0408,5.0285,5.0257,5.0228,5.0183,5.0171,4.9999,4.9518,4.9488,4.9547,4.9637,4.9607,4.9518,4.9488,4.9471,4.9488,4.9428,4.9337,4.9307,4.9229,4.9138,4.9124,4.9094,4.9063,4.9001,4.9001,4.9001,4.9018,4.9018,4.9018,4.9018,4.9018,4.9018,4.9018,4.9001,4.9001,4.9001,4.9018,4.9018,4.9018,4.9018,4.9018,4.9018,4.9018,4.9018,4.9018,4.9018,4.9018,4.9018,4.9032,4.9001,4.9001,4.8987,4.9001,4.894,4.894,4.8877,4.8846,4.8704,4.8704,4.8578,4.8595,4.8275,4.7951,4.7704,4.7671,4.7375,4.7078,4.6586,4.601,4.5597,4.5224,4.4882,4.4882,4.5015,4.5212,4.5294,4.5241,4.5318,4.52,4.5116,4.4816,4.437,4.4406,4.4487,4.4158,4.3833,4.3608,4.3472,4.3369,4.3369,4.3399,4.3369,4.3188,4.3082,4.3021,4.3021,4.3052,4.316,4.3251,4.3251,4.3204,4.3174,4.3082,4.2883,4.2661,4.25,4.2307,4.1934]}]]